GFSCGP_sfc_thetae_000.txt.gz
Theta_e
305 302 297 298 299 298 297 295 295 297 299 297 298 299 301 304 304 304 304 305 306 307 309 308 307 307 306 306 305 305 305 306 306 305 305 306 306 307 309 309 308 308 309 308
303 298 300 300 299 298 297 296 296 297 299 297 298 297 302 301 301 302 303 304 305 306 306 306 307 307 306 306 306 305 305 306 306 306 306 307 306 306 308 308 308 308 308 308
298 299 300 299 298 297 298 295 295 294 298 300 297 298 299 301 302 302 303 304 304 303 305 305 305 306 307 306 307 306 305 305 306 306 305 305 305 305 304 305 306 307 308 308
298 301 298 298 296 297 294 297 296 295 294 291 296 290 297 299 300 302 303 304 305 304 304 303 305 305 306 307 308 306 306 305 305 306 304 304 302 301 303 304 305 306 307 308
297 297 296 296 296 297 295 298 296 295 293 293 293 291 297 299 297 299 302 303 304 305 304 304 304 305 306 307 308 307 305 305 304 305 305 304 303 303 304 304 304 305 306 306
297 300 299 298 299 297 298 298 298 294 293 288 291 291 295 298 297 300 302 303 304 305 305 305 304 304 305 307 307 307 305 304 304 304 304 304 303 303 301 302 301 301 302 302
296 296 299 299 297 298 299 296 291 289 290 288 292 290 295 300 300 300 301 302 304 305 305 306 305 303 304 305 305 304 303 302 303 303 303 303 303 302 300 299 299 298 298 298
292 291 295 299 297 295 294 294 290 282 285 288 294 288 296 301 302 303 302 302 304 305 307 306 305 304 304 304 304 304 302 301 302 301 301 301 300 299 299 296 298 297 296 295
292 292 299 297 299 298 294 294 295 288 285 284 291 294 299 302 301 301 302 303 304 305 306 305 305 304 304 304 304 304 302 301 300 300 299 298 298 296 295 296 296 296 296 295
295 291 296 297 298 298 296 297 291 292 284 282 289 291 293 298 299 301 302 303 304 305 306 306 306 306 305 305 304 304 302 299 298 298 297 296 295 295 295 295 295 295 295 295
298 294 295 299 297 296 296 295 292 292 290 285 284 289 300 299 301 301 302 303 304 306 306 306 306 307 307 304 301 299 298 298 296 296 295 295 294 294 294 294 294 294 294 293
298 296 290 294 300 297 297 295 294 289 288 290 286 287 302 303 303 301 302 304 305 306 306 306 306 306 303 299 298 297 297 296 296 295 294 294 294 293 293 293 293 294 292 293
299 294 288 292 294 295 294 295 295 295 291 287 284 289 302 302 303 304 303 304 305 305 305 305 306 303 300 298 297 295 296 295 295 294 293 293 292 293 293 293 293 293 292 292
300 296 292 288 292 296 293 295 296 293 286 288 290 293 298 300 301 303 303 304 304 303 303 304 305 302 297 296 296 294 294 295 294 293 292 292 292 292 293 292 292 292 291 289
300 291 294 295 296 294 293 293 294 292 292 287 291 293 297 300 301 302 303 302 301 300 302 303 301 299 296 295 294 293 294 294 294 292 292 292 293 293 292 291 291 290 289 288
299 291 291 289 294 294 291 293 293 294 294 294 294 294 302 303 303 301 300 300 298 299 302 300 299 296 294 293 293 294 294 295 294 293 292 292 291 291 290 290 289 288 287 287
295 292 289 285 291 289 285 290 293 295 297 295 291 296 301 299 299 298 297 298 298 300 297 299 296 294 293 293 295 296 296 295 293 291 291 290 290 289 289 288 287 286 286 286
293 289 289 285 287 281 294 299 298 295 295 296 297 298 299 299 299 299 301 299 298 294 296 298 295 292 293 296 297 296 293 292 291 290 289 289 289 288 287 286 285 285 285 285
299 292 288 285 286 290 293 296 294 292 291 297 297 298 298 299 298 298 301 297 293 292 296 294 293 295 296 297 297 294 291 291 289 288 288 288 287 286 285 284 284 284 284 284
292 294 288 288 283 282 292 298 296 294 288 297 297 297 296 296 289 296 301 297 296 297 299 293 294 295 294 296 295 290 290 289 288 288 287 287 287 285 284 283 283 284 284 284
287 287 284 285 283 289 297 295 296 285 291 298 299 299 299 296 298 300 297 296 298 298 298 294 292 292 295 295 290 289 289 288 287 287 287 286 285 284 283 283 284 283 284 283
289 286 285 286 284 283 299 293 290 297 303 302 302 302 301 300 298 296 294 296 297 296 291 291 293 293 294 294 291 289 288 287 286 286 286 285 284 283 282 283 283 283 283 282
286 292 293 292 292 302 302 299 302 304 302 302 301 303 300 298 298 294 294 295 296 290 292 294 293 293 294 289 289 287 287 286 286 285 285 284 283 282 282 282 282 282 282 280
294 298 291 292 296 299 300 304 305 305 303 303 303 301 300 296 294 293 295 296 291 291 293 293 293 291 289 288 287 287 286 285 285 284 283 283 281 280 282 282 282 282 280 279
294 294 291 293 297 300 301 302 303 303 304 303 301 300 298 295 294 295 295 292 289 291 292 291 290 289 288 288 286 286 285 285 284 282 282 281 280 280 280 281 281 281 281 280
295 293 290 291 300 300 300 302 303 302 301 301 299 299 298 299 296 295 292 289 290 291 291 291 289 287 287 287 286 286 285 284 283 281 281 280 280 280 281 281 281 282 281 280

GFSCGP_sfc_thetae_003.txt.gz
Theta_e
307 305 300 301 302 301 300 299 299 302 303 301 301 302 304 307 306 305 306 307 308 309 312 313 313 313 312 312 310 309 309 310 309 308 307 308 308 309 310 310 310 310 309 309
306 301 302 303 302 301 301 300 299 302 304 302 302 301 305 304 304 304 305 306 307 308 309 311 312 312 312 311 310 309 309 309 309 308 309 309 309 308 309 310 310 310 310 310
300 302 303 302 301 299 301 299 298 298 302 304 301 300 302 303 306 305 306 307 307 306 307 308 309 311 312 312 311 310 309 309 309 309 308 307 308 307 306 307 308 310 310 310
301 303 300 300 299 300 297 301 300 299 298 294 302 292 300 302 302 303 305 306 307 308 308 308 308 310 311 312 313 312 311 310 309 309 307 308 304 303 305 307 307 307 309 309
300 299 298 299 298 300 298 302 300 300 298 297 297 294 300 302 299 302 304 305 307 308 308 308 309 310 311 313 313 313 311 310 309 309 309 307 306 306 305 306 306 307 307 308
299 303 302 300 302 301 302 302 303 301 298 292 297 294 296 300 300 301 304 306 306 308 309 309 311 311 310 312 313 313 311 310 309 308 307 307 306 306 304 305 304 305 305 305
300 299 302 302 301 303 303 299 294 292 292 291 297 294 297 302 303 303 303 304 306 308 308 309 309 309 310 309 311 311 310 309 309 308 308 308 307 306 304 303 301 300 299 300
295 294 298 302 300 298 299 298 292 284 287 290 297 291 297 304 304 304 304 305 306 308 309 309 309 310 309 310 310 310 309 308 308 307 306 306 305 303 303 301 299 298 298 298
295 295 303 300 302 302 299 297 299 292 293 288 293 298 302 305 303 303 304 306 307 307 308 309 310 310 310 309 310 311 310 309 308 306 307 305 304 302 299 299 299 298 298 297
299 293 301 301 303 302 300 302 294 295 285 284 292 293 295 300 302 304 304 304 305 308 308 309 309 309 310 310 311 312 310 308 307 305 304 301 300 299 298 298 297 296 297 296
302 297 298 302 300 299 299 298 297 296 294 287 286 291 303 302 304 304 305 305 307 307 307 308 308 309 310 311 309 308 307 305 305 303 301 299 298 297 296 295 296 296 296 295
302 298 293 297 303 302 300 299 299 292 290 293 292 290 305 305 305 304 305 306 307 307 308 308 308 309 309 309 306 305 304 302 301 300 298 296 296 295 295 295 295 296 294 294
302 296 290 294 298 300 299 301 300 298 296 290 286 290 305 306 305 306 305 306 307 307 307 307 306 308 307 306 304 303 302 300 299 298 296 295 294 294 294 294 295 295 294 293
302 298 294 290 294 298 295 297 299 298 290 292 293 295 299 302 303 304 305 306 306 306 305 305 306 306 306 305 303 301 300 299 297 296 295 295 295 295 294 294 294 294 294 292
303 294 297 297 298 297 296 296 296 295 296 291 294 295 299 301 302 303 304 304 303 304 304 304 303 303 305 303 301 299 298 297 297 296 296 295 295 295 294 294 293 293 292 291
302 293 294 291 296 296 293 296 296 296 296 296 297 296 303 304 304 302 302 302 302 303 303 303 302 302 303 300 298 298 296 297 298 297 296 295 295 293 293 292 292 291 290 289
298 293 290 285 294 291 286 292 296 297 299 298 293 298 301 299 299 300 302 303 302 303 303 301 300 302 302 298 297 296 297 298 298 295 294 294 292 291 291 291 290 289 289 289
296 291 288 285 289 282 295 301 300 297 298 299 299 299 299 300 302 303 304 302 299 301 299 298 301 302 299 297 297 298 298 296 294 294 293 292 291 290 290 290 288 288 288 287
303 294 287 286 287 291 294 298 297 295 294 299 298 299 301 302 302 301 304 301 301 300 298 302 301 302 295 296 298 297 296 294 294 292 291 291 290 290 289 287 287 287 286 286
297 298 288 289 283 281 293 299 300 300 290 300 300 300 299 300 292 296 301 302 299 298 301 300 300 296 295 295 296 296 294 293 291 291 290 290 290 289 287 287 286 286 286 285
289 288 286 286 284 289 298 302 300 288 292 302 302 300 300 297 298 302 302 298 298 301 300 299 294 293 296 296 296 292 292 292 291 290 290 289 289 288 287 286 286 285 285 285
290 287 286 287 285 284 301 300 292 298 304 304 303 302 301 301 300 300 297 296 299 299 299 294 293 295 295 296 295 292 291 291 290 290 289 288 288 287 286 285 285 284 284 284
288 295 294 294 294 304 307 303 306 306 304 303 302 303 301 300 300 300 296 298 297 297 294 295 294 294 294 294 292 290 290 289 288 288 288 288 287 286 285 284 283 283 283 282
294 300 295 296 298 301 301 305 307 305 302 304 304 302 303 301 301 299 299 298 297 293 292 295 294 292 292 292 289 289 289 288 288 287 286 286 285 284 284 284 283 283 282 281
295 296 293 295 299 300 301 303 304 303 303 303 304 303 302 301 299 298 296 296 293 291 293 293 292 292 290 290 289 289 288 287 286 286 285 285 284 283 283 283 283 282 283 282
296 295 291 289 299 300 301 302 302 301 301 302 301 299 299 300 298 297 295 293 290 291 293 293 292 290 289 289 288 288 288 287 286 284 285 284 282 282 283 282 282 283 283 282

GFSCGP_sfc_thetae_006.txt.gz
Theta_e
307 304 298 300 302 301 300 299 298 301 304 302 300 301 304 306 305 305 306 307 307 309 311 314 315 315 313 314 312 311 310 311 310 309 308 307 307 309 310 310 311 310 309 309
303 301 302 303 303 301 299 298 298 301 303 302 301 301 304 304 304 305 305 306 307 308 309 311 313 314 313 312 312 311 310 310 309 308 308 308 309 308 308 309 309 309 310 309
299 302 303 302 301 298 298 298 297 297 301 304 301 299 302 303 304 305 306 307 307 307 307 309 312 313 314 312 312 312 310 310 310 309 308 308 308 306 305 306 306 308 309 310
301 303 301 300 299 299 295 302 300 299 298 293 301 291 299 301 301 303 305 307 307 308 309 309 311 310 313 312 314 313 312 310 310 310 306 306 303 301 303 304 305 306 309 308
300 300 298 298 299 301 298 302 301 301 299 297 298 293 298 301 299 301 305 306 307 308 309 308 308 310 312 312 313 313 312 311 310 310 308 305 304 304 304 305 305 305 305 306
300 303 302 300 302 303 304 302 302 303 298 292 297 295 295 298 300 302 304 306 307 307 308 308 309 310 309 312 312 313 312 310 311 310 309 307 303 304 303 303 302 303 303 303
301 300 303 303 300 304 302 298 292 291 293 291 298 294 296 303 304 303 303 304 307 308 308 308 308 309 309 310 311 313 311 309 310 310 309 307 306 305 303 303 302 301 299 299
295 294 299 303 300 297 299 297 293 284 286 288 296 291 296 304 305 305 305 307 307 308 309 308 310 311 310 311 311 310 309 308 309 309 308 307 306 304 303 303 301 298 297 298
295 295 303 303 302 301 298 296 300 292 292 289 292 297 303 305 304 304 305 306 306 307 309 309 310 310 310 310 310 310 309 310 309 309 308 307 305 304 301 302 299 298 298 297
300 292 302 302 305 304 300 303 293 295 285 283 289 291 293 300 302 304 305 306 307 308 308 309 309 309 309 310 311 311 310 307 306 306 306 303 302 301 299 298 297 297 296 296
303 298 297 301 300 298 298 296 298 297 294 286 284 289 301 300 302 304 304 306 306 307 308 308 309 309 309 310 308 308 306 304 304 303 303 300 299 299 297 296 296 295 296 295
303 298 292 296 303 303 300 298 298 290 289 292 290 289 303 305 306 305 306 306 307 307 307 306 307 307 307 307 307 307 304 303 302 301 299 298 297 296 295 295 295 296 295 295
301 297 289 292 298 301 298 299 299 298 294 289 285 289 304 305 305 306 305 305 305 306 305 306 306 306 306 306 306 306 303 301 300 298 297 296 295 295 294 295 295 294 294 293
302 297 293 288 292 297 294 296 298 296 289 290 291 293 299 302 302 304 304 303 304 304 305 305 304 304 305 305 305 304 301 300 298 297 296 295 294 295 295 295 294 294 293 292
302 293 296 296 297 296 295 294 295 294 294 289 292 294 298 301 301 301 303 303 303 303 303 303 303 303 303 303 304 301 300 299 298 296 295 296 297 296 295 294 293 293 292 291
303 292 292 290 295 295 292 295 295 295 295 295 296 295 302 302 302 301 302 302 302 301 302 302 302 301 302 303 302 298 298 297 297 296 297 297 296 295 293 293 292 291 290 289
299 293 287 286 292 290 285 291 294 296 297 296 291 296 301 299 300 300 301 302 300 300 301 301 300 301 302 302 299 296 297 299 297 297 295 294 295 293 292 291 290 289 287 287
295 289 287 285 286 280 293 300 298 296 298 299 298 298 300 300 302 302 303 301 300 300 300 300 301 301 302 299 297 298 298 298 295 294 294 295 293 291 290 290 288 286 285 285
302 291 288 284 286 290 292 296 296 293 293 299 298 300 301 302 301 299 303 302 300 300 300 300 301 301 298 297 297 296 296 295 294 293 292 291 290 289 289 287 285 285 284 284
298 294 293 289 283 280 292 297 301 300 288 300 300 299 299 298 290 294 301 302 301 300 300 300 300 298 297 296 297 295 295 294 292 292 291 290 290 288 287 285 284 284 284 282
290 288 286 287 285 288 297 300 302 287 289 300 301 299 299 295 297 300 301 302 302 301 299 300 297 295 296 297 296 294 292 291 292 290 290 289 289 287 286 285 284 283 282 282
289 287 286 285 284 283 302 301 291 297 302 301 301 300 299 300 300 301 301 300 300 298 298 297 295 295 296 296 295 292 290 289 289 289 289 288 287 287 286 284 282 282 282 281
287 293 290 291 291 300 303 301 303 303 301 301 301 301 300 299 299 300 300 299 299 296 295 295 295 294 295 295 292 289 288 289 288 287 287 286 286 285 284 282 281 281 281 280
295 299 292 292 296 298 301 303 304 304 301 302 302 301 301 298 297 297 299 299 296 294 293 294 294 292 292 292 290 289 289 289 287 286 285 285 283 283 282 282 282 280 279 279
295 296 292 292 297 299 300 303 303 303 303 301 302 300 297 296 295 296 297 296 294 291 293 293 292 292 291 291 289 289 288 288 285 284 284 284 283 281 281 281 281 280 280 280
296 294 291 289 298 298 299 303 304 301 300 300 298 296 296 296 296 296 294 293 291 291 293 293 292 290 290 289 289 289 288 286 283 282 283 282 281 281 281 280 280 283 282 282

GFSCGP_sfc_thetae_009.txt.gz
Theta_e
301 296 290 292 296 297 295 293 291 294 299 296 294 294 297 297 297 296 297 298 299 301 304 305 305 304 305 305 304 304 303 304 303 301 301 300 301 303 303 303 306 306 306 305
297 293 298 300 299 297 295 293 292 296 299 298 295 295 297 298 297 298 298 298 299 300 302 305 305 304 303 303 304 303 304 303 303 302 301 301 301 302 303 304 304 305 305 304
294 297 301 299 298 295 293 293 293 293 297 298 294 292 294 297 298 300 300 300 300 300 300 302 303 303 303 303 304 305 304 303 303 303 302 301 301 301 300 301 301 303 304 305
297 301 298 297 297 296 291 298 297 296 293 287 295 285 292 294 295 298 300 298 299 300 302 302 301 299 302 304 304 305 306 305 304 303 300 300 299 298 299 300 300 301 304 305
296 295 294 295 295 297 294 299 297 296 293 290 292 286 290 294 293 295 297 299 299 300 301 302 302 303 301 304 305 306 306 306 306 303 302 300 299 300 301 301 300 300 302 304
296 299 297 296 299 299 301 298 297 297 292 284 291 289 288 292 294 297 299 299 300 300 301 302 302 303 304 304 304 305 305 305 306 305 304 302 300 301 299 299 299 300 301 300
298 296 298 301 296 300 297 292 283 282 282 282 293 289 290 297 298 298 298 298 299 299 300 301 300 302 302 303 302 303 304 304 305 304 304 304 303 301 300 299 298 297 297 296
291 288 297 301 297 294 294 293 282 278 279 282 292 286 291 300 300 301 301 298 300 301 302 302 301 302 302 302 302 303 304 304 304 304 303 303 303 303 301 301 299 295 295 296
291 292 301 301 300 298 294 289 296 287 285 281 286 292 297 299 301 302 302 302 300 301 303 302 301 303 302 303 303 303 303 304 304 303 301 301 302 299 298 295 294 295 295 295
297 289 299 301 301 300 297 299 287 285 278 279 285 286 288 295 298 300 299 300 300 302 302 302 301 302 302 303 302 302 302 302 302 300 299 298 297 295 294 294 294 293 293 294
299 293 292 298 297 294 293 291 293 295 288 282 280 284 296 297 299 299 301 303 302 301 300 301 301 302 302 302 302 302 303 303 298 298 297 295 294 293 293 294 293 293 294 294
298 293 283 292 299 301 296 296 295 286 285 284 283 287 300 299 300 302 301 301 301 301 301 301 301 301 301 302 302 303 303 302 297 296 294 294 293 292 291 291 293 293 292 294
297 288 281 287 293 297 294 296 295 293 285 285 279 285 300 300 300 301 298 299 300 301 301 301 302 302 301 301 302 302 302 297 296 294 292 292 291 291 291 291 291 292 292 292
300 293 287 282 288 294 291 293 294 292 279 284 285 289 294 297 296 297 298 298 298 299 300 301 301 301 300 300 301 300 298 296 295 293 291 291 290 290 290 291 290 291 292 290
298 286 292 293 294 295 293 292 292 290 290 285 289 289 294 295 296 297 299 300 300 300 300 300 300 299 299 300 300 298 294 295 294 293 291 292 292 292 293 292 291 291 290 290
299 286 288 288 293 294 290 291 292 291 291 291 291 291 296 297 299 298 298 299 298 299 299 300 300 300 300 300 298 295 295 296 297 295 293 294 294 293 293 291 291 290 288 288
292 286 282 286 289 288 280 287 290 292 293 292 285 291 297 296 297 298 297 298 298 299 299 299 299 299 299 298 295 294 296 297 296 295 294 294 294 293 293 291 289 287 285 284
287 283 284 285 283 279 289 296 295 292 293 294 295 295 297 298 299 300 301 297 298 298 299 298 298 298 295 294 294 295 295 297 295 294 294 294 294 292 288 288 286 284 282 282
296 285 284 282 281 286 289 293 291 289 289 297 295 297 298 299 298 297 301 300 299 299 298 298 298 295 293 293 293 293 293 294 295 293 293 291 288 287 287 285 282 282 281 280
293 289 285 282 277 276 285 294 299 298 285 297 299 297 297 297 288 292 299 301 300 298 298 297 294 293 292 292 295 293 294 293 292 288 287 288 287 286 284 282 281 281 280 280
282 283 280 277 280 283 292 296 300 282 287 298 299 298 297 295 296 299 300 298 298 298 297 294 292 293 294 294 295 292 289 286 287 288 288 287 286 284 283 281 280 279 279 279
282 279 282 279 282 277 297 295 285 293 297 298 298 298 297 298 298 297 296 297 298 295 292 292 292 293 293 295 293 291 285 287 288 287 286 285 284 284 283 279 279 279 278 275
285 288 283 285 283 294 297 295 298 299 298 298 298 298 297 296 296 293 292 295 294 291 290 291 290 293 293 293 288 286 286 288 286 285 284 283 283 283 280 279 278 277 277 273
293 296 287 287 291 295 297 299 300 300 299 300 300 299 297 296 293 291 293 292 290 289 290 290 292 291 290 291 287 286 287 287 285 283 282 282 280 280 279 279 279 275 273 272
292 293 290 290 293 295 296 297 299 299 301 299 297 296 294 294 292 292 291 291 289 290 290 291 290 291 290 287 286 286 286 285 283 282 281 281 280 278 278 279 277 277 276 274
295 293 289 288 295 295 296 297 299 298 296 296 295 292 294 293 291 291 290 290 290 288 291 291 291 288 287 287 286 285 285 283 281 280 280 277 276 276 276 275 276 280 281 282

GFSCGP_sfc_thetae_012.txt.gz
Theta_e
299 293 289 291 293 295 292 290 289 292 296 295 292 292 296 295 293 294 294 296 297 299 301 301 302 302 302 302 303 303 302 301 302 300 299 298 300 301 301 303 308 307 306 305
296 291 296 298 297 294 293 291 290 294 297 295 294 293 293 294 294 295 296 295 297 298 300 302 301 300 302 301 301 301 302 302 301 300 299 299 299 300 301 302 302 306 305 304
292 295 299 297 295 293 291 291 291 291 294 295 294 291 292 295 296 297 297 297 297 298 299 301 302 300 299 300 301 303 302 301 302 301 300 299 299 299 299 299 300 302 304 304
295 298 295 295 294 293 289 295 295 293 291 286 293 284 290 292 293 296 296 296 296 298 300 300 299 298 300 301 301 302 304 303 302 302 299 298 299 299 300 300 299 301 303 303
294 293 292 293 293 295 292 296 295 294 290 288 290 285 289 292 292 293 295 297 296 297 298 299 299 301 301 302 303 304 305 304 305 303 301 299 297 300 301 298 298 298 300 302
294 297 295 294 297 298 299 296 294 294 290 283 289 287 286 290 292 295 296 298 298 297 298 300 301 300 301 301 302 303 303 304 304 304 303 300 299 300 299 299 297 297 298 297
296 294 296 299 295 298 295 290 282 281 281 281 291 288 287 293 296 297 297 296 297 299 299 299 299 300 299 299 300 302 302 303 305 303 302 302 301 301 299 299 298 299 297 295
290 287 296 299 295 292 293 291 281 278 279 282 290 284 289 297 299 300 299 298 299 299 299 299 300 300 301 302 301 303 304 304 304 303 302 302 301 301 301 300 299 296 296 295
289 290 299 300 299 297 293 288 294 285 283 280 285 290 295 297 298 301 300 300 299 300 299 299 300 300 300 301 301 301 301 301 303 302 301 299 298 299 298 295 294 295 294 295
295 288 297 299 300 298 295 296 286 284 275 279 284 285 287 293 296 299 299 297 297 298 299 299 300 300 300 300 301 301 301 302 302 301 297 297 295 295 293 292 291 292 293 295
296 291 291 295 295 292 292 290 291 292 285 279 279 283 293 295 297 296 297 297 296 297 298 299 300 302 303 303 303 302 300 300 300 298 296 294 292 292 291 291 291 292 294 295
296 290 283 290 296 298 295 292 292 281 284 282 284 285 298 296 298 298 296 298 298 298 298 299 300 300 300 300 299 299 300 299 297 294 294 293 291 291 290 290 291 292 293 293
295 287 280 285 290 295 292 294 293 291 284 282 277 281 296 298 297 297 296 298 298 298 299 299 299 300 300 299 299 299 299 295 294 293 292 290 290 289 288 290 291 291 292 292
298 291 285 281 285 291 289 292 292 289 279 283 285 287 292 294 295 297 296 297 297 298 299 299 298 298 298 299 298 299 295 293 293 291 290 289 289 288 289 290 290 290 290 289
295 285 289 291 292 292 292 292 292 289 288 283 287 287 291 293 294 296 297 298 298 298 298 298 298 298 299 298 298 296 294 295 295 294 294 291 292 291 291 290 289 290 291 290
296 285 286 287 291 292 289 292 291 290 290 289 289 288 295 296 297 297 298 298 298 297 298 299 299 299 299 298 297 294 296 296 296 293 294 294 294 294 293 293 292 291 290 288
290 284 282 284 287 286 283 286 288 289 291 289 284 289 295 295 296 296 297 298 297 298 298 298 298 298 297 295 294 293 294 295 295 295 295 294 294 293 292 292 291 288 285 283
286 282 282 283 284 278 289 293 293 290 291 292 293 294 295 296 298 299 299 297 298 298 298 298 298 297 295 293 292 293 294 293 293 293 293 293 292 292 290 287 285 282 282 281
294 286 282 278 281 285 288 291 289 287 288 294 293 295 296 298 297 295 299 299 299 299 299 299 297 294 292 291 292 294 291 292 294 293 290 288 287 286 284 282 281 281 280 279
291 287 280 282 280 277 284 291 297 295 282 295 295 294 294 296 289 293 298 297 297 299 300 297 294 292 291 291 292 291 289 287 286 286 287 287 286 284 282 281 280 280 278 279
281 283 276 273 278 279 289 294 296 277 283 293 296 296 294 293 295 297 297 295 297 296 294 293 292 291 291 292 294 291 284 285 287 287 287 285 285 283 282 280 279 278 278 278
282 279 281 279 279 278 294 294 286 290 292 295 295 295 295 295 295 295 295 293 294 291 291 291 291 289 292 294 293 286 283 286 287 286 285 284 283 283 281 279 278 278 277 274
285 287 282 284 282 291 295 295 295 297 295 294 296 298 295 294 294 293 291 292 292 290 288 289 288 292 293 293 289 285 285 287 285 284 283 282 282 281 280 278 277 276 275 273
291 294 285 287 291 293 295 298 298 297 296 298 296 294 295 293 292 291 290 289 288 288 288 289 292 291 289 290 285 285 286 286 283 282 281 281 280 280 279 278 278 274 273 272
293 294 290 290 293 295 296 296 298 299 297 296 296 296 293 293 291 290 289 288 287 288 290 291 288 288 287 286 284 284 284 284 282 281 281 280 279 277 277 278 276 276 276 273
295 292 289 288 295 295 296 298 299 295 295 295 293 292 293 291 289 289 287 288 289 290 289 288 287 287 287 287 285 284 284 282 280 280 279 277 275 275 275 274 276 280 280 280

GFSCGP_sfc_thetae_015.txt.gz
Theta_e
297 292 288 288 291 292 290 289 288 290 294 294 291 292 295 294 292 292 292 292 296 297 299 298 300 300 301 302 303 302 300 303 301 299 299 298 300 300 300 301 305 307 307 306
294 289 293 296 295 293 292 289 288 292 295 293 292 292 292 293 292 293 294 295 296 297 298 300 300 299 300 301 301 301 300 300 300 299 299 299 298 299 300 301 302 305 306 306
291 294 297 295 293 291 289 289 288 290 293 293 291 290 291 294 295 296 296 295 296 297 298 299 300 298 298 299 299 300 300 300 300 300 299 298 298 298 297 298 299 302 306 306
293 295 294 293 292 292 287 293 292 292 289 285 291 283 289 291 292 294 294 294 293 296 297 298 299 299 299 300 299 300 301 301 301 300 299 297 297 298 300 301 300 300 302 304
292 291 292 291 292 293 292 295 293 292 289 287 289 284 288 291 290 292 293 295 295 295 297 298 299 300 299 300 300 300 302 303 303 303 301 299 298 300 301 300 297 298 299 301
294 295 294 293 295 296 297 294 292 291 288 282 287 285 285 288 290 293 295 296 297 297 298 298 299 299 300 300 299 300 301 302 303 302 302 300 299 300 299 299 298 299 297 297
295 295 296 297 294 296 294 289 281 280 280 280 289 286 286 292 294 294 295 296 298 298 296 297 297 298 299 299 299 300 301 301 302 302 302 302 301 300 299 299 299 298 295 292
287 285 294 298 294 291 291 289 280 276 278 281 288 282 288 295 297 298 299 299 297 297 297 298 298 298 298 299 300 300 301 301 302 302 302 301 300 298 299 298 298 296 293 291
287 288 297 298 298 295 292 287 292 284 282 279 284 288 293 295 296 298 297 297 296 296 297 297 298 299 299 299 300 300 300 300 301 300 300 298 296 296 296 294 292 291 292 293
293 287 295 297 298 297 294 295 285 283 274 278 283 284 286 291 294 296 296 295 295 297 297 298 298 299 300 300 300 299 299 299 299 299 297 296 296 294 293 291 290 291 292 293
293 290 290 293 292 290 291 289 289 289 284 279 276 282 292 291 294 293 294 296 295 295 296 298 298 300 300 299 299 298 298 298 298 296 294 294 293 291 290 289 290 291 293 294
295 288 282 288 294 296 293 291 289 283 283 281 280 283 294 294 295 295 295 296 297 296 298 298 300 300 299 299 298 298 297 297 295 293 292 292 291 290 289 289 290 291 293 294
293 286 280 284 289 292 290 291 291 288 283 283 278 280 294 296 294 295 295 296 298 298 300 300 300 300 299 299 298 298 297 294 293 292 291 290 289 288 287 288 290 292 292 292
297 289 284 280 284 289 287 290 291 288 279 282 284 286 291 292 293 295 295 297 298 298 299 299 298 299 298 298 298 298 295 293 293 291 289 288 288 288 288 290 289 290 291 290
293 285 287 289 290 290 290 290 291 288 287 284 286 287 290 292 293 295 296 297 298 299 299 298 298 297 297 298 297 295 293 294 294 293 292 291 292 291 292 292 292 292 292 292
294 284 286 284 290 290 288 290 290 289 289 288 287 286 292 295 295 295 296 297 297 297 297 298 298 298 298 297 296 293 293 293 294 293 293 294 295 294 293 293 290 291 291 288
289 284 283 279 286 284 279 285 287 288 289 288 283 287 293 293 294 296 296 297 296 296 298 297 297 297 298 297 294 292 292 293 294 292 292 295 294 292 291 291 291 288 284 283
285 283 282 281 284 276 287 291 291 289 290 290 290 292 294 294 295 296 297 295 295 295 295 295 296 298 296 293 292 292 292 293 292 292 291 291 291 291 288 285 283 282 282 281
290 285 282 282 280 283 288 290 287 286 287 293 292 293 293 295 294 292 296 296 295 294 295 297 297 293 291 292 293 292 290 290 292 290 287 286 286 285 283 281 280 279 279 279
289 285 280 281 279 276 284 289 294 293 283 293 294 292 292 291 288 292 294 294 295 295 295 293 292 291 291 291 292 290 288 286 286 286 286 286 284 283 281 280 279 279 279 279
280 283 279 279 280 280 287 291 293 279 282 294 295 295 291 290 294 294 295 294 293 293 291 291 290 289 290 290 293 292 286 285 286 285 285 285 284 282 280 280 279 278 278 278
281 279 277 279 278 276 291 292 286 290 291 293 292 292 292 294 294 294 294 292 292 290 289 289 288 288 292 293 291 289 284 285 286 284 283 283 282 281 280 279 278 278 276 274
285 286 281 283 283 291 293 294 295 296 293 292 291 295 296 293 292 293 291 290 289 288 287 288 289 291 292 291 288 284 284 286 284 283 281 281 281 281 280 278 277 276 275 273
291 294 286 288 290 293 295 298 299 296 294 295 296 295 293 291 292 291 290 287 287 286 286 289 289 287 286 286 285 285 286 285 283 282 281 281 279 279 278 278 278 275 273 272
292 293 290 290 294 295 296 297 298 299 297 294 294 293 292 292 292 289 287 286 286 286 290 288 287 285 286 288 286 284 284 283 282 281 280 279 278 277 277 278 276 277 276 273
294 291 289 288 296 295 296 298 299 293 292 292 292 291 292 292 289 287 286 286 286 287 287 286 286 285 284 283 283 284 283 282 280 280 279 276 275 275 274 273 275 279 279 280

GFSCGP_sfc_thetae_021.txt.gz
Theta_e
300 297 293 294 295 295 294 293 292 294 297 297 296 296 297 298 299 299 300 301 300 303 305 306 306 308 309 312 314 316 317 318 317 316 314 314 312 312 312 312 312 313 313 314
298 294 296 297 296 295 294 292 292 295 296 297 297 295 296 298 297 298 300 301 302 304 305 305 306 307 308 310 312 313 313 309 309 311 310 309 308 309 308 309 311 311 311 312
295 295 298 297 295 295 294 292 292 292 295 296 295 294 295 297 299 300 300 301 302 303 304 305 306 306 307 307 307 307 307 308 308 308 308 309 310 310 309 310 310 311 311 311
296 296 296 296 294 295 292 295 295 293 293 291 294 289 294 294 296 298 299 301 302 303 303 303 304 305 305 306 308 309 309 309 309 310 309 308 306 305 307 308 308 308 310 310
294 295 295 295 295 296 295 296 295 294 293 292 293 291 293 295 294 297 300 301 302 303 302 302 303 304 306 307 308 309 309 309 309 308 308 307 305 305 306 306 306 307 308 309
296 299 298 297 298 298 298 296 294 293 292 288 290 290 291 293 294 298 300 300 300 301 301 303 305 306 306 308 309 309 308 308 308 308 308 307 304 304 303 304 304 305 305 306
295 296 299 299 297 299 298 292 287 287 287 286 291 289 291 295 297 298 298 299 300 301 302 303 304 305 306 306 306 307 307 306 307 307 306 306 304 303 303 303 303 302 302 303
290 288 296 300 297 294 294 293 287 280 282 285 289 287 291 297 299 299 299 300 301 301 302 303 304 305 306 306 307 307 306 305 306 306 306 305 304 303 303 302 302 301 300 300
290 290 298 299 299 297 294 291 294 287 285 285 288 291 296 296 297 298 299 300 300 301 303 304 306 306 306 305 306 306 305 304 305 306 305 303 303 302 301 301 300 299 299 299
294 289 295 297 299 298 296 297 290 289 282 280 286 287 290 293 295 296 298 299 301 301 303 305 306 306 306 307 307 307 307 305 305 305 303 300 301 301 300 299 297 297 298 299
295 293 292 294 294 292 294 292 291 291 288 283 280 286 295 295 296 297 298 299 300 302 303 304 304 306 306 306 306 305 305 304 304 303 300 301 300 299 297 295 296 296 298 299
296 291 287 290 295 297 295 292 291 286 284 286 286 285 296 297 297 298 298 299 301 302 303 303 304 304 304 304 304 304 305 305 304 300 300 300 299 296 294 294 295 297 296 296
296 290 284 285 291 294 293 293 292 290 287 285 283 285 295 296 296 298 299 301 302 302 303 303 303 303 301 301 302 302 303 303 301 300 299 299 296 294 294 295 295 296 295 294
299 290 287 283 286 290 288 291 291 291 286 286 287 289 294 296 296 297 299 300 301 301 301 302 301 300 300 299 301 301 301 300 299 299 298 297 294 295 295 294 294 294 294 294
297 289 289 290 291 290 290 290 291 289 290 286 289 290 293 296 296 298 299 299 300 300 300 299 298 297 298 299 298 298 297 298 298 297 297 296 295 296 295 295 295 295 295 294
295 289 289 286 289 289 287 290 290 290 291 290 291 290 297 297 299 297 298 298 298 297 297 296 296 297 296 294 294 294 295 296 297 296 296 295 295 295 295 294 295 295 295 293
292 289 285 283 285 285 283 286 288 290 291 292 287 292 295 296 295 296 297 297 295 295 295 294 295 294 292 293 293 293 295 295 294 294 295 294 293 293 293 291 289 287 287 287
287 286 285 284 283 279 289 293 293 291 292 293 292 293 295 297 298 298 298 295 294 294 294 295 293 292 293 293 293 294 295 294 293 292 292 291 289 288 288 287 287 286 286 285
292 287 284 282 281 286 290 292 291 289 290 293 292 295 297 297 297 298 296 296 295 294 295 294 293 293 292 292 294 293 294 293 290 289 288 288 287 287 286 285 285 285 285 284
289 287 287 284 280 279 288 291 297 295 285 294 296 295 295 296 289 293 293 293 293 296 295 293 293 292 292 293 294 294 293 291 288 288 288 288 286 286 285 284 284 284 284 283
283 284 284 284 281 286 292 293 295 284 288 296 297 296 296 293 293 292 294 294 295 296 293 292 292 291 292 292 292 290 290 290 288 290 288 286 286 285 284 284 284 283 283 282
285 282 281 281 281 279 292 294 289 294 296 297 297 297 295 292 291 291 292 293 294 294 291 291 290 291 292 289 288 288 288 289 289 287 286 286 285 284 283 283 283 282 282 281
285 289 287 287 287 294 294 295 298 298 295 295 295 292 289 288 290 291 291 292 293 294 292 291 290 291 291 290 289 288 289 289 287 286 285 284 284 283 283 282 281 281 281 280
291 293 289 289 294 295 297 300 299 298 294 293 293 291 292 288 290 291 292 292 293 293 290 290 291 290 289 291 290 289 287 286 285 285 284 284 283 283 283 283 282 281 281 279
293 293 291 291 295 297 297 298 295 292 291 290 290 291 290 291 291 291 292 291 291 290 290 290 290 290 289 290 289 287 287 286 285 284 283 283 283 282 282 281 281 281 281 279
295 293 290 289 297 297 294 293 292 289 289 290 290 291 293 291 290 291 289 290 289 289 290 290 290 290 289 288 286 286 286 285 284 283 282 282 282 282 281 280 280 280 279 279

GFSCGP_sfc_thetae_024.txt.gz
Theta_e
306 305 300 301 302 301 299 297 297 299 302 302 301 300 302 305 307 307 308 308 309 311 314 314 315 316 316 319 321 323 323 324 324 324 321 320 318 318 318 318 318 319 319 319
303 299 301 302 301 300 299 297 297 300 301 302 301 300 302 304 304 306 307 308 310 311 311 312 314 315 316 317 317 318 316 316 316 318 317 316 315 316 317 318 319 319 318 317
300 299 301 300 301 299 299 297 297 297 301 302 301 299 300 302 305 306 307 309 309 309 309 310 312 314 315 315 315 315 316 316 316 317 317 318 318 317 315 315 314 315 314 314
300 301 301 301 299 300 296 300 300 299 298 295 301 294 297 300 302 304 307 309 310 310 310 310 311 312 314 315 316 316 315 315 315 316 315 314 312 310 312 312 313 312 313 312
297 299 300 299 298 301 299 302 300 299 299 298 298 296 297 300 299 302 305 307 308 309 309 309 310 312 313 315 316 316 316 315 315 315 314 313 311 312 312 311 311 311 311 310
301 304 303 302 302 302 303 301 300 301 300 293 296 296 296 298 299 302 305 306 307 309 309 310 312 313 313 315 315 315 314 313 313 313 312 310 309 309 309 308 306 306 307 307
299 300 304 305 301 303 303 299 294 291 292 291 296 294 297 299 301 303 303 305 307 309 310 310 310 311 312 313 314 313 313 311 311 311 310 310 309 308 307 306 305 304 304 305
295 293 300 304 301 298 299 298 293 284 287 291 295 291 296 301 303 304 305 305 307 308 309 309 310 311 312 312 312 313 312 310 310 309 309 310 309 308 307 306 305 304 304 304
295 293 302 302 303 302 299 297 299 292 291 290 294 296 300 301 301 302 303 304 305 307 307 308 310 311 312 312 312 312 311 310 310 309 310 309 308 307 306 305 304 303 304 303
299 293 299 300 303 303 301 301 295 297 287 283 290 292 294 297 300 301 302 303 305 306 307 309 309 310 310 311 312 312 309 308 309 309 310 307 307 307 305 304 301 302 303 303
300 297 295 298 297 297 299 298 297 297 294 288 285 290 301 300 302 300 302 303 305 306 307 307 308 309 310 310 309 307 307 308 308 309 307 307 306 305 303 301 301 301 301 299
301 298 292 292 299 301 300 297 296 292 288 292 290 289 301 301 302 302 302 303 306 306 306 307 307 308 307 307 305 306 307 306 305 305 305 304 304 303 301 300 300 300 298 298
301 296 289 290 296 299 297 298 297 295 294 289 287 290 300 302 302 303 303 304 304 305 306 306 307 306 305 303 304 304 302 301 301 302 302 302 302 300 299 299 298 297 297 297
303 297 291 287 290 294 291 294 295 295 290 289 291 293 297 300 300 302 303 304 304 304 305 305 305 304 302 302 301 299 299 300 300 301 300 300 299 297 297 298 297 298 298 297
302 293 295 295 295 295 294 293 294 293 294 289 292 293 297 299 300 302 302 303 303 303 303 303 301 300 301 298 297 298 298 299 300 299 298 297 300 297 296 295 295 297 297 296
301 294 293 291 294 294 292 294 294 294 295 295 295 294 301 301 302 301 301 302 301 302 301 299 297 299 297 296 296 296 297 298 299 298 297 296 297 296 296 297 295 294 293 292
298 296 291 288 291 290 288 292 293 294 296 295 291 296 300 299 300 301 301 302 301 300 298 296 298 297 296 296 296 296 297 298 298 296 295 295 294 294 293 293 292 292 291 291
293 293 290 287 288 283 293 298 298 295 296 298 297 298 299 300 301 302 304 301 299 294 293 296 298 297 296 296 296 297 297 296 296 294 294 293 293 292 292 291 291 291 290 290
300 294 287 285 286 290 293 295 294 292 293 299 297 298 300 301 302 301 301 297 294 293 296 299 298 297 296 296 296 295 295 295 295 293 292 292 292 291 290 290 289 289 289 288
294 295 294 286 283 282 292 297 299 298 289 299 300 299 298 297 289 296 294 292 293 295 298 298 297 297 296 296 295 294 293 292 292 292 292 292 291 290 289 289 288 288 288 287
287 288 286 287 285 289 297 297 298 287 290 299 300 299 296 293 293 292 292 293 296 297 297 299 298 296 296 296 294 292 292 291 292 293 292 292 291 290 289 288 288 287 287 286
291 288 286 286 283 282 298 297 291 297 301 301 302 300 295 291 290 291 292 293 294 294 295 296 296 296 296 296 294 292 291 293 293 293 291 291 290 288 287 288 287 287 286 284
290 294 292 292 292 300 302 299 302 304 302 299 293 290 291 289 290 292 293 294 294 295 295 296 295 295 295 296 295 292 292 293 292 291 290 289 288 288 288 287 286 285 284 282
298 299 294 294 297 299 302 304 301 300 295 294 293 293 293 291 292 292 293 293 294 294 293 293 293 293 293 295 295 294 294 292 291 289 289 288 287 286 288 287 286 284 282 281
298 299 296 296 298 300 301 301 296 292 292 292 292 292 292 292 292 291 290 290 291 291 292 292 292 292 293 294 294 294 292 291 289 288 287 287 286 286 286 285 284 283 283 281
300 298 293 292 299 297 295 292 293 290 289 291 291 292 293 291 289 290 289 290 291 291 292 292 292 292 292 292 293 292 291 289 288 286 286 286 286 286 285 284 283 282 280 279

GFSCGP_sfc_thetae_027.txt.gz
Theta_e
309 305 303 303 304 303 301 299 298 302 304 303 303 303 305 308 309 309 310 311 312 315 319 319 320 321 321 322 322 327 328 328 326 326 322 321 319 320 319 319 321 321 321 320
304 302 304 304 303 301 301 300 300 302 304 303 303 302 305 307 307 309 310 310 311 312 313 315 317 319 319 319 320 321 321 320 319 319 319 319 319 319 319 321 320 319 319 318
303 303 304 303 302 301 302 300 300 299 303 304 303 301 302 305 307 309 310 310 311 311 311 313 315 317 319 318 318 318 318 318 318 319 319 318 318 318 316 317 317 317 317 315
302 304 302 302 300 303 299 302 302 301 300 297 304 295 301 303 304 307 309 311 311 311 312 313 314 315 317 318 319 318 318 317 317 319 317 317 315 314 316 316 315 315 316 313
300 301 301 301 301 304 301 305 303 302 301 300 300 296 300 303 301 304 307 309 311 312 313 313 313 315 316 318 318 318 317 316 317 317 317 316 314 313 313 313 312 311 311 310
303 307 306 304 305 304 306 304 304 303 302 294 298 298 297 300 303 304 306 308 310 311 312 313 314 315 315 318 318 318 316 315 315 316 315 313 312 310 309 309 308 308 308 308
302 302 306 307 303 306 305 302 295 293 293 292 300 296 299 303 305 306 305 307 309 311 312 311 312 313 314 314 316 316 315 314 315 314 313 312 311 310 309 308 307 306 305 304
298 295 302 305 302 300 301 300 295 286 289 293 298 292 299 305 306 307 307 308 309 309 311 311 311 313 314 314 315 316 314 312 312 313 312 312 311 310 309 309 307 305 304 303
298 296 304 304 306 305 301 299 302 295 296 291 294 299 303 304 304 305 306 307 307 308 309 310 311 313 312 312 313 314 312 311 311 311 312 311 311 309 308 308 306 304 303 303
300 296 302 302 305 305 302 304 296 299 286 285 292 293 295 299 302 304 305 306 307 308 309 310 311 311 311 312 312 312 310 309 310 310 309 308 308 308 307 306 303 303 303 303
302 299 298 300 299 297 300 300 299 298 295 288 286 291 302 301 303 304 304 305 307 308 309 309 310 311 310 310 310 309 309 308 307 305 305 305 305 305 305 303 302 302 301 299
302 299 294 295 301 303 302 299 299 293 290 294 292 290 303 303 304 304 304 306 307 308 308 307 308 308 308 308 307 307 306 303 302 302 302 302 303 303 302 301 299 300 300 300
303 299 292 294 298 302 298 299 299 297 295 289 288 291 302 304 303 305 304 306 307 307 307 307 307 306 306 306 305 303 301 300 300 301 301 301 301 301 300 300 300 299 299 298
303 299 294 290 293 297 294 296 297 296 291 291 292 294 299 301 301 303 304 306 306 306 306 305 305 306 306 304 302 299 299 300 300 301 300 299 300 300 299 299 295 298 298 297
304 295 297 297 297 297 296 295 296 294 295 291 294 295 298 301 302 303 304 305 305 305 304 304 304 304 302 301 299 299 298 299 300 299 299 298 298 298 299 298 297 297 297 295
303 296 296 293 296 296 293 295 296 296 296 296 295 294 301 303 304 303 304 303 303 302 304 303 301 299 299 298 298 298 298 298 300 299 298 297 296 295 295 296 295 294 293 293
300 298 293 290 294 293 290 294 295 296 297 296 292 297 302 301 301 302 301 301 302 301 301 297 296 298 299 299 298 296 297 298 298 297 297 295 295 294 294 294 293 293 292 292
299 296 293 289 289 284 295 300 299 297 298 299 299 300 301 301 303 304 303 299 299 298 295 294 297 299 299 298 298 298 297 297 297 296 296 295 294 293 293 292 291 291 291 290
303 298 290 287 288 291 294 297 296 295 294 300 299 301 301 301 302 301 301 300 296 294 294 297 300 299 299 299 299 297 296 295 295 294 294 293 293 292 291 291 290 290 290 289
299 301 295 288 284 283 294 299 301 300 290 301 302 300 300 301 294 294 293 294 295 297 299 298 298 299 299 299 299 297 295 294 293 293 293 293 292 291 291 290 289 290 289 288
289 290 288 288 286 291 298 300 301 288 292 302 302 299 296 294 293 295 294 293 298 298 297 298 298 298 298 299 298 296 295 294 294 294 294 293 292 291 291 290 290 289 288 288
290 288 287 289 285 283 300 299 293 299 304 301 300 297 294 295 293 292 295 296 296 296 296 297 296 296 296 297 296 294 294 295 295 295 293 292 291 291 289 289 289 288 287 286
292 296 293 294 294 302 303 301 304 305 301 299 294 294 294 294 295 294 294 295 294 294 294 295 294 293 294 295 295 293 295 296 295 293 292 291 291 290 289 288 288 286 286 285
299 302 297 296 299 299 301 304 303 301 298 296 296 296 295 293 294 294 293 292 292 292 292 293 292 292 292 293 293 293 294 295 294 291 291 290 289 288 288 288 287 285 285 282
300 301 298 297 300 301 300 298 297 295 294 293 294 294 294 294 293 292 291 291 291 291 291 292 291 292 292 292 292 293 293 294 291 290 289 289 288 288 287 287 286 285 285 283
302 299 296 293 299 298 295 295 294 292 293 293 293 294 294 294 292 292 291 292 292 291 291 291 291 291 291 292 291 292 293 292 290 287 287 287 287 286 286 285 285 285 282 280

GFSCGP_sfc_thetae_030.txt.gz
Theta_e
309 303 301 302 303 302 301 299 298 301 304 301 301 302 304 307 308 309 309 311 312 313 316 318 320 322 322 325 325 326 324 326 325 325 321 319 318 318 318 319 320 319 319 318
303 300 304 305 304 301 300 299 299 302 304 302 303 302 304 306 307 309 309 310 310 311 313 315 317 319 318 319 320 320 319 319 318 318 318 317 317 318 318 319 317 318 318 316
301 303 304 303 302 301 301 299 300 299 303 304 301 300 301 305 307 308 309 310 311 311 311 314 315 316 318 318 318 317 317 318 318 318 317 317 317 317 315 316 316 315 316 315
303 304 302 302 301 302 298 304 302 300 299 294 303 292 299 302 303 306 308 310 309 310 312 313 314 315 317 318 319 318 318 317 317 318 316 316 314 311 312 312 313 312 312 311
300 301 301 301 302 303 301 304 302 301 299 298 298 295 299 302 300 304 307 308 310 312 312 312 313 314 315 318 318 318 317 316 317 316 315 313 311 310 310 309 309 308 309 309
303 307 306 304 305 305 305 303 303 303 300 293 298 296 295 298 301 304 306 308 309 310 311 312 314 315 315 319 318 318 316 315 316 314 314 312 310 309 307 307 306 306 306 305
302 302 306 306 302 306 304 300 294 293 293 292 300 296 298 303 306 306 306 307 309 311 312 312 311 312 314 315 316 316 315 313 313 313 313 312 310 309 307 307 306 305 303 302
297 294 302 305 302 300 301 299 296 286 288 292 299 292 297 305 306 307 308 308 309 310 312 312 312 313 313 313 313 313 313 311 310 310 311 311 311 309 307 307 305 303 301 300
297 297 304 304 305 304 300 298 301 294 298 292 293 298 303 304 304 305 306 307 307 308 311 310 311 312 312 311 312 312 310 309 309 310 310 308 308 307 306 306 304 302 301 302
300 296 302 302 304 306 301 302 295 299 286 285 290 292 294 299 301 304 304 306 307 309 310 311 311 311 312 312 311 312 309 308 307 306 304 302 303 304 303 303 301 300 300 300
302 300 298 300 299 296 299 298 298 297 295 288 286 290 300 300 303 303 305 306 307 308 308 309 309 310 310 310 309 307 307 305 302 301 301 301 302 302 302 301 299 299 299 299
301 300 295 295 301 303 301 298 298 294 290 294 292 290 303 302 304 304 304 305 307 308 308 309 309 308 308 307 306 305 304 300 300 300 300 300 301 301 300 299 299 299 298 298
303 299 293 294 298 302 297 298 298 297 296 289 287 289 302 303 303 304 304 305 306 308 307 307 307 307 306 305 304 302 300 299 299 299 299 299 299 299 299 298 298 298 297 297
304 299 294 291 293 296 293 295 297 296 291 291 291 293 298 300 301 302 303 305 305 306 305 305 306 305 305 304 302 300 299 299 299 299 298 298 298 297 297 297 297 296 296 296
304 296 298 297 297 296 294 294 294 293 294 289 293 293 297 300 301 302 303 304 303 303 304 303 302 302 301 301 300 300 299 298 299 298 298 297 297 296 296 296 296 295 294 294
304 297 297 293 296 295 292 293 295 295 295 295 295 294 301 303 303 302 302 302 302 302 302 302 300 299 299 299 299 299 298 297 298 297 297 297 296 296 296 295 294 294 293 292
301 299 294 290 294 292 289 294 295 295 297 296 292 297 301 299 300 301 301 301 300 299 299 298 298 298 299 300 299 297 297 297 297 296 296 297 296 295 294 294 293 291 291 290
299 297 293 288 289 283 294 299 298 296 297 298 298 299 300 300 301 301 300 299 298 297 297 297 297 298 300 299 298 298 299 297 296 295 294 295 294 293 293 293 291 290 288 287
304 298 290 287 287 291 294 297 296 294 293 299 299 300 300 301 301 298 299 298 297 297 297 298 299 299 297 298 299 298 297 296 295 294 294 293 293 292 292 290 290 288 287 286
300 301 295 289 283 282 294 299 302 300 289 301 300 299 297 298 291 294 297 298 296 297 298 297 297 297 297 297 297 295 295 295 295 295 294 294 293 292 291 290 288 287 287 286
289 290 287 288 285 289 298 300 301 287 291 301 299 297 295 293 294 297 297 296 297 297 296 296 295 294 294 294 294 293 292 292 294 296 295 294 294 292 291 289 288 287 285 284
289 287 286 288 285 283 301 300 292 299 303 301 299 297 295 296 295 296 296 295 295 293 294 294 292 292 293 293 293 291 291 292 295 295 294 293 292 291 290 288 287 286 284 283
293 297 295 293 292 302 304 302 304 303 299 298 297 297 295 294 293 294 293 293 293 292 292 292 291 291 292 293 293 290 291 293 293 293 293 292 291 290 289 286 285 283 283 281
299 302 299 298 299 300 302 302 301 300 297 297 296 296 295 293 294 293 292 292 291 292 291 292 291 290 290 292 292 291 292 292 292 291 291 290 288 288 287 287 285 282 281 280
301 301 298 297 300 302 300 299 298 296 296 295 295 294 294 293 292 291 291 290 291 291 291 291 290 290 290 291 291 292 292 292 290 289 288 287 287 286 285 284 283 282 282 280
301 298 296 294 301 300 298 296 296 295 294 294 293 293 293 292 291 291 290 290 290 290 290 290 291 291 291 291 291 291 292 291 288 286 286 286 285 284 283 282 283 284 283 282

GFSCGP_sfc_thetae_033.txt.gz
Theta_e
303 297 293 294 296 297 296 294 293 294 298 295 294 295 298 300 301 303 304 306 307 308 311 313 314 314 315 315 315 314 313 314 314 312 310 309 309 310 311 312 313 313 313 313
299 294 299 301 300 298 297 295 295 296 300 296 294 293 298 301 301 302 303 304 305 307 310 312 312 312 312 312 311 312 311 311 311 310 309 310 309 310 310 312 313 313 311 311
296 298 303 301 300 298 298 296 295 295 298 297 294 292 296 300 303 304 304 304 306 307 307 309 310 309 308 309 308 310 310 310 311 311 311 311 310 309 308 307 308 307 307 307
298 302 301 299 299 299 295 301 300 297 294 288 295 284 292 297 299 302 303 301 303 306 308 309 309 308 309 308 309 309 310 309 311 310 309 307 305 304 305 305 305 304 306 305
297 298 299 299 299 301 298 301 299 298 293 291 293 288 291 298 298 300 301 303 303 304 306 307 307 309 309 309 308 309 309 309 310 309 308 306 305 305 305 304 304 304 304 303
298 303 301 300 303 302 303 299 299 298 294 285 294 291 288 294 298 300 302 303 304 304 305 306 308 309 309 309 308 308 308 308 308 307 307 305 304 304 303 303 302 301 301 300
298 299 302 304 298 302 300 294 286 285 284 284 297 294 296 299 302 302 302 303 303 304 303 304 305 305 306 306 306 307 307 306 306 306 306 305 304 303 301 301 299 298 298 297
293 290 298 303 299 296 297 295 284 281 281 285 294 289 292 300 303 304 305 304 304 304 305 303 304 304 304 305 305 305 305 305 305 306 304 303 303 302 302 301 300 298 297 296
294 293 300 301 301 300 295 292 296 289 289 284 289 293 298 300 302 304 304 304 302 303 303 304 304 304 304 304 304 303 303 304 303 300 298 298 299 299 298 298 297 296 297 298
297 292 299 300 301 303 299 298 289 290 280 280 286 289 291 295 298 301 301 301 305 304 303 304 303 304 304 303 303 302 302 300 298 297 297 297 297 297 297 296 295 296 295 296
297 295 294 297 294 293 295 294 294 293 288 280 278 284 295 297 300 299 301 303 302 301 302 302 302 304 303 303 301 300 297 296 295 295 296 296 296 297 297 297 296 296 295 294
297 295 287 292 298 300 297 295 295 283 285 285 282 283 297 298 300 301 300 303 303 303 303 302 302 303 302 301 299 296 295 294 294 295 295 295 295 296 296 295 295 295 294 295
298 292 283 289 294 298 293 295 295 294 287 283 277 282 298 302 300 302 301 300 301 302 301 301 301 300 299 300 299 295 295 294 295 295 295 294 294 294 294 294 294 294 294 294
301 295 289 283 288 292 289 292 292 291 281 283 285 289 294 297 298 299 299 299 300 301 301 300 300 298 297 300 299 296 295 294 294 294 294 294 293 293 293 293 293 293 294 293
299 290 294 294 294 293 291 291 290 288 289 283 287 290 294 297 296 298 300 300 300 300 299 298 296 295 295 296 296 296 294 294 294 293 293 293 293 293 292 292 292 292 291 290
300 289 289 286 294 293 289 291 292 292 292 291 291 290 297 298 299 298 298 298 297 297 296 296 296 295 295 296 297 295 294 294 294 293 292 293 293 292 292 291 290 290 289 290
296 288 284 281 289 286 281 289 291 292 293 292 286 292 296 296 295 295 295 296 295 294 295 294 294 294 296 296 298 294 293 294 294 293 294 294 293 293 291 291 291 289 287 285
290 288 285 277 282 272 291 296 296 294 294 295 296 296 296 296 295 295 295 293 294 294 294 294 294 295 296 296 295 293 294 294 294 294 293 293 292 292 292 292 290 287 285 284
299 287 279 280 279 285 290 295 293 291 290 297 295 296 296 296 295 292 296 295 293 293 293 294 296 296 293 290 290 290 290 290 291 292 292 292 293 292 292 290 287 285 285 283
298 291 282 275 272 272 287 296 298 296 282 297 296 294 293 293 284 288 294 294 294 294 295 295 290 289 289 288 289 289 288 288 289 291 292 293 293 292 289 290 287 285 284 284
282 285 278 275 273 282 294 298 299 281 284 296 296 294 291 288 289 292 294 293 295 294 290 289 288 287 287 288 289 288 287 287 290 291 292 292 291 291 291 287 285 285 282 281
282 280 282 283 278 276 298 298 287 292 296 296 294 294 292 291 292 293 293 292 290 288 288 288 286 286 287 287 289 286 286 289 290 290 291 291 290 291 289 284 284 282 281 279
285 289 284 286 284 294 298 297 298 298 295 295 295 295 293 292 290 292 290 288 288 288 287 288 286 287 288 288 288 287 287 288 289 289 288 288 289 288 286 283 281 280 279 276
294 299 288 290 295 296 297 297 298 297 294 295 295 295 295 291 291 288 287 286 286 286 286 287 287 287 287 289 289 287 289 290 288 287 287 287 285 285 283 283 282 277 275 274
293 297 293 290 294 296 296 296 295 295 295 294 296 294 291 289 288 287 286 286 285 286 287 287 287 287 288 289 289 289 289 289 286 285 286 285 283 283 281 281 279 279 278 277
298 294 286 285 296 295 293 294 295 292 292 294 292 291 290 288 287 286 285 285 286 286 287 287 287 287 287 288 288 289 289 287 285 283 284 283 281 280 278 277 278 283 282 282

GFSCGP_sfc_thetae_036.txt.gz
Theta_e
302 296 292 293 295 296 294 292 292 292 296 294 292 293 295 299 302 302 303 304 305 306 309 310 312 312 313 314 313 314 314 314 314 312 311 309 308 308 309 311 313 313 311 309
296 292 297 299 299 298 296 294 292 295 298 294 292 292 296 298 300 303 303 304 305 306 307 309 309 310 309 311 312 310 309 309 309 309 308 309 308 308 308 309 307 307 305 305
294 297 300 300 298 297 296 293 293 293 295 295 293 291 295 299 300 303 304 305 306 306 306 307 308 307 307 306 307 308 308 308 308 309 308 307 307 306 304 304 303 304 304 303
296 300 299 299 297 297 293 299 297 295 291 286 293 283 291 294 297 300 302 303 304 306 307 307 306 306 306 305 306 307 307 308 309 308 306 305 303 302 302 301 301 302 302 301
294 297 298 297 297 298 296 299 296 296 291 289 291 286 288 297 295 297 298 301 303 304 306 306 306 307 306 307 306 306 307 307 306 306 305 304 303 303 304 303 302 301 300 300
297 301 299 298 300 300 301 298 297 295 292 284 291 289 285 291 296 298 300 301 302 303 304 305 306 307 306 306 305 305 304 304 305 305 304 303 302 302 301 301 300 299 299 299
296 297 300 301 297 299 298 292 284 283 283 282 294 292 291 298 301 300 300 300 301 303 303 304 305 305 305 304 304 304 304 303 304 304 303 302 301 300 299 299 297 297 296 296
290 288 296 300 297 293 294 293 283 281 280 283 293 287 290 298 302 302 303 302 303 303 303 302 303 304 303 303 303 303 302 303 304 300 298 298 298 298 298 298 297 296 296 296
291 291 298 299 299 298 293 290 294 287 285 282 287 290 296 299 302 303 303 306 305 304 302 303 303 302 301 301 302 301 301 298 297 297 296 296 296 296 296 296 295 295 295 297
296 290 297 298 299 300 296 296 288 287 279 279 284 287 289 294 297 299 299 300 302 305 304 302 302 303 301 301 299 298 296 295 296 296 295 296 295 297 296 295 294 293 294 294
296 293 292 297 292 291 293 291 291 290 286 280 277 282 294 295 297 297 300 303 303 301 301 301 302 301 300 298 296 294 295 294 294 296 295 294 294 295 295 294 294 294 293 293
296 292 285 290 295 297 295 293 292 282 283 283 281 282 298 298 300 300 300 301 300 300 300 300 298 298 297 297 295 294 293 295 294 294 294 294 293 295 294 294 294 293 292 293
296 290 282 287 293 296 292 293 293 291 285 283 276 281 295 298 296 297 297 299 299 300 299 299 298 296 296 297 297 294 294 293 293 294 293 293 292 293 293 293 293 293 293 292
300 293 287 283 287 290 286 289 290 289 280 282 283 287 292 295 295 296 297 298 298 298 297 297 295 294 295 296 296 295 294 293 293 293 292 291 291 292 291 292 292 292 292 291
297 288 291 291 291 291 289 288 288 286 286 282 285 287 291 294 294 295 297 298 297 296 295 295 294 293 294 294 295 296 294 294 293 292 291 291 291 291 292 291 291 293 292 291
297 287 287 284 291 290 286 288 290 290 289 289 289 289 295 296 296 296 296 296 294 294 294 294 294 294 294 295 295 295 295 293 293 292 292 293 292 292 291 292 291 292 291 291
293 286 282 279 286 284 280 287 289 290 291 290 285 290 294 293 294 293 293 293 293 292 293 293 293 293 293 293 294 291 291 292 292 292 293 292 292 291 290 290 290 291 289 287
289 285 281 276 278 271 287 294 294 292 293 294 293 294 294 293 293 293 293 291 292 292 292 292 292 293 293 292 290 289 289 289 288 291 291 291 291 290 290 290 289 287 287 285
295 284 280 273 277 282 288 293 292 289 289 295 294 294 294 294 292 290 294 294 292 291 292 292 293 293 289 287 287 287 287 286 289 289 290 291 291 290 290 290 289 289 287 283
294 287 280 280 271 270 284 294 297 294 283 296 295 293 292 291 282 286 292 293 292 292 293 291 289 286 285 286 286 286 285 286 287 289 289 290 291 290 289 288 287 287 283 283
282 278 277 273 270 280 289 295 296 281 284 295 295 293 291 288 288 291 291 291 292 291 286 287 285 285 285 286 286 285 285 286 288 289 289 291 290 289 291 288 285 282 282 281
283 279 276 277 271 276 295 295 287 290 294 294 293 293 291 291 291 292 292 288 286 285 286 286 285 285 286 286 286 285 284 286 288 288 288 288 287 288 288 283 282 282 281 279
284 287 283 285 284 291 296 294 296 297 293 293 293 293 293 291 290 290 286 285 285 285 284 286 284 285 286 287 287 285 287 287 288 287 287 286 286 286 285 282 280 280 279 275
292 296 287 288 293 295 295 296 296 296 294 295 296 295 294 290 288 285 285 284 284 284 285 285 285 285 285 287 287 287 288 288 287 286 285 284 286 283 283 282 282 278 274 273
290 295 291 288 293 294 295 294 294 294 295 295 295 294 291 288 285 285 284 284 284 284 285 285 285 285 285 286 286 287 288 289 287 286 284 283 284 283 282 281 278 279 278 276
296 292 286 286 294 293 292 293 294 294 293 294 293 291 287 286 285 284 284 284 284 284 285 284 285 285 285 285 285 286 288 288 286 284 282 283 281 279 279 278 279 282 282 282

GFSCGP_sfc_thetae_039.txt.gz
Theta_e
300 294 290 290 293 294 293 290 289 290 294 292 291 292 294 299 301 300 301 302 304 305 306 309 310 311 312 314 316 317 317 317 314 312 311 308 306 308 308 307 308 307 307 306
295 291 295 298 298 295 294 291 290 293 296 294 291 291 295 298 298 301 302 302 302 303 305 307 307 309 310 312 312 310 310 309 309 308 307 308 306 304 304 305 304 303 302 302
292 295 299 298 297 296 294 292 291 291 294 294 291 290 293 298 300 302 303 303 304 303 304 306 307 307 307 307 305 306 306 306 307 307 306 305 305 304 302 301 300 301 301 301
294 299 298 296 295 295 292 296 295 293 289 284 291 283 289 293 296 299 301 300 302 304 306 306 305 304 303 303 304 305 306 306 307 306 304 303 301 300 300 300 300 300 300 300
292 295 296 295 295 296 294 297 294 294 289 287 289 284 286 295 293 295 297 300 302 304 305 305 306 305 304 304 303 304 305 305 305 304 304 302 301 302 302 302 301 300 299 301
296 299 297 296 298 297 299 296 295 293 290 283 289 288 284 290 294 296 298 301 302 304 304 305 305 306 304 304 303 301 303 302 303 303 303 302 301 301 300 300 299 298 297 297
295 295 297 299 295 297 296 291 283 283 282 282 292 289 289 295 298 298 298 299 301 302 302 303 304 306 307 305 304 301 301 302 302 301 301 300 299 298 297 297 296 295 294 295
289 287 294 298 295 292 292 291 282 281 280 281 291 285 289 296 300 301 301 300 301 301 304 305 306 306 305 303 301 300 301 301 298 297 296 296 297 296 296 296 295 295 295 295
289 289 296 296 297 296 292 288 292 285 284 281 285 288 294 297 298 300 300 301 302 302 302 302 301 300 303 302 299 299 298 296 296 295 295 295 295 295 295 295 294 293 294 296
295 288 295 295 297 297 293 295 287 285 278 279 283 285 286 293 295 298 298 300 300 301 300 301 300 301 300 298 298 296 294 294 294 294 294 295 294 295 295 294 293 293 293 293
294 290 290 294 291 289 292 290 289 289 284 279 276 282 290 294 296 296 298 301 297 297 297 297 297 298 299 299 294 293 293 293 292 294 294 293 293 294 294 293 293 293 292 292
295 290 284 288 294 296 292 291 289 280 282 282 280 281 295 295 296 297 298 297 297 297 297 298 298 297 297 296 294 293 292 292 292 292 293 293 292 292 293 293 293 293 291 291
294 288 281 286 291 294 290 291 292 288 284 282 275 280 294 295 294 296 295 296 296 297 296 295 295 295 296 296 296 295 294 292 292 291 291 291 291 290 291 292 292 292 291 292
298 291 285 282 286 288 285 287 289 287 280 282 282 284 290 292 293 295 295 296 295 295 295 295 295 295 295 296 295 294 294 293 292 292 291 290 290 290 290 290 291 291 291 291
294 288 289 289 289 288 287 287 287 285 285 281 283 286 290 293 293 294 296 296 294 293 293 293 293 293 293 292 293 293 292 292 292 291 290 290 290 290 290 290 290 290 291 290
295 286 286 284 289 288 285 287 287 287 287 286 287 287 293 294 295 294 294 294 292 293 293 293 293 292 292 292 292 291 289 289 290 289 290 291 290 290 290 289 289 288 288 289
290 285 281 277 284 282 277 285 288 288 289 289 285 289 293 292 293 292 292 291 291 291 291 292 291 291 291 290 290 286 287 288 288 288 290 290 290 289 289 289 289 287 287 287
287 283 279 275 277 272 285 291 291 290 291 291 291 292 293 292 292 293 292 289 290 291 291 291 291 289 288 286 286 286 287 286 286 288 289 290 289 289 289 288 287 284 285 284
292 283 279 274 276 280 286 291 291 288 288 293 292 292 292 292 291 290 293 293 291 290 291 291 289 287 285 285 285 285 285 285 287 287 287 288 289 289 288 288 290 289 288 286
290 285 280 278 270 270 283 292 295 292 282 294 294 292 292 290 282 286 292 292 290 290 289 285 285 284 284 284 284 284 284 283 285 287 287 288 289 288 287 288 288 285 281 282
282 277 277 270 270 279 287 293 294 281 282 294 295 294 290 287 288 290 292 290 289 285 285 285 284 283 284 285 285 284 284 284 286 287 288 288 288 287 287 286 282 281 281 282
283 278 276 277 271 276 292 292 286 289 291 295 293 292 291 292 292 292 291 285 285 284 284 284 284 283 284 285 285 283 283 286 287 287 287 286 286 286 286 286 283 283 280 279
282 285 283 284 283 290 293 292 293 295 293 293 293 293 294 292 292 291 285 284 284 284 283 284 283 284 285 285 285 284 285 286 286 287 287 285 285 284 283 281 280 280 279 276
290 293 285 286 290 291 294 294 295 295 293 293 294 294 294 292 289 285 283 283 283 283 283 284 283 283 284 285 285 284 285 287 286 286 286 284 283 284 284 283 282 279 275 272
289 293 289 287 291 292 294 294 293 293 294 294 295 295 293 288 285 284 283 283 283 283 283 283 283 283 283 284 284 284 285 286 285 285 285 283 282 283 282 281 279 280 278 276
293 290 286 285 292 292 292 293 293 292 293 294 294 290 287 286 284 283 283 284 283 283 283 283 283 283 283 283 283 284 285 285 285 284 283 282 281 281 280 280 281 282 281 282

GFSCGP_sfc_thetae_042.txt.gz
Theta_e
298 294 290 289 291 292 291 289 288 289 292 292 289 291 294 298 299 299 300 301 303 304 305 307 309 311 315 315 318 321 321 320 318 315 311 307 305 305 303 304 305 304 304 303
295 290 293 296 295 294 292 289 288 291 294 292 291 291 294 297 298 299 299 300 301 302 304 306 307 308 309 312 315 314 312 311 310 308 307 304 302 301 301 301 301 301 300 300
292 293 297 297 295 294 293 290 289 290 291 292 291 288 292 297 300 301 301 301 302 302 303 305 307 307 308 306 304 306 307 307 307 306 305 304 303 302 300 299 299 299 300 300
293 298 296 294 294 294 290 294 293 291 288 285 289 283 288 293 296 298 300 299 300 302 304 304 303 302 302 302 303 304 305 305 305 304 303 301 300 299 299 299 299 298 299 299
291 293 294 293 293 295 293 296 293 292 288 287 288 284 286 293 293 295 297 299 300 302 302 302 302 303 303 303 302 304 304 304 304 303 303 301 300 300 300 300 299 298 298 299
294 297 296 294 296 296 297 295 293 291 289 283 287 287 284 288 292 295 298 300 302 302 303 304 303 304 303 303 301 302 304 303 303 302 302 301 300 299 298 298 297 296 295 296
294 294 296 297 294 295 294 290 282 282 282 281 289 287 288 292 296 298 298 300 301 302 302 303 303 303 305 305 302 302 302 302 302 300 299 298 297 297 295 295 295 295 294 294
287 286 293 297 293 291 291 290 282 281 280 282 289 284 289 295 297 300 301 301 301 301 302 302 305 304 304 302 301 301 302 299 296 296 296 296 295 295 295 295 295 294 294 294
288 288 294 295 296 294 291 287 290 285 283 280 283 288 293 295 296 298 299 300 299 300 301 301 300 299 299 299 299 299 297 295 295 295 294 294 294 294 294 294 293 293 293 295
293 287 293 294 295 295 291 294 286 284 277 277 281 283 285 291 293 296 296 297 299 300 298 298 298 298 298 298 297 294 294 293 293 293 293 294 293 293 294 293 293 292 292 292
293 289 288 292 289 288 290 288 287 287 283 278 275 281 289 294 296 296 297 299 296 295 295 295 295 296 295 293 292 292 293 293 292 291 292 292 292 292 293 292 292 292 291 291
293 289 284 287 292 294 291 289 287 279 281 281 279 280 293 292 295 296 296 295 294 295 294 294 294 296 296 297 297 294 294 293 291 290 290 290 291 290 290 291 292 292 291 291
293 287 281 285 289 291 289 289 289 286 283 281 274 279 293 294 294 294 293 294 295 294 293 293 293 293 295 296 296 296 294 292 291 291 290 290 290 289 288 289 290 291 290 290
297 289 285 282 283 287 284 286 288 286 279 281 281 282 289 291 292 293 293 294 293 293 293 293 292 292 293 294 294 293 291 290 290 290 289 289 288 288 288 288 289 289 290 289
292 286 287 287 287 287 285 285 286 285 284 282 282 284 287 291 292 293 294 294 293 292 292 292 292 293 293 292 292 290 289 289 289 288 288 288 288 288 289 289 289 288 288 288
293 285 286 285 287 286 284 286 286 285 284 285 285 285 292 293 294 293 293 293 292 291 291 291 291 291 290 290 289 287 287 287 287 286 288 289 289 289 288 288 287 287 287 287
289 284 282 279 282 281 277 284 286 286 287 287 284 288 292 291 292 292 291 291 290 290 291 291 290 290 289 287 287 285 285 286 286 286 288 289 289 288 288 288 287 286 285 285
285 282 278 274 276 270 283 288 289 288 289 290 289 290 292 292 292 293 292 290 290 291 291 289 289 287 286 284 284 284 285 284 285 287 287 288 287 287 287 287 287 286 287 287
289 282 277 273 275 280 284 289 288 287 286 292 290 291 292 291 291 290 292 291 289 290 290 290 288 285 283 283 284 284 284 284 284 285 286 286 286 287 286 286 286 286 287 286
288 284 280 273 270 270 282 289 293 291 282 292 292 291 290 290 283 289 291 292 291 291 289 284 283 283 283 283 284 284 283 283 283 284 285 286 287 286 285 285 286 284 281 281
280 277 275 269 269 279 285 291 292 282 283 292 293 292 289 288 289 290 292 292 290 285 284 284 284 283 283 284 284 283 282 282 284 286 285 286 288 286 285 284 283 281 281 282
283 280 279 275 269 276 290 291 286 289 289 292 292 292 291 289 290 291 290 286 285 284 284 284 283 282 283 284 284 282 281 283 285 285 285 286 286 286 285 282 284 283 282 279
282 285 281 283 282 289 291 290 292 292 292 291 292 291 292 291 292 290 286 284 284 284 283 284 283 283 284 284 283 282 282 284 284 285 285 285 286 284 282 282 280 280 280 277
288 290 284 285 288 289 291 293 294 294 293 293 294 293 293 291 290 286 283 283 283 284 283 284 283 282 282 283 283 282 283 284 284 284 283 283 285 282 283 283 282 279 275 273
288 290 287 286 290 291 294 294 293 293 293 294 294 293 292 290 286 285 283 283 283 283 283 283 282 282 282 283 283 283 283 285 283 283 284 282 282 280 281 281 279 280 279 277
290 289 285 285 291 291 291 292 293 292 292 294 292 289 288 288 284 284 283 284 284 283 282 282 282 282 282 282 282 282 285 285 283 283 282 282 280 278 277 277 278 283 282 281

GFSCGP_sfc_thetae_045.txt.gz
Theta_e
302 299 296 296 297 295 295 294 293 295 297 297 295 297 299 303 305 305 306 308 308 309 312 316 319 322 324 326 326 325 321 319 318 317 316 312 312 312 311 312 312 311 310 310
299 295 297 299 297 296 295 294 293 296 297 297 296 296 300 302 302 304 306 306 308 310 312 313 316 320 323 324 326 323 323 319 318 317 316 314 312 311 311 309 309 308 309 309
297 297 300 299 298 297 296 295 294 294 296 297 296 294 297 301 303 304 306 307 308 310 309 310 312 314 317 319 320 319 318 319 318 317 314 312 311 310 309 309 308 307 308 308
298 300 298 297 297 297 294 298 296 294 293 291 295 289 294 298 300 303 304 306 307 308 309 310 310 310 311 312 313 314 314 313 314 314 313 311 311 310 309 309 308 307 307 307
296 298 297 297 296 299 296 299 297 295 294 293 294 292 293 298 298 301 303 305 307 309 309 309 309 310 309 310 311 311 312 311 311 312 312 311 309 309 309 310 308 307 307 306
298 301 300 299 299 299 300 299 297 296 295 289 292 293 294 294 297 301 303 305 306 307 308 309 309 310 309 310 310 310 310 309 309 309 310 310 308 306 306 306 306 305 305 305
297 297 299 301 298 300 299 296 289 287 288 287 292 291 295 297 299 304 303 304 306 308 308 308 308 308 309 309 308 309 309 307 307 307 306 306 305 303 302 302 302 302 303 303
292 289 297 299 298 297 296 295 290 283 285 288 292 289 294 299 301 303 305 306 307 307 308 308 309 310 310 309 308 308 307 304 303 303 303 303 303 303 303 303 303 303 303 303
292 291 298 298 300 299 295 292 295 289 287 286 289 293 297 299 299 302 304 305 306 307 307 308 309 309 308 307 306 307 303 302 301 300 302 302 303 302 302 303 303 303 303 302
296 291 296 297 299 299 297 297 291 290 282 280 285 288 291 296 298 300 302 304 305 305 304 304 304 304 303 304 302 301 300 298 298 299 301 300 300 300 301 302 301 301 301 301
297 294 293 296 294 294 295 293 291 292 288 283 281 286 295 297 300 301 303 303 303 302 300 300 300 300 299 299 299 299 297 297 299 298 298 299 299 299 299 299 299 299 299 300
297 293 290 291 296 298 296 294 293 288 285 286 286 288 297 298 300 301 301 300 300 299 298 299 299 300 300 300 299 298 298 298 298 297 298 298 297 298 297 297 297 298 298 299
297 291 287 289 293 296 294 294 291 289 289 286 286 287 296 297 297 300 299 298 297 297 298 298 298 298 298 298 299 298 296 295 296 295 295 296 296 296 296 296 296 297 296 296
299 291 290 287 289 292 290 291 291 291 287 286 287 288 292 295 296 296 297 298 298 297 297 297 296 297 297 297 296 294 295 295 294 294 294 295 295 295 295 295 295 295 295 295
297 291 291 290 290 290 289 289 290 289 289 288 289 288 292 296 297 297 298 297 296 296 296 295 295 296 296 295 294 293 293 293 293 293 293 295 295 295 295 295 295 295 294 294
295 290 290 288 289 288 288 289 289 289 288 289 288 288 294 296 298 297 297 296 295 295 295 295 295 294 293 292 291 291 291 292 292 292 292 294 295 294 294 294 294 294 293 292
292 290 287 284 285 284 284 288 290 289 290 291 288 293 296 295 296 297 297 296 295 294 294 293 294 292 292 291 290 290 290 291 291 291 292 293 293 292 292 293 293 292 292 291
289 286 283 283 280 279 289 292 291 291 291 292 293 294 296 297 297 299 299 297 295 294 294 294 293 292 290 290 290 290 290 290 290 290 290 291 291 291 292 292 292 292 292 292
291 287 281 283 281 284 287 289 291 290 290 295 294 294 294 295 296 296 297 297 296 295 295 294 292 290 289 289 289 289 289 289 288 288 288 289 290 291 291 290 290 291 290 289
290 288 288 280 281 278 287 291 296 295 288 294 296 294 293 295 293 297 297 296 294 295 294 290 289 288 289 288 289 288 288 287 287 288 289 290 291 290 289 289 289 290 288 286
287 284 285 277 282 284 289 293 296 286 289 295 297 296 294 295 297 295 296 294 295 291 288 288 289 288 288 288 289 287 287 286 287 289 289 290 291 290 290 289 288 288 286 286
287 284 283 279 280 282 292 295 291 296 295 296 297 296 296 294 293 294 293 290 287 287 287 288 288 287 288 288 288 287 286 287 288 289 288 287 287 286 288 288 287 286 286 285
287 290 288 287 288 294 294 296 297 296 296 297 297 297 296 294 293 292 288 286 286 287 287 287 287 286 287 288 288 286 287 287 287 287 286 287 287 287 287 286 286 285 285 284
291 292 290 289 293 292 294 296 298 299 297 298 297 297 297 295 293 288 286 285 286 287 287 287 286 285 286 286 287 287 287 287 286 284 286 287 286 286 286 286 285 285 284 283
292 292 290 290 293 293 295 297 297 297 297 296 297 297 295 292 288 287 285 285 287 286 286 286 285 285 285 286 286 287 287 287 285 284 283 284 285 285 285 285 285 284 284 284
293 292 289 289 294 294 294 295 296 296 295 296 294 290 291 290 287 286 285 287 286 286 285 285 285 285 285 285 285 285 287 286 284 283 283 284 283 285 284 284 283 284 284 282

GFSCGP_sfc_thetae_048.txt.gz
Theta_e
307 303 298 301 302 301 300 298 297 300 302 302 301 302 303 311 315 314 316 317 317 318 321 324 326 328 330 331 330 331 329 327 326 323 319 317 316 316 317 317 317 317 316 316
303 299 302 303 302 301 300 299 298 300 301 303 303 303 305 309 312 315 315 316 317 318 320 322 326 328 329 329 330 330 329 329 330 328 324 321 319 318 317 317 316 316 315 315
301 301 303 303 302 300 300 299 299 298 300 303 303 300 303 305 310 311 314 316 318 319 319 321 323 327 329 329 329 329 329 329 327 323 321 320 318 317 315 316 315 314 314 314
302 303 302 303 301 302 298 302 301 300 299 295 301 293 301 305 305 308 311 314 316 316 318 318 317 318 321 324 325 324 325 324 322 322 319 316 316 314 316 318 316 316 315 314
300 301 301 300 300 302 300 303 302 300 300 299 298 295 300 304 303 306 310 313 316 317 317 313 314 316 317 319 319 320 319 318 318 318 318 317 315 315 316 317 313 313 313 311
303 306 305 303 304 304 305 303 303 302 300 293 297 296 296 301 303 307 311 313 315 315 315 314 315 316 316 318 319 318 317 316 317 317 317 316 314 310 310 309 307 307 307 307
301 301 304 305 303 305 304 300 293 291 291 290 298 296 297 303 304 308 310 312 314 313 313 313 313 314 315 316 317 317 316 314 315 315 313 311 309 307 306 306 306 304 304 304
296 293 300 303 303 300 300 299 293 283 287 292 297 293 300 305 306 309 312 313 312 312 314 314 314 315 315 315 316 315 314 312 311 310 308 308 307 309 307 306 306 305 304 305
296 295 302 302 304 304 300 297 301 294 294 292 296 298 302 304 305 307 310 310 310 312 313 314 315 315 316 316 315 315 312 309 307 305 305 304 306 306 305 306 306 306 306 305
301 294 300 301 304 304 302 303 295 297 286 284 290 292 295 300 303 305 308 308 311 312 313 314 314 314 315 314 313 311 308 304 303 303 303 303 305 305 305 305 304 303 303 303
304 300 297 300 299 298 299 298 298 298 294 287 286 292 302 302 305 306 308 310 311 312 311 311 311 311 311 310 308 306 305 303 302 300 301 304 304 302 301 301 300 300 300 299
303 301 296 297 301 302 301 299 299 292 290 294 293 291 301 304 306 308 309 310 312 311 309 308 308 306 306 306 305 302 305 302 300 302 302 300 300 300 299 298 299 299 298 299
303 299 293 294 298 301 298 300 299 296 297 292 290 292 301 304 304 308 309 308 308 307 306 306 305 305 305 303 302 300 301 299 299 300 299 299 298 298 298 298 298 298 298 298
302 300 297 293 294 299 295 297 298 297 291 291 292 293 297 301 303 305 308 308 306 305 305 305 304 303 302 301 300 300 297 298 299 298 297 296 297 298 298 297 297 297 298 297
304 297 297 295 295 295 296 296 297 295 296 292 294 293 297 300 303 305 307 306 304 304 303 303 302 301 301 300 298 297 297 298 297 296 295 296 298 298 297 297 297 297 297 297
301 297 296 293 294 294 292 295 296 297 297 296 296 295 301 302 303 304 304 304 302 303 302 302 301 300 299 297 297 295 296 297 296 295 294 295 296 296 297 296 296 296 296 296
300 298 294 290 291 291 290 295 296 296 298 297 294 298 301 300 301 303 304 303 303 302 301 300 299 297 296 296 295 295 296 296 294 293 293 293 294 294 295 295 295 295 295 294
297 296 293 291 287 285 294 297 297 297 299 300 298 299 301 302 304 306 307 305 303 303 301 299 298 296 296 296 295 295 295 294 292 292 292 292 293 293 294 295 294 294 293 293
299 296 289 291 287 291 293 293 293 293 294 299 299 299 301 302 303 303 306 306 305 303 302 300 299 297 295 295 295 294 293 292 291 290 291 292 293 293 294 293 294 294 291 291
296 297 297 288 289 287 292 296 300 299 291 300 301 301 301 302 298 299 305 305 304 302 301 298 295 293 294 294 294 292 291 290 290 290 291 292 293 293 293 293 293 292 291 290
293 292 292 290 290 292 296 298 300 289 292 301 302 303 302 301 303 302 306 303 301 300 296 292 292 292 293 293 292 290 290 290 290 291 292 292 292 291 291 289 291 291 290 288
293 292 289 288 288 286 298 298 294 300 302 302 303 304 304 303 300 302 302 300 297 293 290 291 291 291 292 292 291 290 290 291 291 291 291 291 291 290 290 289 291 290 289 286
293 297 296 295 296 299 301 303 304 302 301 303 303 304 304 301 300 300 298 295 290 289 290 291 291 290 291 291 290 289 290 291 291 290 290 290 291 290 290 289 288 286 287 286
298 298 297 295 298 299 301 303 303 304 303 304 304 305 304 302 300 296 291 288 288 288 289 290 290 289 288 290 290 291 291 291 290 289 288 286 286 288 289 288 287 286 285 284
299 298 297 296 300 300 301 302 303 303 302 302 302 303 303 302 296 290 287 287 288 288 289 290 289 288 288 290 290 291 290 290 289 288 287 286 285 285 286 287 287 286 287 286
299 298 296 297 298 299 299 301 302 302 301 302 300 298 298 294 290 288 287 288 289 290 290 289 289 289 289 289 289 289 290 290 289 287 287 286 285 285 285 284 285 285 284 284

GFSCGP_sfc_thetae_051.txt.gz
Theta_e
309 303 300 301 303 302 301 299 298 301 304 302 302 303 306 313 314 315 317 317 318 320 323 325 328 329 330 332 333 332 328 330 331 329 326 324 322 320 319 318 319 319 318 318
305 300 304 305 303 302 301 299 298 302 303 303 302 302 306 311 312 314 315 317 319 320 323 325 328 330 331 331 331 329 329 329 330 328 327 325 322 319 319 319 319 318 318 317
301 303 306 303 302 301 301 299 300 299 302 303 303 302 304 310 313 316 317 319 320 321 323 325 327 327 327 326 329 330 330 330 328 326 323 322 320 319 317 317 317 317 317 316
302 306 303 302 301 302 298 304 302 301 300 295 304 292 302 306 309 312 315 318 319 321 322 324 325 327 328 328 328 326 326 326 324 323 320 319 315 313 317 317 317 317 316 314
300 303 303 301 302 305 301 305 303 302 300 298 300 295 299 307 305 308 313 316 319 320 321 318 320 321 323 324 324 325 324 322 322 320 320 318 317 318 318 316 314 314 313 312
303 309 306 306 305 305 306 304 303 303 301 294 298 298 297 303 305 308 312 315 317 319 318 316 317 318 319 322 321 321 319 319 320 319 319 318 316 314 313 312 309 309 308 308
302 303 306 308 303 306 305 301 293 292 292 291 300 297 298 305 307 310 311 314 317 319 316 315 315 316 318 319 320 320 318 317 319 319 317 315 313 310 308 308 308 306 305 305
296 295 303 307 305 302 302 301 294 286 288 292 299 292 299 308 309 311 314 316 318 316 315 315 316 317 318 318 319 318 318 316 317 315 313 311 309 310 309 308 307 306 305 306
297 296 305 305 306 305 302 297 303 296 297 293 294 300 305 307 307 310 312 314 315 314 315 315 316 318 318 318 319 318 317 315 313 310 308 308 308 307 306 307 307 306 306 304
302 296 303 304 306 306 304 306 296 297 287 286 292 294 297 301 304 307 310 312 313 314 315 316 317 318 319 319 318 319 317 312 307 307 306 304 305 307 307 306 304 303 302 301
305 301 300 302 301 299 301 299 299 300 297 289 287 293 304 303 306 306 310 312 313 314 315 316 317 318 318 318 316 313 310 307 306 304 304 304 305 304 303 302 301 300 301 300
306 302 296 299 304 305 304 301 301 295 292 295 294 293 304 306 307 309 309 312 314 315 316 316 316 315 314 313 311 309 308 305 303 303 304 302 302 302 301 300 300 300 299 300
306 299 293 296 300 303 300 301 301 301 299 294 291 293 305 306 305 308 309 311 313 314 315 314 313 311 310 310 308 307 304 302 300 303 300 301 300 299 299 299 299 299 299 299
304 301 297 293 296 301 299 300 301 299 294 294 294 296 300 303 303 305 308 311 312 313 312 311 310 309 309 308 306 303 302 302 301 300 299 298 298 299 299 299 298 299 299 298
306 299 300 300 300 299 299 299 299 298 298 295 296 296 299 301 304 305 307 309 310 310 309 309 309 308 307 305 303 303 301 300 300 298 297 297 298 298 298 298 298 298 298 298
306 299 300 297 300 299 297 299 299 299 299 298 298 297 304 305 305 304 306 308 308 308 309 309 308 307 305 304 301 301 300 299 299 296 296 296 296 296 296 297 297 297 297 297
304 301 297 291 295 295 291 297 298 299 300 299 296 301 304 302 302 303 306 307 307 308 308 307 306 305 304 302 301 298 298 298 296 295 294 294 294 294 295 295 296 296 296 296
303 301 299 293 289 284 296 300 299 298 300 302 301 302 303 303 305 306 308 308 308 308 308 307 306 304 302 300 297 298 297 296 294 293 293 293 294 293 294 295 295 296 296 295
304 301 293 290 290 294 296 297 296 295 295 300 300 301 302 305 305 305 308 309 309 309 308 307 305 302 300 297 297 297 295 294 293 292 292 293 293 293 294 294 295 295 294 293
300 301 298 292 289 286 296 299 302 301 292 301 301 301 302 304 299 303 308 309 309 309 307 305 303 300 296 296 296 294 293 292 291 292 292 293 294 293 293 293 293 293 293 292
295 296 293 293 290 295 300 301 302 291 295 303 303 303 303 302 305 307 309 308 309 307 304 301 297 295 296 296 294 292 292 291 292 292 293 293 294 293 293 292 292 292 292 291
295 295 290 295 287 286 301 300 295 302 304 304 305 305 305 306 305 305 307 305 304 302 296 295 294 294 295 294 293 291 290 292 293 292 292 292 293 293 292 292 292 291 290 288
296 300 299 298 297 303 304 303 307 306 304 305 305 306 306 306 303 304 304 302 298 294 293 295 295 294 294 293 291 289 291 292 292 292 292 291 291 291 291 291 291 289 287 286
301 302 299 298 300 301 303 304 305 306 305 306 306 306 306 305 305 302 301 295 293 293 293 294 292 292 291 291 291 291 292 292 291 291 291 291 290 288 288 290 289 288 287 286
303 302 299 299 301 302 303 305 306 306 306 305 305 306 306 306 303 298 294 293 292 291 293 294 292 291 290 291 291 291 292 292 291 291 291 290 290 287 286 286 287 288 289 287
303 300 299 298 302 302 303 304 305 305 304 304 303 302 303 301 295 294 292 291 291 291 293 292 291 290 290 290 290 291 292 292 290 290 290 290 289 287 286 285 286 287 286 285

GFSCGP_sfc_thetae_054.txt.gz
Theta_e
308 302 298 300 302 302 301 299 298 301 304 302 300 301 305 309 312 312 313 315 315 316 321 324 326 328 327 329 332 329 325 325 326 324 323 321 320 320 318 318 318 318 317 317
302 299 304 305 304 302 300 299 297 300 302 301 300 300 304 307 309 313 314 315 317 318 320 323 326 329 330 331 329 328 327 326 327 328 327 324 321 318 317 317 317 317 316 315
300 300 306 304 301 299 300 299 299 298 300 302 301 298 302 307 310 312 314 316 318 319 320 323 326 328 330 328 329 328 328 328 329 327 323 323 321 318 315 315 315 315 315 314
302 305 303 302 300 301 297 303 301 300 298 292 302 290 300 304 306 310 313 314 317 319 322 324 325 325 326 327 328 329 329 328 327 323 320 318 314 312 314 315 315 315 315 312
300 301 301 300 301 305 299 303 303 301 298 298 296 293 298 303 303 307 312 315 318 320 322 322 324 325 327 328 328 327 325 323 322 321 320 318 316 316 316 315 313 312 312 312
302 307 305 304 304 305 307 303 303 302 299 290 295 295 295 299 303 307 311 315 317 319 320 320 323 323 322 326 325 325 321 319 320 319 319 318 316 312 310 309 307 308 307 306
301 301 306 307 302 305 304 300 292 288 289 290 298 295 297 303 307 309 311 313 317 318 317 316 316 316 318 318 320 320 318 316 318 318 318 316 312 309 308 308 306 305 304 304
295 294 302 306 302 300 301 298 292 286 286 291 298 292 298 307 309 313 313 314 317 318 315 314 314 316 317 318 318 318 316 316 317 317 313 312 309 309 308 306 305 304 304 304
296 295 303 306 306 305 301 297 302 295 297 293 294 297 305 307 306 310 312 314 315 317 314 314 315 316 317 317 318 319 317 315 315 312 310 308 308 306 305 306 305 304 303 301
301 293 302 304 306 305 302 304 296 297 287 286 290 293 296 301 303 307 310 312 315 316 314 314 315 317 317 318 318 319 318 312 309 308 307 306 304 305 306 304 303 301 300 299
304 299 299 303 300 297 300 298 298 297 297 290 288 291 305 303 305 305 309 312 314 314 313 314 315 317 318 317 317 317 315 308 306 305 305 304 305 304 302 301 300 299 298 298
304 302 296 298 304 305 303 300 300 295 291 296 294 292 305 307 307 308 308 312 314 314 314 315 316 316 317 316 315 313 310 307 304 304 304 305 305 301 300 299 298 299 297 298
306 300 293 294 300 303 299 300 300 300 301 294 292 293 305 305 306 307 307 311 312 313 314 315 316 315 314 314 312 310 306 304 303 302 302 302 300 299 298 298 298 298 297 297
308 301 296 292 295 300 298 299 300 299 295 294 294 295 300 302 302 304 307 309 311 312 313 314 313 312 311 311 308 306 304 304 302 302 299 298 297 297 298 298 297 297 297 296
306 296 297 298 299 300 299 299 299 297 298 294 297 296 299 302 304 305 306 308 309 311 312 312 311 310 309 308 306 304 303 302 301 299 298 297 297 297 297 297 297 297 297 296
306 299 300 298 300 300 297 298 299 298 298 298 298 297 304 305 305 304 305 306 306 309 310 311 310 309 308 306 304 303 302 301 300 298 295 296 296 295 295 296 296 296 296 295
304 302 298 293 296 294 289 296 297 298 299 299 294 300 304 302 303 304 304 305 307 309 309 309 309 308 307 305 303 301 300 299 297 295 294 295 294 294 295 295 294 294 294 294
304 303 300 294 289 284 295 301 300 297 298 300 299 301 302 303 305 306 307 307 307 309 309 309 308 307 305 303 300 299 297 296 295 294 293 293 294 293 294 294 294 294 294 292
307 303 295 288 290 293 296 298 296 295 295 301 300 301 302 304 304 304 308 309 309 309 310 309 307 304 301 298 298 297 295 295 293 292 292 293 293 292 293 292 293 292 291 291
301 305 297 293 287 284 296 299 302 300 292 300 301 302 302 302 297 302 307 308 308 310 309 306 303 301 298 296 297 295 294 293 292 292 292 292 293 293 292 292 291 291 290 290
295 296 291 292 289 294 302 302 302 291 295 303 303 303 304 301 304 307 309 308 309 308 305 303 299 296 296 296 295 293 292 291 292 293 293 292 293 292 292 292 291 290 289 289
294 294 289 295 287 286 303 300 295 303 306 305 305 306 307 306 306 307 307 306 304 297 296 296 295 295 294 294 293 291 290 291 292 292 292 292 292 291 291 290 290 290 288 285
296 301 299 297 296 305 304 304 307 306 304 305 306 306 306 307 304 305 304 299 295 294 294 295 294 293 293 293 292 289 290 292 292 291 291 291 292 291 290 288 287 287 286 283
302 304 302 300 301 302 303 305 307 306 306 306 307 306 306 305 306 304 297 294 293 294 293 293 292 291 291 292 291 291 292 292 291 290 290 290 289 289 288 287 286 285 285 283
303 303 300 299 302 302 304 305 305 306 307 306 306 306 306 306 302 297 294 293 293 293 293 293 292 291 291 291 291 292 291 292 290 290 290 289 289 288 286 286 286 285 285 285
304 301 300 299 302 303 303 304 306 305 304 303 301 298 298 297 294 293 292 292 292 292 293 292 292 291 290 290 290 291 291 291 290 289 288 287 286 286 285 285 285 286 286 286

GFSCGP_sfc_thetae_057.txt.gz
Theta_e
305 297 295 297 299 299 298 296 294 297 299 298 297 299 304 306 308 307 306 308 308 309 315 315 318 318 324 325 324 322 320 320 320 318 317 316 314 314 313 313 314 313 312 312
298 295 302 304 302 300 298 296 295 299 300 298 295 296 300 306 305 305 306 308 308 313 314 318 319 320 325 325 323 322 320 322 321 320 319 316 314 312 311 311 311 312 311 311
297 300 304 303 301 299 298 295 296 296 298 296 294 293 297 302 307 307 308 311 312 313 314 318 321 323 323 322 322 322 322 322 322 323 323 316 313 311 309 308 308 310 311 309
300 304 302 301 299 300 294 302 301 298 295 288 296 287 295 300 302 306 310 310 312 315 318 320 321 321 322 323 324 325 324 323 324 324 316 313 308 307 307 308 309 309 310 308
299 300 300 298 300 303 298 303 301 299 295 293 293 289 293 299 299 302 305 308 311 315 317 319 320 321 321 323 322 322 323 323 321 317 314 310 308 309 311 313 311 310 310 309
300 304 302 302 303 303 305 301 300 298 295 287 294 292 289 294 299 304 307 309 312 314 318 321 321 322 320 320 321 322 318 315 313 313 311 310 308 305 303 303 304 304 303 302
297 299 303 306 300 302 300 295 287 284 284 284 297 293 293 300 305 306 307 308 311 313 313 317 318 316 314 313 313 312 312 311 312 312 309 305 303 302 302 302 302 302 300 301
291 290 299 304 299 297 297 296 287 282 282 286 297 291 296 302 306 308 309 309 312 310 311 311 312 312 311 312 311 310 311 311 311 308 306 304 304 303 304 303 302 301 300 300
292 293 303 305 304 301 297 294 299 292 292 284 290 294 301 302 304 305 306 310 309 309 308 309 310 312 311 311 311 310 310 311 310 305 303 302 302 302 303 303 303 302 298 297
300 292 300 303 304 302 299 301 291 290 281 279 286 288 291 297 300 305 305 307 309 310 308 308 310 311 313 313 312 311 312 310 305 302 301 302 301 302 304 302 301 298 295 295
300 296 296 302 298 296 296 293 294 293 290 282 280 286 298 299 301 302 305 309 309 309 307 307 308 312 313 314 314 309 305 305 302 299 300 301 302 303 302 299 296 294 294 294
301 296 290 296 302 302 298 296 296 285 286 288 284 286 298 300 302 303 304 309 310 310 308 308 309 313 313 313 312 305 304 301 299 301 302 303 304 302 298 296 294 294 293 294
301 294 285 290 294 299 295 297 296 296 293 288 280 286 299 301 301 303 301 306 310 308 308 308 311 312 312 311 308 304 301 300 303 304 302 302 301 296 294 293 294 294 293 293
303 297 291 285 290 295 293 296 296 294 284 287 287 291 296 297 298 300 300 303 306 308 309 309 311 311 310 309 303 301 301 300 301 301 300 297 295 295 294 294 294 294 294 294
300 292 294 294 296 297 296 296 296 295 293 287 291 293 296 296 298 298 300 302 304 305 307 308 307 306 305 302 301 300 299 299 301 298 295 294 293 293 292 293 293 294 294 294
301 292 293 291 297 296 292 295 295 295 295 293 293 292 297 298 299 298 299 301 302 306 307 307 306 305 303 302 299 299 298 298 295 293 293 294 293 292 292 292 293 293 293 293
298 294 288 286 291 290 283 291 293 294 295 294 289 294 298 296 298 297 298 300 301 305 305 305 305 304 303 301 300 297 295 294 292 293 293 292 293 292 292 293 293 292 292 291
298 295 289 283 283 276 291 298 296 294 294 294 294 296 298 298 298 300 300 300 302 304 304 303 302 300 298 296 294 293 293 293 293 292 292 292 293 292 292 292 292 291 290 289
302 293 286 281 281 289 292 295 293 291 291 296 294 297 298 299 299 299 302 303 302 303 302 300 298 295 293 293 293 292 291 291 291 290 290 291 292 292 292 290 290 289 288 288
300 297 286 282 278 275 290 295 299 297 284 297 297 296 297 296 289 295 300 303 302 301 299 296 293 292 291 291 292 290 289 289 290 291 291 292 292 292 291 290 289 289 288 288
284 284 281 278 278 285 298 298 300 284 286 298 299 300 299 296 297 300 298 294 295 294 293 293 292 290 290 291 291 290 289 288 291 292 292 292 292 290 290 288 288 287 287 285
287 284 281 284 283 280 301 297 289 296 298 299 300 301 300 300 300 299 294 292 292 291 291 291 290 290 290 290 290 289 289 291 291 291 291 291 291 290 289 287 286 286 284 282
288 294 288 289 288 298 301 299 300 300 299 300 299 301 301 301 300 292 291 290 291 290 290 291 290 290 291 291 291 289 289 290 290 290 289 290 290 289 288 285 283 281 281 279
297 301 293 293 297 297 300 302 303 302 300 301 302 301 302 300 293 291 290 290 290 291 290 292 291 291 290 291 291 289 290 291 289 288 288 288 286 286 285 284 283 281 277 278
297 298 296 294 297 300 300 300 302 302 303 297 295 296 298 294 291 290 290 290 291 291 292 292 290 290 289 289 289 289 289 289 288 287 287 286 285 284 283 283 282 282 282 283
298 296 289 287 298 298 297 300 301 297 296 294 292 291 292 291 290 291 291 291 291 291 292 291 290 288 288 289 288 288 289 288 287 286 285 283 282 282 281 281 282 285 285 284

GFSCGP_sfc_thetae_060.txt.gz
Theta_e
302 296 292 294 299 299 298 296 293 295 299 299 296 295 300 304 305 306 310 313 314 313 316 319 320 320 321 321 323 322 320 319 318 316 315 313 312 312 311 311 312 311 311 310
298 293 300 303 301 300 298 295 294 297 297 298 294 295 300 304 306 307 305 305 306 309 310 313 317 320 322 322 321 320 320 319 319 318 317 316 313 312 311 310 310 310 309 309
295 298 303 302 299 298 297 295 293 293 296 297 293 293 297 303 305 306 307 308 308 311 312 314 317 321 321 320 319 319 320 320 319 318 319 313 310 309 307 307 306 308 309 308
297 302 300 298 298 299 292 299 298 296 291 286 294 284 293 298 304 305 306 307 308 311 314 319 320 321 322 321 319 320 321 320 319 320 318 312 308 306 306 306 307 307 308 306
296 298 298 297 298 300 296 301 299 297 292 290 291 287 290 298 297 302 305 307 310 313 315 319 320 321 321 321 321 320 320 320 321 321 317 313 307 306 307 308 307 307 306 306
297 301 301 299 302 302 302 298 298 296 292 286 291 289 288 293 298 301 304 308 310 313 315 319 321 323 321 321 319 319 319 320 320 317 312 309 307 306 305 304 303 304 303 303
296 297 300 303 298 300 298 293 284 283 283 283 294 290 291 297 300 301 303 306 309 313 316 317 317 318 318 318 319 317 316 311 310 308 307 306 303 302 301 301 302 301 301 301
289 288 297 301 298 294 296 293 285 280 280 284 294 288 293 301 303 305 307 308 311 314 317 317 317 316 316 316 314 313 310 309 307 304 303 302 302 301 302 302 302 302 301 298
290 292 301 302 302 299 295 291 297 290 289 284 287 292 298 301 300 303 304 308 308 310 314 314 314 313 311 309 308 309 309 309 305 303 302 301 302 303 301 303 303 302 301 297
296 290 299 302 303 301 297 300 290 290 280 279 284 286 290 296 299 301 302 305 307 308 310 311 312 311 311 310 309 308 309 308 303 301 301 301 301 303 302 301 303 299 297 295
298 293 293 299 296 294 294 292 293 292 287 281 279 284 294 297 301 301 303 307 308 307 308 309 311 311 311 311 310 308 306 303 301 299 299 301 301 303 302 299 297 296 294 293
299 294 288 294 299 301 296 294 294 285 285 286 282 284 296 299 301 303 304 308 309 309 307 309 310 311 310 310 306 305 304 302 300 301 302 303 303 302 300 297 295 295 293 293
299 292 285 290 294 297 294 295 295 294 289 285 279 284 297 298 299 301 302 305 309 309 306 307 309 309 310 309 303 301 301 300 302 304 302 304 304 296 294 294 294 293 292 292
301 294 289 285 289 292 290 294 294 291 282 285 286 289 294 296 297 299 300 303 307 309 307 305 308 309 308 303 301 300 301 304 305 304 302 298 295 295 293 293 292 293 293 292
298 291 293 293 294 295 293 293 293 292 291 286 289 290 294 295 296 297 299 301 304 305 305 307 306 306 301 300 300 302 302 302 301 296 293 293 293 293 292 291 290 291 293 293
298 290 290 289 293 292 290 292 293 293 292 292 291 291 296 295 296 297 299 299 302 303 306 305 306 304 302 301 301 300 298 295 293 292 292 293 292 291 292 290 292 293 292 292
295 292 286 284 288 289 283 289 292 293 293 293 288 291 294 294 295 294 295 297 302 303 305 305 305 303 302 300 300 296 292 292 291 291 292 291 291 290 290 292 292 291 291 290
294 292 286 282 282 276 291 296 295 292 292 292 294 294 295 296 296 298 298 299 302 302 302 302 301 298 296 295 293 291 291 292 291 291 290 290 291 292 291 291 291 290 290 288
300 290 284 280 281 287 291 293 290 289 288 294 294 294 296 297 298 297 300 300 299 298 296 294 293 292 291 291 291 290 289 289 289 288 290 291 292 290 290 289 289 288 288 287
297 293 287 283 277 275 288 294 296 294 283 295 295 295 295 295 288 292 294 296 294 293 292 291 290 290 289 289 290 289 288 289 288 290 292 291 290 290 290 288 287 287 286 286
283 284 282 276 276 282 293 297 296 283 285 296 298 297 296 294 294 292 292 290 291 290 289 290 289 289 288 289 290 289 289 288 291 292 291 291 291 290 289 287 286 285 283 282
286 283 281 281 274 279 297 295 289 292 296 299 299 298 297 295 291 290 290 289 289 288 289 289 288 287 288 291 291 290 291 290 290 290 290 290 289 289 288 286 285 284 282 280
287 289 286 288 286 295 298 297 297 299 298 297 298 300 298 292 290 289 288 288 288 288 288 289 289 290 291 291 291 288 288 289 289 289 288 288 288 288 287 284 283 281 280 278
295 299 292 293 294 296 298 300 300 299 298 298 299 300 298 290 289 289 288 288 288 289 290 291 290 290 289 289 289 288 289 289 288 287 287 286 285 285 284 283 283 280 279 278
295 297 294 292 296 298 298 299 299 294 293 292 292 295 292 290 289 289 289 289 290 290 290 291 290 289 288 288 287 287 288 288 287 286 285 284 284 284 283 283 282 282 282 282
295 294 289 287 297 295 295 296 296 292 291 292 290 289 291 290 289 291 290 291 291 291 291 290 289 287 286 286 286 286 287 287 285 284 284 283 282 283 282 282 283 285 285 284

GFSCGP_sfc_thetae_063.txt.gz
Theta_e
300 294 290 292 295 297 296 293 291 295 296 297 296 294 298 306 305 308 310 313 312 313 314 316 321 319 317 317 320 321 318 317 317 315 313 311 310 310 309 309 310 311 311 310
296 292 297 300 299 298 296 293 292 296 297 297 294 293 295 302 304 308 310 311 312 311 311 314 316 315 316 318 319 319 319 317 317 317 315 314 312 311 309 310 309 309 308 307
293 296 301 299 297 296 295 293 293 293 293 295 293 292 295 303 306 307 311 313 314 312 311 313 316 315 317 318 318 319 318 318 318 317 315 311 309 308 307 307 306 307 308 306
295 299 299 296 296 296 291 297 296 295 289 286 292 284 292 298 303 303 306 305 308 311 312 312 313 316 317 319 319 319 319 318 319 318 316 313 308 306 306 305 305 306 307 306
294 296 296 295 296 298 294 299 296 295 291 288 289 285 289 295 299 302 303 305 305 309 309 310 313 318 319 319 317 318 319 319 319 319 317 311 307 305 305 305 305 305 304 303
295 299 299 297 299 299 300 297 295 293 290 283 288 287 286 291 297 303 305 305 306 308 311 314 315 319 320 320 318 318 319 319 318 318 315 311 307 305 304 304 303 301 300 300
293 295 298 301 296 298 296 291 283 282 281 282 291 288 290 295 297 299 303 305 306 310 313 316 316 319 320 319 318 319 319 317 317 316 312 310 306 305 305 303 300 298 298 299
288 286 295 298 296 292 294 291 284 280 280 282 291 286 291 298 301 301 302 304 308 310 315 316 318 318 319 319 318 318 317 311 310 309 308 304 303 302 301 300 299 300 301 298
288 289 298 300 300 297 293 290 294 287 286 282 285 289 295 298 299 301 304 305 307 311 315 316 317 317 318 317 317 313 310 306 304 303 302 301 303 302 302 303 303 301 301 301
293 288 297 299 301 299 295 298 288 287 280 278 282 284 286 293 296 299 301 305 307 311 314 316 315 315 315 315 314 309 309 305 302 302 303 302 302 302 303 304 302 302 300 297
295 291 290 297 294 293 293 291 291 290 285 280 278 283 292 296 298 300 300 305 307 308 312 314 314 314 313 311 309 309 307 303 301 301 301 302 302 302 302 301 300 299 297 295
296 291 286 291 297 298 295 293 292 283 284 284 282 283 294 297 299 301 301 304 306 308 310 312 313 311 309 308 308 308 307 303 301 301 299 300 301 300 300 301 299 296 292 294
297 290 284 287 292 296 294 293 294 292 287 283 279 284 295 295 297 299 301 303 306 306 307 309 310 310 309 308 305 301 299 298 300 302 302 302 303 300 298 296 295 292 292 292
299 292 289 284 288 292 290 292 292 291 283 284 284 287 292 295 295 297 298 302 305 307 306 307 308 308 307 304 300 298 299 302 303 302 303 302 299 298 294 292 292 292 292 291
296 290 290 291 292 292 291 292 291 290 289 285 288 288 293 294 295 296 297 299 303 305 304 303 304 305 302 300 300 300 302 304 304 303 299 297 296 293 291 292 290 290 293 291
296 288 288 287 290 291 290 292 291 291 290 290 290 289 295 294 294 294 296 297 300 303 303 304 305 302 300 300 301 300 301 301 300 296 293 292 291 291 291 291 290 291 290 291
293 290 285 283 287 287 283 288 291 291 292 291 287 291 292 292 294 293 295 295 299 301 303 304 303 301 300 299 300 299 296 296 292 292 291 291 292 291 291 292 291 289 288 289
292 289 284 281 282 276 289 294 293 291 290 291 292 292 293 294 295 296 296 297 300 302 302 301 301 299 298 296 293 291 291 291 290 289 290 290 290 291 291 290 289 288 288 287
297 288 283 280 281 285 291 292 290 289 288 292 292 293 295 295 295 295 294 293 293 294 293 292 293 292 291 290 289 289 288 288 288 289 289 290 291 290 290 288 288 287 286 286
294 291 286 279 277 277 289 293 294 293 283 294 294 294 294 292 285 291 290 289 288 289 289 288 288 288 288 287 289 288 287 288 288 290 292 292 291 289 288 288 287 286 284 285
284 283 282 277 276 284 292 295 294 283 285 294 295 294 294 292 290 289 289 287 288 288 288 288 288 287 287 288 289 287 288 289 291 291 291 290 290 289 288 287 286 285 283 282
287 283 279 278 274 280 295 294 288 290 295 297 296 296 292 289 288 288 288 287 287 286 287 287 287 287 287 290 291 290 288 289 290 290 289 289 288 287 287 285 285 284 282 280
286 289 286 287 286 294 295 294 295 297 297 297 297 296 292 289 287 288 286 286 286 286 286 288 289 290 290 290 290 288 288 289 288 288 287 287 287 286 285 284 283 282 281 279
293 295 289 290 293 294 296 297 298 298 297 298 298 294 292 288 288 287 286 286 286 287 287 289 290 289 289 289 288 288 288 287 287 286 286 285 284 284 283 283 283 281 280 280
294 296 292 290 293 296 297 296 294 293 293 293 294 293 290 289 287 287 287 287 287 288 290 290 289 288 287 287 285 286 287 286 284 283 283 283 283 282 282 283 282 283 284 284
295 294 290 289 296 294 295 295 294 292 291 291 290 289 290 289 288 288 288 289 290 289 290 289 286 285 285 285 285 285 286 285 283 282 282 282 282 282 282 281 282 285 285 285

GFSCGP_sfc_thetae_069.txt.gz
Theta_e
302 299 297 298 298 297 297 296 295 297 300 298 298 299 304 309 312 312 313 313 315 316 319 319 322 323 323 325 324 326 325 324 323 322 323 322 323 322 322 321 319 316 315 315
299 296 299 299 299 298 298 296 295 298 299 298 297 298 302 307 310 312 313 314 314 316 318 319 321 323 324 323 324 325 325 324 324 325 324 323 322 320 321 319 316 314 314 315
296 298 300 300 299 297 297 295 295 295 297 298 296 295 297 303 308 312 314 316 317 316 317 319 319 322 323 324 323 324 325 324 324 324 321 318 318 316 315 315 312 314 314 314
298 300 299 298 297 298 294 299 297 296 294 291 295 289 294 299 303 307 311 314 316 318 318 318 319 320 322 323 324 325 324 323 323 322 321 319 317 313 315 313 312 313 315 313
296 297 297 296 297 299 297 299 298 297 294 293 292 291 295 298 298 303 308 311 315 318 319 317 317 319 322 323 322 324 324 323 322 322 322 320 317 317 316 312 313 313 313 312
298 301 301 300 300 300 300 298 296 295 294 289 291 291 293 296 299 303 306 310 313 316 319 320 319 319 320 322 322 323 323 322 322 322 321 320 317 315 313 312 311 311 311 310
295 297 300 302 298 300 298 295 289 287 287 287 293 291 295 299 300 301 304 308 312 315 316 318 316 316 319 319 321 321 322 320 322 321 321 321 318 316 315 312 312 310 309 307
291 289 297 300 299 297 296 295 290 282 283 287 291 289 295 301 303 304 305 305 309 312 314 315 317 317 319 320 321 321 320 321 322 321 321 321 319 315 315 314 313 311 310 308
289 290 299 301 301 300 296 293 296 289 288 287 290 293 298 299 301 304 306 309 306 309 311 313 315 318 319 320 321 321 321 321 321 320 322 321 317 315 315 314 313 311 308 305
295 290 297 300 301 300 299 300 292 291 283 282 287 287 291 297 299 302 305 308 308 307 310 313 315 318 320 322 322 323 323 322 320 321 322 320 318 318 315 312 308 307 306 306
296 294 292 298 297 296 296 294 293 293 290 286 284 289 297 298 300 301 304 307 309 310 311 313 317 319 321 322 323 322 322 320 319 320 320 318 316 314 311 309 306 306 306 302
298 294 289 293 298 299 298 296 296 291 287 288 287 288 299 300 300 300 303 305 308 312 314 316 318 320 320 321 321 321 319 317 317 314 313 310 308 308 308 306 306 306 302 304
298 292 287 289 293 298 296 295 295 293 291 288 288 290 298 299 300 302 302 305 306 310 313 316 317 318 319 319 318 319 315 310 308 308 306 306 306 305 304 304 303 302 301 302
300 293 291 287 290 294 292 294 294 295 289 290 290 293 297 299 299 301 302 303 303 308 311 315 316 317 318 317 317 313 309 307 305 305 304 304 304 304 302 301 300 297 296 297
300 292 292 292 292 294 294 294 293 293 294 291 294 291 296 299 301 301 301 300 300 303 308 312 315 315 312 311 310 308 306 306 307 305 304 302 300 297 296 295 296 295 297 297
297 293 292 291 292 293 292 293 293 293 293 293 292 292 298 300 300 298 298 299 299 301 304 309 311 309 307 306 306 305 306 306 305 303 300 297 295 294 294 294 293 295 296 295
294 292 290 288 290 291 287 292 293 294 295 295 291 297 298 297 297 298 299 299 302 304 305 306 308 308 306 305 305 305 305 305 303 300 296 294 293 293 293 293 295 294 294 295
293 292 289 287 285 282 294 296 296 295 295 296 295 296 298 297 297 295 294 298 302 303 303 303 304 304 304 305 304 303 301 298 295 293 292 292 293 292 292 295 294 294 294 294
297 291 286 286 286 289 292 294 294 293 293 297 296 296 297 297 297 295 292 292 295 297 298 299 300 299 299 299 298 298 296 293 291 290 291 293 293 292 295 294 294 294 293 293
293 293 292 284 284 282 292 295 297 297 289 297 297 297 297 297 295 297 291 291 291 293 294 293 293 294 295 295 296 294 291 291 291 292 293 293 293 294 293 293 293 293 292 291
288 287 287 283 286 288 294 295 297 290 293 297 298 299 298 296 296 292 290 289 290 291 291 292 293 292 292 294 294 292 293 292 293 293 294 293 293 292 292 291 291 291 291 290
290 288 287 285 285 285 297 294 292 298 297 297 298 299 297 291 289 289 289 288 289 289 290 291 290 290 292 293 293 291 291 292 292 292 291 290 290 289 289 290 290 290 289 288
290 294 291 292 293 300 298 300 299 299 300 299 299 298 294 290 289 289 287 288 288 289 290 292 291 290 291 292 292 289 289 291 290 289 288 287 287 286 286 286 286 285 285 284
294 296 294 295 297 297 298 299 300 299 300 300 300 297 294 292 289 288 287 287 289 290 289 289 288 288 287 288 288 288 288 288 287 285 285 285 284 284 284 284 283 283 283 283
296 297 294 294 296 298 299 300 300 299 300 297 295 295 294 291 289 288 287 288 289 289 288 288 287 286 285 286 285 285 284 285 283 282 282 282 282 282 281 282 282 282 283 282
297 296 293 293 299 299 300 302 300 298 298 295 292 291 292 291 288 288 288 290 289 287 287 287 286 284 283 283 282 282 282 281 281 280 280 280 280 280 280 280 280 280 280 281

GFSCGP_sfc_thetae_072.txt.gz
Theta_e
308 303 300 302 303 303 301 299 298 301 304 303 302 303 307 314 314 312 313 314 318 318 321 322 324 324 325 325 325 328 330 333 333 330 326 327 328 329 331 331 331 328 320 324
303 300 304 304 304 302 301 299 299 302 303 302 303 302 306 312 314 315 315 315 316 319 318 320 322 324 324 325 327 328 330 332 332 328 327 330 331 328 330 331 326 324 322 323
300 302 305 303 302 300 301 299 299 298 302 304 302 300 303 308 313 315 317 318 319 318 319 319 321 323 324 324 326 327 330 331 332 331 328 330 330 328 327 327 321 319 318 320
302 305 302 302 300 302 298 303 302 300 299 295 301 292 300 305 307 311 315 318 319 320 320 321 321 323 325 326 327 328 329 331 332 333 329 327 325 324 326 324 321 317 318 319
300 301 301 300 301 303 300 303 302 301 300 298 298 295 299 303 302 306 312 316 320 322 322 321 322 324 325 328 329 331 331 332 333 333 331 329 327 327 324 317 315 317 318 320
303 306 305 303 305 305 304 302 302 302 300 292 297 296 298 300 302 305 309 312 318 321 324 324 324 324 325 329 330 330 329 329 330 330 330 329 328 324 319 315 315 317 319 319
300 301 304 305 302 304 303 300 293 291 291 290 298 295 298 303 305 307 308 310 315 320 322 324 324 324 324 326 328 329 329 328 330 329 329 327 326 325 321 317 316 318 316 315
295 292 301 305 302 300 301 300 294 285 288 291 296 292 298 305 308 309 311 312 313 316 320 323 325 326 325 325 327 328 328 327 329 329 327 327 327 326 323 320 319 318 317 317
295 294 302 304 305 304 301 297 301 294 295 292 294 298 302 304 304 308 310 312 314 314 317 320 324 327 326 326 327 328 327 328 327 326 327 326 326 324 323 322 324 321 320 317
299 293 300 303 305 304 303 305 295 297 286 285 291 293 295 299 302 306 306 308 314 314 315 318 320 324 326 328 328 329 328 327 328 328 326 323 326 326 322 323 323 321 318 314
302 299 298 302 300 299 300 299 299 298 296 289 287 293 302 301 303 305 307 310 312 316 316 317 319 322 325 327 328 328 328 327 328 327 325 323 324 322 322 320 318 316 313 309
303 300 294 297 303 305 304 301 301 293 292 295 293 292 305 306 307 307 308 310 312 314 318 319 321 322 323 326 327 327 328 327 328 327 324 323 319 315 311 311 310 310 307 306
303 297 292 293 298 301 299 301 302 300 298 293 291 293 305 306 306 308 309 309 312 313 317 320 321 322 323 324 325 326 327 326 325 323 318 311 310 309 309 307 307 305 305 306
304 300 295 291 294 298 296 298 300 299 294 293 294 296 301 304 305 307 308 310 311 311 313 318 321 323 324 325 325 325 325 323 318 316 312 310 308 307 305 303 302 300 300 299
303 296 298 298 298 298 297 297 298 297 297 294 297 297 300 304 306 308 309 308 307 308 310 314 319 322 324 324 324 323 318 314 312 310 307 306 305 303 299 298 298 300 300 298
303 296 298 296 298 298 296 298 298 299 299 299 299 298 305 307 308 307 307 306 306 306 308 310 316 321 320 320 319 314 311 311 311 310 307 306 301 298 296 296 298 297 296 298
300 298 296 291 296 296 291 297 298 299 301 301 296 301 305 304 305 306 307 306 307 308 310 311 315 317 317 317 315 312 310 311 308 305 303 300 297 295 296 296 296 296 298 301
300 299 298 292 290 286 297 302 303 301 302 303 303 304 305 304 306 305 304 306 308 309 310 311 314 314 315 315 314 313 312 309 306 303 300 297 295 294 295 298 297 299 302 300
304 300 295 292 291 295 296 296 299 298 298 304 303 304 304 304 303 304 302 303 306 307 309 310 312 312 312 311 311 308 304 302 300 297 294 294 295 296 299 297 300 299 298 297
300 301 299 291 292 288 296 302 305 303 295 305 305 304 304 303 299 304 302 302 303 304 305 305 306 307 307 307 306 302 299 297 295 294 295 298 299 295 298 298 297 298 296 295
293 294 293 293 293 296 301 300 303 293 297 305 305 305 305 303 304 304 302 301 302 302 302 304 305 304 304 305 303 299 297 294 296 298 295 295 297 297 296 295 296 296 295 295
294 293 292 295 290 289 301 299 297 305 305 306 305 306 306 304 299 300 300 299 299 299 300 301 301 301 301 301 299 297 296 296 296 296 296 295 294 292 293 294 295 294 293 290
294 299 297 297 298 307 304 307 307 308 307 306 307 307 307 300 298 298 298 298 299 299 299 299 299 298 298 298 297 295 296 296 295 294 293 292 291 290 290 291 290 289 288 288
300 301 299 299 304 304 306 307 305 305 305 306 307 307 304 301 299 297 297 297 297 298 297 297 296 295 294 295 295 295 294 295 293 291 289 289 287 287 287 288 287 288 287 286
302 302 300 302 304 303 305 307 308 306 307 306 305 306 304 301 299 297 296 296 297 296 295 296 294 293 292 292 291 291 291 291 289 287 286 286 286 286 286 285 286 285 285 283
303 302 300 299 306 305 307 309 309 307 306 306 303 302 303 301 298 297 296 296 295 294 294 293 293 291 290 288 287 287 287 287 286 284 284 284 285 285 284 285 285 281 280 280

GFSCGP_sfc_thetae_075.txt.gz
Theta_e
310 304 301 304 305 304 303 301 299 302 306 303 303 304 305 314 314 313 312 316 313 313 319 322 320 322 323 325 323 324 325 328 331 330 326 325 325 330 332 333 334 334 332 331
306 301 306 307 305 303 302 300 300 304 305 304 303 303 306 311 313 315 315 314 317 317 318 320 322 323 321 322 322 324 326 330 331 329 326 325 327 331 333 334 332 331 326 326
302 304 307 304 302 301 302 300 301 301 304 306 303 301 304 309 314 315 317 317 318 318 317 318 321 323 324 322 323 324 327 330 332 330 325 326 332 330 328 329 328 328 327 328
304 307 304 303 301 303 299 305 303 302 300 294 304 292 301 305 308 312 315 317 317 318 319 319 321 322 324 325 328 328 329 330 331 334 327 327 327 325 328 328 327 322 322 322
301 303 303 301 302 305 301 305 303 303 301 300 299 295 299 304 303 307 312 317 318 319 320 319 320 322 324 327 327 328 330 330 331 333 332 328 327 327 329 327 325 321 318 321
304 308 306 305 306 306 306 303 303 303 301 293 297 297 296 300 302 305 310 314 318 320 321 321 323 323 324 331 331 332 329 329 331 333 333 331 328 327 326 324 320 319 317 319
301 303 306 307 303 306 305 301 294 292 292 291 300 296 299 304 306 307 308 311 315 319 322 322 321 322 323 326 329 331 329 329 331 333 332 333 331 330 326 323 321 320 318 318
295 293 302 306 304 302 302 301 295 287 289 292 299 293 298 306 308 308 309 312 314 316 321 323 324 323 324 327 329 329 329 329 330 330 331 331 332 329 326 325 323 322 319 322
296 296 305 306 306 306 302 298 304 297 297 293 296 299 304 306 305 306 309 311 314 316 317 320 324 326 326 327 328 331 330 329 329 330 332 331 330 329 327 327 326 322 321 320
301 295 302 304 306 306 304 306 297 298 288 287 293 295 296 301 303 306 307 309 313 316 317 319 321 325 328 329 328 331 330 328 330 330 331 329 328 328 328 327 324 321 319 321
303 300 299 303 300 300 301 300 301 300 297 290 289 293 303 302 304 305 307 309 310 314 317 319 321 324 327 330 330 329 329 328 328 330 330 327 325 327 325 323 320 319 318 316
304 301 296 298 304 306 304 301 301 295 293 296 295 295 307 307 307 308 308 309 311 314 316 319 321 322 324 327 329 330 330 328 328 330 329 325 324 318 315 312 312 312 309 309
304 298 292 295 300 303 300 303 303 302 301 295 293 295 306 307 307 308 309 310 310 313 315 318 321 322 323 325 327 329 330 329 328 329 324 318 312 311 309 309 308 307 305 305
306 300 296 292 296 300 297 299 301 300 297 296 296 297 302 303 305 308 309 311 311 311 314 317 320 322 324 325 327 327 329 329 328 321 318 313 311 309 307 307 307 306 304 302
304 297 298 299 300 300 299 298 299 297 299 295 297 298 301 303 306 307 310 311 310 310 311 314 317 322 324 326 327 327 328 326 323 318 314 309 308 307 308 306 304 302 301 300
305 298 299 296 299 299 296 298 299 299 299 299 299 298 306 308 308 307 308 309 309 310 310 311 314 319 324 325 325 324 321 318 316 311 307 307 307 305 301 299 300 300 300 299
302 301 297 293 298 298 294 297 298 300 301 300 297 302 306 305 306 307 307 308 309 310 312 313 314 319 323 324 319 314 313 313 311 308 306 305 303 300 299 298 298 298 299 299
301 300 300 294 293 287 297 303 303 300 301 303 303 304 305 306 308 308 310 310 310 312 313 315 318 320 321 318 314 312 311 308 306 304 303 302 301 300 299 299 300 300 301 302
301 300 296 293 292 295 297 299 300 299 299 304 304 305 306 307 308 307 309 309 312 313 315 316 318 319 318 314 312 309 306 305 304 303 303 302 301 299 297 298 300 302 302 300
299 302 299 295 290 287 297 302 306 306 297 306 306 306 306 305 300 303 308 309 310 312 313 314 315 316 315 314 312 309 306 304 303 302 300 299 298 300 301 301 301 300 299 297
295 296 294 295 293 296 303 304 307 295 297 307 307 307 306 303 305 309 309 309 310 309 310 312 312 312 312 311 309 304 303 302 302 300 300 301 300 299 299 299 298 297 296 295
294 293 293 296 292 290 305 302 298 305 311 310 310 309 308 309 307 307 307 306 306 306 307 309 309 309 309 308 306 304 301 301 301 300 299 299 298 296 297 296 296 295 294 293
295 299 297 298 299 308 307 307 310 311 310 311 310 310 310 308 305 305 304 304 305 306 307 308 306 305 305 305 304 301 300 300 299 298 297 297 295 294 294 294 292 291 290 289
299 302 300 300 303 306 309 310 310 311 311 311 311 311 311 307 306 304 304 305 305 305 304 305 303 301 300 301 300 300 300 299 298 296 295 293 292 291 290 289 289 289 289 288
300 302 301 300 303 305 308 310 312 312 311 310 311 310 311 308 305 305 304 304 304 303 303 303 301 299 298 298 298 298 298 297 294 292 290 290 288 288 288 288 287 287 285 283
302 300 300 299 305 306 307 310 314 312 311 311 310 309 310 309 305 304 303 304 303 301 301 299 298 297 296 295 294 294 294 293 290 288 288 288 287 287 287 287 285 281 282 281

GFSCGP_sfc_thetae_078.txt.gz
Theta_e
307 302 298 301 304 304 302 300 298 302 306 304 303 301 305 311 311 311 309 308 311 312 317 318 319 320 320 318 318 318 318 319 318 321 320 321 321 325 327 328 328 331 330 330
303 299 304 306 306 303 301 299 298 302 305 304 302 301 306 309 310 312 313 309 310 315 315 318 320 320 320 318 319 321 322 323 323 324 325 323 324 326 328 329 330 330 329 329
300 303 307 304 303 301 300 299 299 300 303 305 302 299 302 307 311 314 314 316 313 314 315 316 318 320 320 320 321 322 324 325 326 327 327 324 326 327 326 326 328 328 326 325
302 306 304 303 301 302 297 304 303 300 299 294 302 291 300 304 306 310 313 313 315 315 317 318 318 319 319 320 322 322 323 326 329 329 324 321 320 321 325 326 327 327 325 324
300 301 301 300 301 304 300 305 303 302 299 298 298 295 298 304 302 306 311 315 315 317 317 316 318 321 322 321 321 322 324 327 329 330 329 323 324 324 326 326 325 321 321 321
302 307 305 303 305 305 306 303 303 302 299 292 297 296 295 298 302 305 310 314 316 317 317 318 320 321 321 324 323 324 326 327 329 330 329 328 325 324 324 323 321 320 320 319
300 301 305 306 301 305 303 299 292 290 291 290 299 296 299 303 306 307 307 311 316 318 318 317 318 319 321 322 324 326 326 325 328 329 329 328 327 325 325 323 321 318 317 317
294 292 301 305 303 300 301 299 294 286 285 291 299 293 297 306 308 309 309 311 315 317 319 319 319 319 320 322 325 325 325 325 326 329 329 329 330 327 327 325 321 319 319 317
294 294 303 305 305 304 301 297 303 296 297 293 296 298 304 306 305 306 307 309 312 314 317 320 321 321 321 322 324 326 326 326 327 329 330 329 329 329 326 324 323 322 321 319
300 295 302 303 305 305 302 305 296 297 288 286 292 294 293 300 302 305 306 309 313 317 317 318 321 323 323 324 325 327 328 327 328 328 329 329 328 329 328 325 323 322 320 319
302 299 298 302 299 298 299 298 301 300 296 290 288 292 302 302 304 305 308 310 311 316 316 318 319 321 326 325 325 327 328 328 328 328 329 328 329 327 325 323 321 319 315 312
302 300 294 297 303 305 302 300 300 294 292 297 295 294 306 308 308 308 309 310 312 313 315 317 319 321 323 326 325 326 327 328 328 328 328 327 325 324 322 317 314 311 308 307
302 297 291 294 299 302 299 301 301 301 300 294 291 293 307 307 307 309 309 309 310 312 313 316 318 319 320 323 327 326 327 327 328 326 326 323 319 318 315 313 311 309 307 306
304 300 296 291 295 299 296 298 300 301 294 295 296 297 301 303 304 306 309 310 310 311 311 313 317 319 321 323 325 326 327 327 325 325 321 316 314 312 310 308 307 306 306 305
303 295 299 298 299 299 298 298 298 297 298 294 297 297 301 304 304 308 309 310 311 310 310 311 313 318 321 323 325 327 324 322 321 317 314 309 307 307 307 306 305 305 304 303
303 296 298 296 298 298 296 299 299 298 298 297 298 298 304 306 307 307 307 307 307 310 311 312 312 317 322 324 324 322 320 316 314 309 306 307 307 305 305 304 303 301 300 300
300 298 296 291 297 296 290 297 298 298 300 299 295 301 305 304 305 306 308 309 308 309 311 313 314 315 324 320 317 313 312 311 308 306 306 306 303 301 300 300 300 299 298 298
296 296 297 291 292 285 297 303 302 300 300 302 302 303 304 305 307 308 310 310 310 312 313 315 316 321 318 315 313 312 311 308 305 305 303 302 301 300 299 298 298 297 298 297
299 295 291 290 290 294 297 300 300 298 298 304 302 304 305 306 308 307 310 310 312 313 314 316 319 318 316 312 311 307 306 305 303 302 302 301 299 298 298 298 299 299 300 300
298 298 292 292 287 285 297 303 307 305 293 305 305 305 306 307 301 304 308 311 313 314 315 316 317 314 312 311 308 306 303 302 301 302 302 302 301 299 298 298 300 301 300 299
291 292 290 290 290 295 302 303 305 292 295 307 308 308 309 305 307 309 309 310 311 312 313 315 316 313 312 310 308 305 304 302 304 303 301 299 298 298 300 300 299 297 295 294
291 290 291 293 288 287 305 303 297 303 310 311 310 311 312 310 309 309 309 308 309 309 310 312 312 311 311 310 308 305 303 303 301 299 299 300 300 299 298 296 294 294 293 289
291 295 294 296 296 308 307 306 309 311 312 311 313 313 312 309 308 308 307 307 307 308 308 310 309 307 307 307 306 303 300 301 300 299 298 296 296 296 295 294 292 289 288 286
297 303 299 299 301 303 307 308 311 311 310 313 315 313 312 309 308 306 306 306 306 306 307 307 305 303 302 303 303 301 301 300 298 296 295 294 292 291 290 289 288 287 286 285
299 300 299 299 302 303 305 308 311 312 314 312 312 311 311 311 308 307 305 305 305 306 305 304 303 301 299 300 300 300 299 298 296 294 291 289 288 288 286 283 283 283 281 282
301 299 297 299 305 305 306 310 316 312 310 311 311 310 310 311 308 307 305 306 305 303 303 302 301 299 297 297 296 296 296 294 291 289 287 286 286 285 285 283 281 283 281 281

GFSCGP_sfc_thetae_081.txt.gz
Theta_e
303 296 293 295 298 300 299 297 295 298 304 301 299 297 304 307 308 306 306 309 309 310 314 315 315 315 316 316 315 315 314 314 313 311 309 311 312 319 320 322 325 325 325 326
299 295 300 302 301 300 300 296 293 298 303 301 297 296 302 307 306 305 304 305 307 310 311 313 313 314 314 313 314 315 314 314 313 312 311 314 317 319 322 324 324 325 325 325
296 299 304 302 300 299 298 294 295 295 299 299 297 294 298 304 308 306 306 309 311 311 311 312 314 314 313 312 313 314 315 315 315 316 317 319 318 320 321 322 323 325 325 324
297 303 302 300 299 299 294 300 300 299 294 288 296 286 294 301 305 306 305 307 310 311 314 314 315 314 313 313 315 314 315 315 317 320 320 319 317 318 320 320 321 323 322 322
295 297 299 298 299 301 297 302 301 300 294 291 293 290 293 299 299 305 307 306 309 312 313 313 315 316 316 314 315 316 319 320 321 322 322 321 316 320 320 321 321 320 320 320
297 303 301 300 303 302 304 300 299 298 294 286 293 294 290 293 300 303 309 310 309 312 313 314 315 317 317 316 317 318 319 321 323 324 324 321 318 320 320 321 320 318 316 316
296 297 301 303 299 301 299 294 286 285 285 284 297 294 294 300 302 304 309 310 311 312 313 314 314 315 316 316 317 318 317 318 324 324 324 324 321 320 320 320 320 316 316 315
289 287 296 302 299 296 296 295 287 282 281 287 297 290 294 302 305 303 304 311 312 313 314 314 315 316 317 317 316 316 317 317 322 324 324 325 322 322 321 322 321 319 317 316
289 290 300 301 303 301 297 292 298 292 294 289 292 295 302 304 302 301 301 303 309 312 313 314 315 317 318 318 318 317 318 320 322 323 325 325 325 322 322 322 321 318 317 316
296 290 299 300 302 301 299 301 292 292 284 283 290 291 292 297 299 301 300 303 307 308 313 314 315 316 318 319 320 321 322 322 322 322 325 325 325 324 322 321 319 318 317 317
297 294 294 299 297 296 296 295 298 297 292 283 281 286 298 298 300 300 301 303 305 308 308 310 316 317 318 319 320 321 321 321 322 322 326 326 325 323 322 321 319 318 317 314
298 296 290 292 300 302 300 296 296 289 289 291 288 287 301 301 301 302 302 304 303 304 308 309 310 313 318 318 319 320 322 322 323 324 324 326 325 323 322 321 319 315 310 308
297 293 287 290 295 300 297 297 298 297 294 289 284 288 303 303 303 303 301 302 304 305 305 308 310 311 318 319 319 320 322 323 324 322 323 322 322 320 318 315 313 311 308 307
300 294 291 286 291 296 293 296 297 295 287 289 289 293 298 300 299 301 301 303 303 305 305 306 309 311 313 318 320 321 322 323 323 324 319 317 316 315 313 310 309 309 307 306
299 291 293 295 296 297 297 296 296 294 295 292 294 295 298 299 299 300 303 304 305 305 305 304 309 310 312 315 319 321 320 319 317 316 315 312 310 310 308 308 307 306 307 306
299 290 294 292 296 297 295 296 296 296 296 295 294 294 299 301 299 301 302 304 303 304 305 306 307 312 315 318 318 317 315 311 311 309 307 307 307 307 306 305 305 304 302 303
295 292 292 287 294 294 286 293 295 297 298 296 291 295 299 298 300 299 301 302 303 304 307 308 310 317 317 314 312 309 308 309 307 306 306 306 305 303 302 302 301 301 301 301
294 293 292 286 288 282 293 299 299 297 298 298 297 298 298 299 300 301 302 302 305 307 308 309 315 312 310 309 308 307 306 306 305 304 304 303 301 300 301 301 300 299 299 299
299 293 285 284 286 292 295 297 296 296 294 300 298 299 300 300 301 300 304 305 305 306 308 311 312 309 308 306 307 305 304 304 304 303 302 301 300 299 299 298 298 298 297 297
298 297 289 285 283 281 293 300 302 301 288 300 301 300 300 300 292 296 302 307 308 309 310 310 310 309 306 304 305 303 302 302 302 302 301 300 300 299 298 298 298 298 299 298
287 286 283 285 283 289 299 302 303 288 288 302 303 302 300 298 300 302 305 306 307 308 310 310 309 306 305 305 304 301 301 300 302 302 302 300 300 298 298 299 299 297 293 290
288 286 284 285 282 282 302 300 294 297 302 304 303 303 302 303 302 303 304 304 305 306 308 309 308 306 305 304 303 301 301 303 303 301 298 297 297 298 299 296 294 293 290 287
288 291 289 291 289 301 304 303 305 306 304 304 303 305 305 303 302 303 302 303 303 305 305 307 305 305 304 303 303 300 297 297 297 297 297 297 296 295 294 292 290 288 288 286
296 299 293 293 297 299 303 306 305 305 304 307 306 306 307 303 303 302 301 301 301 303 303 303 302 300 299 300 298 297 297 297 296 294 293 292 289 288 287 288 287 285 284 284
294 298 296 296 300 301 302 305 305 305 306 308 306 305 305 305 302 301 300 300 301 301 300 300 297 295 295 296 295 296 296 296 293 289 288 287 286 284 282 283 283 281 281 282
297 294 292 291 300 299 300 304 307 305 305 307 306 305 305 305 302 301 300 300 300 298 298 296 295 290 284 284 285 288 291 290 287 286 285 284 283 283 282 280 280 282 281 281

GFSCGP_sfc_thetae_084.txt.gz
Theta_e
301 294 292 293 295 297 296 294 293 296 301 299 297 297 300 303 307 307 308 309 309 310 314 315 316 317 316 316 315 315 315 315 314 314 313 313 312 315 318 319 320 320 319 322
297 293 299 299 298 297 296 294 293 296 299 298 297 295 298 304 306 308 307 307 308 309 311 313 311 314 315 315 314 314 314 312 312 312 313 313 312 314 316 319 320 322 323 323
292 297 302 299 298 296 296 294 294 293 296 297 294 292 296 303 306 307 307 308 309 309 309 310 311 311 311 312 312 312 312 312 311 311 309 312 313 315 316 317 318 320 322 323
293 298 299 298 297 298 293 299 298 296 293 287 294 285 292 298 301 303 303 305 308 309 311 310 311 312 310 311 312 313 313 312 312 312 310 310 310 311 315 317 318 320 322 323
292 295 296 296 297 300 296 301 298 298 293 289 291 287 291 299 299 300 302 305 308 310 310 310 311 313 312 312 312 313 313 313 313 313 312 312 314 316 316 317 318 320 320 322
293 298 298 298 301 301 302 298 297 296 292 285 292 291 289 292 299 302 303 306 308 309 310 312 313 315 313 313 312 313 312 313 313 314 315 315 315 316 317 319 319 319 320 320
292 293 297 299 295 298 298 292 284 284 284 283 295 292 293 298 299 305 305 305 309 310 310 311 313 313 314 312 312 312 312 313 314 315 316 317 319 317 317 319 319 318 317 317
287 285 294 299 296 294 294 293 285 282 281 285 295 288 293 301 302 303 309 309 308 311 311 312 313 314 314 313 311 312 313 314 317 318 318 320 321 319 320 320 321 319 319 319
287 288 296 299 299 298 294 290 296 290 292 286 290 294 299 300 300 301 303 308 308 308 312 312 313 314 315 315 311 312 314 316 318 320 321 322 323 321 319 320 321 321 321 320
293 287 296 298 299 299 297 299 289 290 283 282 287 289 291 295 297 299 298 306 308 310 311 313 313 314 315 317 316 315 316 316 317 319 322 323 323 322 321 320 320 320 319 317
294 291 291 297 293 292 294 293 294 295 291 283 281 285 295 296 299 298 300 303 307 310 311 312 314 315 316 317 317 317 317 317 317 317 320 322 323 323 322 320 320 319 317 316
294 292 287 291 297 298 296 295 295 288 288 289 286 286 299 299 300 300 299 302 302 308 312 313 314 315 315 317 318 318 317 317 318 320 320 321 322 323 321 320 319 317 315 314
294 290 284 288 292 296 293 295 296 297 293 289 284 287 301 300 302 302 299 300 301 303 305 309 312 313 314 316 317 318 319 319 321 321 320 321 321 320 319 320 318 317 313 310
298 292 289 285 288 293 291 295 297 296 289 289 289 291 296 298 299 301 301 301 301 302 303 305 306 310 314 315 316 317 318 320 320 320 320 320 320 320 320 317 317 315 312 309
298 288 291 292 294 295 294 294 295 294 294 289 292 292 296 299 300 300 301 302 302 303 303 302 306 307 313 314 316 317 318 319 320 320 317 316 315 317 315 313 313 310 309 308
297 288 290 289 293 295 293 295 295 295 295 294 295 293 300 303 300 299 301 301 301 302 302 303 306 308 310 314 314 315 313 314 316 315 312 309 308 309 309 308 307 307 306 306
293 291 287 283 292 293 286 291 294 295 297 295 290 295 297 297 297 298 299 300 302 302 303 304 307 310 315 314 313 312 310 310 310 308 307 307 306 304 304 304 304 303 303 303
292 293 288 282 286 282 291 298 299 297 298 297 296 296 298 298 298 298 299 300 302 304 306 313 311 308 307 307 308 309 309 308 307 306 305 305 304 302 302 302 302 301 302 301
298 293 285 284 282 289 293 295 295 294 293 298 296 298 299 298 298 298 302 301 303 304 307 310 308 306 305 306 306 306 306 306 306 304 304 304 303 301 301 300 299 300 300 300
297 294 288 284 280 279 289 297 301 300 289 299 300 299 299 298 291 295 302 306 305 308 310 307 306 305 304 303 304 305 304 304 303 303 302 301 301 301 299 299 299 299 298 296
284 284 283 284 283 286 296 300 302 289 289 300 301 301 298 296 298 300 305 306 307 309 308 307 306 303 302 303 303 300 300 300 303 302 301 301 301 300 300 299 298 297 293 289
286 282 279 283 280 280 299 299 293 296 301 302 302 301 300 301 301 304 305 305 307 306 306 306 304 302 302 302 301 298 297 300 301 301 299 300 299 298 298 296 294 292 289 286
286 289 286 286 286 297 302 303 303 304 303 303 303 303 303 301 301 302 302 303 304 305 305 306 303 302 302 301 300 298 300 300 298 296 296 296 295 294 293 292 291 289 288 286
294 297 290 291 296 298 301 305 305 304 303 304 304 304 303 301 301 301 301 301 301 302 302 304 302 299 296 296 295 295 296 295 293 291 288 287 287 286 286 286 286 285 284 284
292 296 292 292 297 300 301 302 302 304 305 305 305 304 305 303 301 300 299 300 299 298 297 296 290 286 286 289 292 293 292 289 287 286 285 284 284 283 282 281 282 281 282 283
293 292 290 290 298 298 299 303 304 303 302 304 306 304 304 304 301 300 299 298 297 294 287 285 284 283 283 284 285 287 288 287 285 284 283 283 283 282 281 281 280 282 282 282

GFSCGP_sfc_thetae_087.txt.gz
Theta_e
298 292 291 293 294 294 293 291 290 294 298 296 296 295 299 301 303 305 309 309 305 307 312 315 316 316 315 315 315 315 314 316 316 315 314 314 314 316 317 319 321 320 322 323
293 291 298 298 296 295 293 291 291 294 298 295 295 294 294 300 303 306 308 306 305 307 310 313 315 314 314 314 314 314 315 315 315 314 313 313 314 315 316 319 319 321 319 321
290 294 300 298 295 294 293 291 291 291 296 295 293 291 294 299 304 307 307 307 307 306 307 311 312 313 314 313 313 314 314 313 314 314 313 312 313 314 314 317 317 318 320 320
291 297 295 296 295 295 290 297 296 294 291 287 292 284 290 295 300 304 305 305 306 307 308 310 310 310 311 313 312 312 312 312 310 310 310 310 309 309 312 312 317 315 319 319
290 292 293 292 295 298 294 299 296 295 292 287 289 286 289 297 297 300 302 304 305 308 308 309 309 310 311 312 311 311 311 311 311 310 309 308 308 308 312 314 315 315 318 321
292 296 295 295 297 299 300 296 295 293 290 284 290 289 287 290 297 300 303 303 305 308 308 309 310 311 310 311 310 310 311 311 311 310 310 308 309 311 312 314 314 315 316 318
291 293 294 297 293 296 295 290 283 281 282 282 292 290 291 296 298 302 303 304 305 308 309 309 308 309 310 309 310 311 311 311 312 310 310 310 310 312 313 314 315 315 315 315
282 282 293 295 293 291 291 291 284 280 279 283 293 287 292 299 301 301 306 306 306 307 309 309 310 310 312 311 310 310 311 311 312 311 311 311 312 313 315 315 316 317 317 318
285 286 295 296 297 295 291 288 294 287 289 284 287 292 297 299 299 298 303 304 304 308 308 309 310 312 312 313 312 311 311 311 312 312 312 312 313 314 315 317 318 318 319 319
290 285 294 295 296 296 295 297 288 288 282 281 285 287 289 295 295 297 299 304 305 308 310 310 310 312 314 314 314 313 312 312 312 313 313 313 314 316 317 318 318 319 320 319
294 287 289 294 291 290 291 291 292 291 287 283 280 284 295 296 298 296 296 303 306 306 309 311 312 313 314 315 314 313 312 312 312 314 315 316 317 319 320 320 319 319 319 316
295 289 284 288 295 296 294 293 293 287 286 286 284 285 297 297 297 298 298 299 301 308 309 311 312 313 313 314 315 313 312 312 314 316 317 317 319 320 320 320 320 319 317 316
294 288 281 285 290 294 292 293 294 294 290 286 283 286 298 299 298 299 298 299 300 304 307 309 311 312 313 313 314 316 315 313 315 316 317 316 316 319 319 320 317 316 317 315
296 291 287 282 286 290 290 293 294 294 286 286 288 290 295 297 298 299 300 300 299 300 305 307 308 311 313 314 315 315 316 316 316 316 316 316 316 318 319 319 316 317 316 316
293 287 290 291 291 292 293 292 293 291 291 289 291 292 296 297 298 299 301 301 299 300 300 303 306 309 311 311 313 315 317 317 317 316 315 316 317 317 316 316 317 317 318 317
294 288 289 287 291 292 291 293 294 294 293 292 292 292 298 299 300 298 299 300 299 300 301 301 304 305 308 310 311 313 314 315 316 316 316 312 312 314 314 313 313 310 309 309
289 288 286 283 290 290 285 291 293 294 294 292 289 294 298 297 297 298 299 299 299 301 301 301 300 305 307 309 310 309 309 310 311 311 309 308 309 307 306 307 307 306 306 306
290 288 286 283 285 280 289 296 297 295 297 297 296 297 298 298 299 298 298 298 300 300 301 307 309 308 307 310 309 309 310 308 308 307 306 306 306 305 305 304 304 303 304 303
294 291 285 283 282 286 290 293 294 293 292 299 297 298 297 297 297 296 299 299 300 302 304 308 306 305 307 307 308 307 307 307 307 306 306 305 304 303 302 301 300 301 301 300
294 294 288 285 281 278 286 296 300 300 289 299 299 300 297 297 292 295 300 302 303 307 307 304 303 305 305 306 308 307 305 305 304 304 303 303 302 302 300 300 300 301 300 297
286 286 285 284 282 284 293 297 301 288 288 299 300 299 298 295 298 299 303 304 306 306 304 304 303 303 303 304 305 303 303 302 303 302 302 301 301 300 300 299 298 294 292 289
285 284 283 284 280 278 296 299 290 294 301 302 300 302 299 300 299 302 304 305 306 305 304 303 302 301 300 300 300 300 300 301 301 301 300 299 298 298 297 294 292 290 288 285
283 288 286 287 285 293 297 301 303 303 302 302 302 304 302 300 300 303 302 305 305 305 304 303 302 300 299 299 299 298 300 300 297 293 290 290 290 290 291 290 289 287 287 285
291 295 290 290 293 294 297 300 304 304 302 304 304 305 303 301 301 301 302 303 302 303 302 301 296 292 292 293 294 296 294 291 290 288 287 286 285 285 285 285 285 284 284 284
290 295 292 290 294 295 298 300 302 304 305 304 304 305 304 303 302 301 301 299 298 294 291 290 288 287 287 289 288 289 289 288 286 285 284 283 282 281 281 281 282 281 282 284
292 291 288 287 295 294 296 300 303 302 303 304 304 304 304 304 300 300 297 294 289 286 286 285 284 284 284 284 284 285 286 286 284 283 282 282 282 282 282 281 280 283 282 282

GFSCGP_sfc_thetae_093.txt.gz
Theta_e
299 294 292 295 297 296 295 293 293 296 299 297 297 296 300 304 303 305 311 314 312 313 314 316 317 317 317 317 317 317 316 318 318 318 318 319 319 321 321 322 323 324 325 324
295 289 296 299 297 297 296 294 293 296 298 297 297 297 301 302 303 305 307 311 313 312 312 314 314 316 315 315 317 317 316 317 318 319 319 319 319 320 321 322 323 323 324 323
291 294 298 296 295 294 295 293 294 293 296 298 296 295 298 301 303 306 308 311 314 312 311 313 314 314 315 315 316 316 316 316 318 319 318 316 316 316 320 321 321 324 324 321
293 297 295 294 293 295 290 297 296 294 293 288 296 288 295 300 301 303 307 309 311 312 312 313 314 314 314 316 316 316 317 316 316 317 317 317 315 315 317 320 320 320 323 322
291 293 293 292 294 297 294 298 296 296 292 292 292 290 294 297 298 302 305 309 311 312 313 312 314 316 316 317 316 316 316 316 316 317 317 316 314 316 314 317 320 318 319 319
292 297 295 295 296 298 300 297 296 295 293 286 291 291 292 295 299 302 305 307 310 311 312 313 315 316 315 316 316 316 315 314 315 314 316 317 315 315 313 314 315 317 318 320
290 292 295 297 293 297 297 293 286 285 285 285 292 290 294 299 302 303 305 306 310 312 312 312 312 313 313 313 315 315 315 314 313 313 314 314 315 316 316 316 317 316 317 318
282 280 291 295 295 292 293 292 286 280 283 286 293 289 294 303 305 305 306 307 309 311 312 312 313 313 313 313 313 314 314 315 315 314 314 315 315 315 316 317 317 318 319 319
285 283 294 293 297 297 292 289 295 288 289 287 290 294 299 302 303 303 304 304 307 309 312 313 313 313 313 312 312 312 313 313 314 315 315 314 315 315 314 316 317 317 318 319
290 285 292 294 296 296 294 297 288 289 282 280 286 289 291 297 300 303 303 304 307 308 310 312 313 314 314 315 313 312 313 312 314 316 316 315 315 315 316 316 316 317 319 320
292 289 289 294 291 291 291 290 292 292 289 284 283 288 299 300 303 302 305 305 305 309 310 311 313 314 315 316 316 314 313 315 315 316 316 316 315 315 316 316 317 318 319 319
294 290 285 288 295 296 294 292 292 286 285 289 288 288 300 302 303 303 304 305 304 310 311 312 313 314 314 315 315 315 315 315 316 317 316 316 317 315 316 316 317 319 318 321
288 286 282 286 290 294 291 292 293 293 291 287 285 288 300 300 301 303 304 306 305 305 310 312 313 313 314 315 315 316 316 316 317 316 316 316 316 315 314 316 317 318 318 319
293 287 283 280 285 288 286 290 291 290 287 288 289 291 297 300 300 304 304 307 306 304 308 311 313 314 314 315 316 316 316 317 317 316 316 316 316 316 316 317 318 319 319 318
292 284 287 287 288 288 288 287 289 288 290 287 290 292 296 300 302 305 307 306 304 304 303 308 311 313 315 315 316 317 317 317 317 316 316 316 317 318 318 319 319 320 321 321
288 285 287 284 288 288 286 289 291 291 292 292 292 293 300 303 303 302 304 304 304 306 305 306 309 312 313 315 316 316 317 317 317 315 315 316 316 316 317 318 319 320 321 322
284 284 284 281 288 288 284 288 291 293 294 294 290 296 300 299 300 302 304 305 304 305 305 305 305 309 312 314 315 316 316 318 317 315 315 315 315 315 316 317 318 318 319 320
284 284 283 281 284 278 289 295 296 293 294 297 297 299 300 302 304 304 305 305 305 305 305 305 304 307 310 311 312 313 314 316 316 316 314 314 314 313 313 315 315 312 308 306
288 285 281 279 281 286 287 293 293 291 292 298 296 299 301 303 300 301 303 304 304 305 304 307 308 310 310 310 311 311 311 310 310 310 310 310 310 308 306 305 303 302 300 297
288 287 283 282 278 277 288 296 299 298 289 300 300 300 300 302 296 300 303 304 307 307 307 307 308 308 309 309 311 309 307 305 303 303 303 304 304 302 301 300 298 295 293 290
281 281 279 280 280 285 294 297 301 286 290 300 302 302 301 299 302 304 306 304 303 303 304 306 307 306 307 308 307 303 302 300 301 301 301 300 299 297 296 295 293 290 288 286
284 281 280 282 280 278 297 298 291 295 299 301 303 303 303 303 303 306 306 304 303 302 303 304 303 303 304 303 302 299 296 297 296 296 294 294 293 293 293 291 289 288 286 284
281 287 286 286 284 296 298 297 300 303 299 302 303 305 304 302 303 304 302 302 301 300 300 300 299 297 298 300 299 294 293 293 292 290 289 288 288 288 289 288 287 285 285 283
288 292 289 289 292 294 297 299 300 301 301 303 306 305 305 303 304 302 301 297 295 296 295 293 291 289 288 290 292 291 291 290 289 288 287 286 286 285 286 285 285 285 284 283
289 291 289 289 292 295 297 298 299 300 303 304 305 306 304 303 296 294 292 291 289 289 289 289 287 286 285 286 287 288 288 289 287 287 286 285 284 283 282 282 283 282 282 283
291 289 287 286 293 294 295 298 299 301 298 297 301 305 304 299 293 289 287 287 287 286 286 285 285 285 284 285 286 287 288 288 287 285 285 284 284 283 282 282 281 283 282 282

GFSCGP_sfc_thetae_096.txt.gz
Theta_e
296 296 294 298 300 301 299 297 297 300 303 301 301 301 304 309 310 310 312 316 318 319 322 322 322 323 320 322 321 319 320 322 322 321 320 321 320 323 324 325 326 326 325 326
296 291 297 300 300 299 298 296 296 300 302 301 300 300 304 307 308 310 311 313 317 319 320 320 320 322 321 320 321 319 319 320 321 321 320 321 322 322 323 324 324 325 326 327
293 297 299 297 297 296 296 295 295 296 300 302 300 298 300 305 309 310 313 314 316 318 319 319 318 318 320 318 320 320 320 319 320 321 319 318 319 321 321 322 322 323 325 327
295 299 297 296 294 296 292 298 297 296 296 292 299 290 297 303 305 307 309 314 316 317 319 320 320 317 317 318 323 323 321 319 320 321 320 318 317 315 319 322 323 324 324 323
294 296 295 295 296 298 294 299 297 297 296 296 296 293 295 302 302 305 308 311 316 319 319 319 320 319 318 319 320 321 322 319 319 321 320 318 317 317 320 321 324 324 323 324
293 299 296 297 299 299 300 298 299 299 297 290 294 294 294 299 303 304 308 311 315 318 320 321 321 321 321 321 321 320 320 318 318 321 322 319 319 316 317 318 319 323 323 326
289 290 296 298 294 298 297 296 289 288 288 287 296 293 296 303 306 307 307 310 315 318 319 320 319 319 321 320 320 320 319 317 320 322 320 319 321 320 317 318 319 321 320 320
286 283 291 297 295 293 294 295 288 283 286 290 296 291 297 305 308 309 311 312 314 317 319 320 320 320 320 321 319 319 319 319 318 316 318 320 322 319 320 322 321 321 320 321
288 287 296 295 297 297 294 291 297 291 293 289 294 298 303 305 306 308 309 309 312 316 319 320 321 321 320 321 320 319 320 318 319 319 318 318 321 319 320 322 322 321 322 322
290 287 295 295 297 297 296 299 290 293 284 283 290 292 295 299 302 306 308 309 311 315 317 320 321 321 321 321 322 321 321 320 321 320 321 320 320 321 321 322 321 322 322 322
293 290 291 295 293 291 292 292 293 294 293 286 286 291 302 302 303 305 308 310 311 315 316 319 321 322 322 321 321 319 319 320 320 322 322 322 321 321 322 321 321 321 322 322
292 290 286 290 298 299 298 295 294 289 288 292 291 291 304 305 306 308 309 310 311 314 317 318 320 321 321 321 321 319 316 318 320 321 322 322 323 322 322 322 321 322 321 323
291 288 284 287 293 296 293 295 296 295 295 290 288 292 303 305 305 307 308 310 311 311 316 318 319 320 321 321 321 321 320 320 321 321 322 322 322 322 321 321 321 322 322 322
293 288 285 283 287 291 289 291 294 292 289 291 292 293 298 301 303 304 307 310 312 312 314 317 318 319 320 321 321 321 321 322 322 322 321 321 321 322 322 322 322 323 322 321
292 285 287 288 289 289 288 289 290 291 292 289 293 294 297 300 302 304 308 310 310 312 311 313 317 319 320 321 322 322 323 323 323 322 321 321 322 323 322 322 322 322 322 322
290 285 288 286 290 289 287 289 291 291 293 294 294 294 302 304 305 305 306 307 308 310 312 313 314 317 320 321 321 322 323 323 323 322 321 322 322 322 322 322 322 322 322 323
287 287 285 282 289 289 285 289 291 292 295 296 293 298 303 302 303 305 307 309 309 310 312 313 313 314 318 320 321 322 323 324 323 322 322 322 322 321 321 321 321 320 321 322
287 285 284 282 285 278 290 297 296 294 297 300 300 301 302 304 306 308 309 309 310 311 311 312 314 313 314 320 322 323 323 323 322 322 321 321 320 320 320 320 319 317 310 306
292 288 282 280 281 285 289 293 295 295 294 301 302 303 303 305 306 306 309 310 309 309 310 312 313 314 316 316 319 320 320 321 320 316 317 318 318 314 309 305 304 301 297 292
291 290 285 283 278 276 287 297 301 300 289 303 303 303 305 306 299 303 309 310 311 311 312 313 314 315 315 315 316 312 310 308 305 305 304 304 303 301 298 295 293 292 290 288
284 285 281 282 280 284 292 297 302 288 291 301 303 302 305 304 307 310 310 306 309 309 309 310 310 309 310 311 307 303 302 300 300 299 298 296 296 294 293 291 290 288 286 285
285 283 281 282 280 278 296 297 290 295 301 302 302 302 304 308 308 310 305 304 304 304 304 306 304 304 306 306 302 297 295 295 295 293 292 292 292 291 290 289 288 286 285 284
284 288 287 288 286 295 298 297 299 300 300 301 301 302 306 308 308 303 302 301 300 299 297 295 294 295 296 298 296 292 292 293 292 292 291 290 289 289 289 288 287 286 285 284
291 294 290 290 292 295 296 297 299 300 302 304 306 306 308 305 306 302 301 299 297 295 293 293 291 290 290 292 292 292 293 293 292 290 290 290 288 287 287 286 285 285 285 283
292 293 290 290 293 294 296 298 299 300 304 303 303 307 308 304 302 299 296 295 294 291 291 291 290 289 289 291 292 294 295 294 291 289 289 288 286 285 283 283 284 283 283 285
294 292 289 288 295 294 294 298 300 300 303 302 302 308 307 303 298 295 291 290 289 288 288 288 288 288 288 290 291 292 294 293 290 288 288 288 287 286 284 282 280 281 281 281

GFSCGP_sfc_thetae_102.txt.gz
Theta_e
302 294 290 293 296 296 296 295 295 298 302 301 302 303 304 308 308 308 309 311 312 313 321 326 326 327 326 326 324 323 324 325 325 323 323 323 323 325 328 330 327 327 326 325
298 293 298 299 298 296 295 294 294 298 301 301 301 301 304 307 307 308 308 309 311 314 320 324 325 326 324 322 322 322 324 323 324 324 323 323 323 324 326 329 327 327 325 324
294 297 300 298 297 295 294 292 294 294 298 301 300 298 301 305 307 309 310 310 311 313 319 322 323 324 323 321 321 321 322 323 324 324 323 322 324 324 324 325 325 325 324 323
295 299 297 296 296 296 291 297 296 295 293 289 299 290 299 303 304 307 309 309 309 313 315 322 322 323 322 321 322 323 322 322 323 323 323 320 319 318 321 324 324 323 324 322
292 294 294 293 295 298 295 298 295 295 294 293 294 291 296 302 300 304 307 309 312 314 315 321 322 323 324 322 321 322 323 322 322 322 323 321 318 319 320 321 320 321 321 320
295 299 297 297 299 299 301 297 295 295 293 287 292 292 293 298 301 303 308 309 312 313 316 321 323 323 323 324 321 321 321 320 322 321 322 321 319 319 318 319 318 318 318 319
294 294 297 297 294 298 297 293 285 283 284 284 294 292 295 302 304 306 307 310 313 318 318 320 321 320 321 321 320 320 319 318 321 320 322 320 319 320 318 319 319 317 317 317
287 285 295 298 293 291 293 293 286 279 281 286 293 289 296 305 307 308 310 312 314 315 319 319 321 321 321 321 320 319 319 318 319 320 320 320 319 320 319 319 319 319 318 318
288 288 298 297 297 295 291 290 296 289 291 286 289 296 303 306 305 307 308 310 312 315 317 319 322 322 321 321 320 321 319 318 319 320 320 320 319 319 319 320 320 319 320 321
292 287 295 297 297 296 293 295 288 290 281 280 287 290 293 300 302 306 306 309 311 314 317 319 321 322 323 323 323 321 322 320 319 321 321 320 320 319 318 321 320 319 320 321
291 289 289 294 293 291 290 289 291 291 289 283 283 288 301 302 305 305 306 310 312 312 316 319 321 323 323 324 323 322 321 321 320 321 321 321 320 320 319 318 320 321 321 321
289 286 285 288 296 298 297 293 291 286 285 290 288 288 303 304 305 306 306 309 312 314 316 319 321 323 322 322 322 322 322 322 321 322 321 320 320 321 320 319 317 320 321 321
292 287 281 283 289 293 292 295 296 294 292 288 285 288 302 304 303 306 307 308 309 314 315 318 320 322 322 322 322 322 322 322 322 322 322 321 320 321 320 320 321 322 321 321
292 288 285 281 285 289 288 290 292 294 286 288 289 291 296 300 302 304 306 308 308 310 313 317 319 321 322 322 322 322 322 322 322 322 321 321 321 321 321 320 321 321 322 321
291 283 285 286 287 288 287 288 289 288 291 288 291 292 297 300 301 304 306 307 307 307 309 313 318 320 322 322 323 323 323 322 322 321 321 321 322 323 323 322 322 322 322 321
291 282 284 283 287 288 285 288 289 289 290 290 291 291 298 301 302 302 303 305 305 307 308 310 316 319 321 323 323 323 323 321 322 320 320 322 323 323 322 322 322 322 321 322
288 286 283 280 286 286 282 286 288 289 292 291 288 293 297 298 300 302 303 305 306 306 307 309 313 316 320 322 324 323 324 323 321 320 321 321 322 322 321 322 321 320 315 303
286 286 285 281 284 276 288 293 293 292 293 294 294 295 296 297 301 306 309 306 307 307 308 310 314 315 317 322 323 324 324 324 322 322 322 322 322 321 322 316 301 297 294 292
291 287 282 279 280 285 287 291 293 293 293 299 298 301 303 305 306 307 310 312 313 312 313 314 315 316 316 319 323 323 322 323 322 321 321 321 322 306 299 295 292 291 289 288
290 291 285 282 277 275 286 294 298 296 287 300 299 298 299 302 297 302 307 312 311 313 315 315 317 318 317 316 321 321 319 316 306 305 303 300 298 295 291 290 288 288 287 286
284 285 281 282 280 284 292 294 297 284 287 298 300 299 300 299 302 306 308 309 310 310 310 314 312 311 309 307 305 301 299 297 296 295 294 292 291 289 290 288 287 286 284 284
283 282 281 283 280 278 296 295 289 295 298 299 300 300 301 302 305 305 308 304 303 302 302 305 304 302 303 303 298 294 292 293 293 292 290 290 289 288 287 286 285 284 284 282
283 288 285 287 287 296 298 298 301 300 298 299 299 301 302 302 304 304 304 299 297 297 297 297 295 294 295 296 295 291 291 291 291 289 290 288 288 287 287 285 285 284 284 283
291 293 289 289 293 295 297 299 299 299 298 299 300 301 302 302 304 304 300 297 294 294 293 293 292 291 291 292 292 291 290 290 288 286 286 285 284 284 284 285 286 285 284 283
290 292 291 291 294 296 297 298 299 299 299 300 301 303 304 305 302 300 295 292 291 291 291 292 291 290 290 291 290 290 289 288 285 284 283 282 281 280 279 279 280 279 280 281
292 290 289 288 295 294 295 299 300 299 299 301 301 303 300 299 295 292 288 288 289 288 289 290 291 290 290 291 290 290 290 288 286 284 282 281 280 279 278 277 276 279 279 279

GFSCGP_sfc_thetae_105.txt.gz
Theta_e
298 289 284 287 287 289 288 288 288 291 297 296 296 296 300 303 305 301 300 303 305 305 318 320 321 321 321 321 320 321 323 324 320 318 318 318 322 327 328 327 327 328 327 327
294 289 293 293 291 290 289 288 288 292 296 296 294 295 299 301 303 304 301 302 302 303 318 319 319 319 320 319 319 321 322 323 320 319 320 320 319 321 329 328 327 327 326 325
290 294 299 296 293 291 291 289 288 288 293 296 294 292 296 301 303 305 304 304 304 306 316 318 319 318 318 316 317 320 322 321 319 322 322 319 319 321 322 326 325 326 326 325
290 295 295 293 292 293 288 294 293 292 288 284 294 284 292 296 298 302 304 304 304 305 318 318 318 317 316 315 318 320 321 322 322 322 320 319 318 317 321 321 325 324 325 324
288 289 289 289 290 293 290 296 294 292 288 286 289 287 290 296 296 299 302 303 306 305 317 317 318 317 317 317 317 321 321 321 321 321 321 319 319 319 322 323 323 323 324 323
291 295 292 291 294 294 297 294 293 291 287 281 288 287 287 291 295 299 304 304 304 305 317 318 319 319 317 317 317 320 320 320 320 320 320 319 318 319 319 322 320 321 321 321
290 291 294 295 290 292 292 287 281 279 279 280 290 288 289 296 300 301 302 305 306 306 316 316 317 317 316 315 316 319 319 318 319 319 319 317 317 319 318 319 319 318 318 318
285 283 290 294 291 288 288 287 281 276 277 281 291 286 290 301 304 307 306 307 308 315 316 316 317 317 316 316 316 319 317 317 319 319 319 317 318 318 319 318 318 318 318 318
285 286 294 296 296 292 287 285 290 286 286 282 286 290 297 304 303 306 305 305 306 313 315 316 316 317 317 316 316 316 316 317 319 319 318 315 317 318 318 319 318 318 318 319
288 283 292 294 296 295 289 291 283 287 279 277 283 286 288 297 298 303 304 305 306 311 314 316 315 316 318 317 317 316 317 317 318 318 318 317 317 319 319 319 318 318 318 318
286 286 284 291 289 289 289 285 286 287 287 279 278 283 299 299 301 302 304 306 306 307 313 316 316 317 318 318 317 316 316 315 317 318 317 317 316 318 318 319 318 318 319 318
286 283 278 282 289 294 293 290 290 280 281 285 284 284 299 301 302 304 303 306 308 310 312 316 317 317 317 317 317 317 316 316 316 319 319 317 317 316 315 318 318 319 318 319
286 283 278 280 284 288 289 290 292 289 288 283 280 285 299 300 302 304 303 304 306 308 308 315 317 317 318 318 317 317 317 317 317 319 320 319 318 316 314 315 317 317 318 318
292 284 281 277 281 285 282 286 289 286 284 285 285 288 293 297 300 301 303 304 305 305 307 310 315 317 318 318 319 318 318 318 318 319 317 317 317 317 316 316 315 315 318 318
287 280 283 284 285 285 284 284 285 284 287 285 288 287 294 298 300 302 304 304 302 304 303 306 310 313 317 318 318 319 319 318 319 318 317 317 317 316 317 316 316 318 318 318
289 280 283 280 283 283 282 284 285 286 287 287 288 288 296 296 299 299 302 302 302 303 305 305 305 312 316 318 318 319 319 319 319 318 318 318 318 318 317 316 316 316 316 317
285 283 280 277 282 282 278 283 285 286 288 288 284 289 294 293 295 301 305 307 307 309 310 309 306 307 313 319 320 319 319 320 318 318 318 319 319 318 318 318 318 317 304 298
283 282 281 277 280 272 283 290 290 288 289 292 296 297 298 299 302 306 308 306 307 308 309 310 311 311 312 320 320 319 320 318 318 317 318 319 319 319 318 310 299 295 293 291
287 283 279 277 277 281 285 289 291 290 290 297 295 297 299 299 302 301 306 308 306 307 308 310 309 308 307 311 320 320 319 318 317 316 317 318 319 302 298 294 292 291 289 287
287 285 281 278 275 271 284 292 294 293 284 296 297 296 297 298 291 297 304 306 305 306 305 307 306 305 303 301 314 316 314 309 301 298 298 299 297 294 291 289 288 287 286 285
281 280 278 277 275 281 290 294 296 281 284 296 297 297 297 293 296 301 305 303 303 301 300 302 299 297 299 299 299 296 295 294 296 296 295 292 291 289 288 287 287 285 284 283
281 277 276 278 273 274 294 294 287 292 294 295 296 297 297 298 300 303 303 299 298 296 297 297 294 294 296 295 296 294 292 293 294 293 292 291 289 288 287 286 285 284 283 282
281 284 281 280 280 293 296 294 298 296 294 294 294 296 297 297 302 303 297 295 294 294 294 294 293 293 293 293 293 292 292 293 293 291 290 289 288 287 286 285 284 283 283 282
287 291 286 287 291 292 296 298 298 295 294 295 297 297 300 300 301 298 294 293 291 291 291 292 291 290 289 290 290 289 290 290 288 287 286 285 285 284 285 285 284 283 281 280
288 290 287 288 292 295 296 297 297 297 296 296 301 300 299 298 294 293 290 289 289 290 291 291 290 289 288 289 288 289 288 286 284 283 282 281 280 280 279 279 279 278 279 279
291 289 286 286 293 292 294 296 298 296 298 300 300 294 293 293 291 288 286 285 285 284 285 287 289 288 288 288 287 287 286 285 283 281 280 279 278 277 277 276 276 279 278 278

GFSCGP_sfc_thetae_108.txt.gz
Theta_e
297 286 283 286 286 290 286 284 283 286 291 289 291 292 295 298 299 300 302 303 301 303 307 318 321 320 320 320 320 319 319 319 319 317 321 324 323 325 325 328 329 330 330 329
292 288 292 291 288 287 285 284 283 287 290 290 290 290 294 296 299 301 302 303 303 302 313 318 319 319 319 319 319 318 320 320 319 318 318 321 322 326 326 327 329 329 328 328
289 292 297 293 290 287 286 283 284 285 289 290 289 289 292 297 300 302 303 303 304 303 313 316 318 317 317 317 317 318 320 322 321 318 318 316 319 322 324 324 325 327 327 327
290 296 294 292 291 292 286 291 290 290 287 284 290 281 289 293 295 299 300 302 303 304 315 317 317 316 317 317 317 318 320 321 321 319 318 317 314 317 320 325 325 327 326 325
288 288 289 289 291 292 289 292 291 291 287 283 285 281 287 292 292 296 299 301 302 302 314 316 317 317 317 315 316 318 320 320 322 321 320 319 318 318 317 321 323 325 325 325
289 293 291 289 291 291 293 290 291 289 286 280 285 284 285 287 292 296 300 302 304 302 313 317 318 317 315 316 316 317 319 320 320 320 320 319 318 319 319 320 320 322 324 323
289 289 291 293 288 291 289 286 279 278 278 279 287 285 287 292 296 298 302 303 306 309 310 316 315 315 314 314 315 316 318 317 319 319 320 319 319 320 319 321 321 321 322 321
283 281 288 292 288 286 285 285 280 276 277 280 287 281 288 296 300 305 307 307 307 307 311 316 316 315 314 315 315 317 317 317 318 318 319 319 317 319 318 321 321 321 321 321
283 284 292 293 293 290 286 283 289 283 284 280 283 288 293 296 301 304 305 307 306 310 313 315 316 315 315 315 315 316 316 317 318 319 319 318 318 316 318 318 320 319 320 321
286 281 287 290 292 293 288 289 281 283 276 276 281 283 285 292 297 301 303 304 306 309 313 316 316 315 316 315 316 315 316 317 318 319 319 318 317 317 317 317 317 318 319 319
284 282 283 288 286 284 288 287 288 285 284 278 277 281 295 296 298 299 302 305 305 306 308 315 316 317 316 316 315 315 315 315 317 318 318 317 316 317 318 317 317 316 318 318
286 281 277 280 287 289 292 288 289 281 279 282 282 282 296 300 302 302 301 303 306 307 305 312 315 317 315 315 315 314 314 314 316 317 318 317 316 317 318 318 317 317 316 317
285 280 277 278 282 289 286 288 287 289 287 281 278 281 296 299 302 302 302 304 306 306 305 310 315 315 315 315 315 314 315 314 315 317 317 317 315 315 316 316 316 317 316 316
291 282 279 275 279 282 280 283 285 286 279 281 281 286 290 292 298 301 301 303 305 305 306 309 315 316 316 316 315 315 315 315 316 317 318 315 314 314 314 316 316 316 317 317
286 279 281 282 283 282 281 281 282 281 283 281 284 285 289 293 297 301 303 302 303 303 307 308 312 314 316 316 316 316 316 316 316 316 316 317 316 315 313 314 314 315 316 317
287 279 281 279 283 282 280 282 282 283 283 283 285 286 293 298 298 300 302 305 306 307 309 309 310 312 317 318 317 317 317 316 317 316 315 316 317 316 314 313 313 313 314 315
283 281 279 276 282 281 277 281 282 283 285 285 281 288 297 297 300 302 304 305 305 305 306 308 308 307 307 318 319 318 317 317 317 316 316 316 316 315 315 315 314 311 301 297
282 281 280 276 279 270 280 288 288 285 287 290 293 295 297 297 302 303 305 304 304 304 304 306 305 304 303 304 318 319 319 318 317 316 316 317 316 315 315 309 299 296 294 291
286 282 274 271 274 279 281 287 288 286 286 295 294 295 297 298 300 299 305 306 304 302 303 303 302 301 300 301 308 319 318 318 317 316 316 317 317 306 299 295 292 291 289 288
285 284 279 275 272 272 283 290 294 292 283 295 296 295 295 296 289 292 303 304 301 300 299 299 298 298 297 298 301 313 312 315 305 302 302 305 301 297 293 290 289 288 287 286
280 280 276 276 271 278 288 291 293 281 284 296 295 296 294 292 294 298 303 299 298 296 296 296 295 294 295 297 298 296 296 295 299 298 297 296 295 291 289 288 287 286 285 284
280 278 275 278 271 273 293 293 286 290 293 294 293 294 294 296 300 300 297 295 294 292 293 293 292 292 293 296 296 293 293 295 296 294 292 290 289 289 288 286 285 284 283 282
280 284 279 278 279 290 294 293 296 295 293 293 292 293 296 298 299 296 293 291 291 291 291 292 291 290 290 292 293 292 293 293 292 291 289 288 287 286 286 284 284 283 283 281
286 289 286 285 288 290 294 297 298 297 292 293 295 298 299 296 297 293 290 290 290 291 291 291 290 288 287 288 289 289 290 290 288 287 286 286 286 285 284 284 283 282 280 279
286 287 286 287 288 291 294 297 297 296 295 295 297 296 296 295 291 290 288 287 287 286 290 290 288 287 286 286 286 286 286 286 284 283 282 281 280 279 279 279 279 278 279 278
291 288 284 283 291 291 292 296 297 295 296 298 294 290 289 289 287 285 283 283 283 284 285 285 287 286 286 285 284 284 285 283 281 280 279 278 278 277 277 276 276 280 279 280

GFSCGP_sfc_thetae_111.txt.gz
Theta_e
295 285 281 285 289 290 286 284 283 284 288 286 286 287 290 293 294 295 296 298 300 301 305 305 318 319 319 321 321 321 321 320 321 321 322 322 322 325 325 327 327 327 328 326
289 287 289 290 288 285 284 283 283 285 288 287 286 287 291 292 292 295 297 299 301 302 302 313 315 318 319 320 320 320 321 319 318 319 321 323 323 325 326 327 328 328 328 326
285 288 295 293 290 286 285 283 282 283 286 287 285 286 289 293 294 298 299 300 302 302 301 311 316 316 318 318 318 319 319 320 317 317 317 319 322 324 323 324 326 328 328 327
288 292 291 291 290 290 285 288 287 285 284 281 288 281 289 290 291 294 296 298 299 299 304 313 316 315 316 318 318 318 319 318 317 317 316 318 320 320 322 323 326 327 328 328
286 287 290 289 289 292 289 293 290 289 285 282 284 280 287 289 290 292 294 296 297 300 307 313 316 317 317 317 317 317 318 319 320 318 317 315 313 317 321 324 323 325 326 327
287 291 291 290 291 292 292 288 288 287 284 278 284 282 284 285 289 292 296 299 305 305 303 309 316 317 316 315 315 316 317 319 321 320 316 315 313 314 315 319 321 323 325 325
288 289 290 292 287 290 287 284 277 276 277 278 285 282 285 290 293 295 301 303 306 307 308 306 313 315 315 314 314 316 317 317 319 320 318 317 317 318 316 316 318 319 323 323
283 280 288 291 288 286 285 284 278 273 274 278 285 280 284 294 297 302 304 305 306 307 307 311 314 315 314 314 314 316 316 318 319 319 319 319 319 319 320 319 319 321 321 323
283 283 291 291 291 290 286 281 286 280 280 279 281 284 289 294 298 300 302 304 304 305 306 309 315 315 315 314 314 315 315 317 318 318 318 319 319 319 319 320 322 322 323 322
287 280 286 288 291 291 289 290 280 281 276 274 278 280 282 289 294 298 298 302 303 303 304 307 315 314 315 315 315 315 316 317 316 318 318 317 318 318 318 319 319 320 321 321
284 282 282 286 284 282 285 284 285 285 281 277 275 278 291 294 297 296 298 301 302 303 306 307 311 315 315 315 315 315 315 315 315 318 319 316 317 317 316 316 318 319 319 320
286 281 276 279 285 287 288 287 287 281 280 281 280 279 292 293 299 299 300 301 303 305 306 307 308 315 313 314 315 314 314 315 315 317 318 317 317 317 316 315 315 318 317 318
286 280 275 276 282 285 284 285 285 287 286 280 279 279 293 293 294 300 301 303 304 305 305 306 308 314 315 315 315 315 313 314 314 316 317 317 317 317 316 316 316 316 317 317
291 281 277 273 277 280 278 280 282 285 277 279 279 281 287 289 290 298 300 302 303 304 305 309 310 314 315 315 315 315 315 313 314 314 316 316 316 316 316 316 315 314 315 316
285 278 279 280 281 281 280 280 280 279 281 277 279 281 285 289 291 295 301 302 302 304 308 308 308 313 315 316 316 316 315 313 314 314 314 314 316 315 315 314 315 316 315 315
286 279 280 278 281 281 279 281 281 281 281 281 281 280 288 292 296 298 301 302 302 303 305 307 306 307 308 311 316 316 315 314 314 313 315 315 315 313 313 313 313 315 315 314
282 280 278 274 280 280 276 279 281 281 283 282 278 283 291 295 297 300 301 302 303 304 304 305 304 304 304 305 308 317 317 317 314 314 314 316 314 312 311 312 312 311 304 301
281 280 278 275 278 269 279 285 285 283 285 288 285 289 295 296 300 302 304 303 302 302 302 303 301 301 301 302 305 313 318 316 316 314 314 314 314 312 312 309 302 296 295 293
285 281 273 269 273 276 279 282 285 286 285 292 289 294 295 297 300 298 304 304 302 300 300 300 299 299 299 299 302 313 317 317 316 315 315 315 314 308 301 296 293 292 290 289
284 284 278 274 270 267 279 289 292 291 281 293 294 293 294 296 291 293 301 300 298 297 296 296 296 296 297 298 303 305 311 313 312 314 314 312 305 300 295 292 290 289 288 286
279 280 276 275 269 276 285 288 293 277 283 293 294 294 293 291 294 298 298 295 295 294 293 294 293 292 294 297 299 300 300 297 296 298 301 300 299 296 292 290 289 288 286 285
279 278 277 277 270 271 290 291 285 290 294 295 295 294 293 297 300 297 293 292 291 291 291 292 292 290 291 294 295 295 296 296 294 293 292 291 291 290 289 287 286 286 285 283
278 282 280 279 277 288 292 293 297 297 293 292 291 292 296 296 297 294 292 291 290 291 291 291 290 289 289 290 292 290 291 294 291 289 287 286 286 286 287 286 284 283 283 282
285 288 285 283 287 289 292 295 297 298 295 293 295 297 296 295 295 291 290 289 288 289 290 289 288 287 286 287 287 288 289 289 288 286 285 285 284 283 283 283 283 282 280 279
285 287 284 287 287 289 292 293 294 295 296 294 292 291 292 291 289 288 286 285 285 286 287 288 286 285 284 285 284 285 285 284 282 281 280 280 279 279 279 279 278 278 279 279
289 286 282 282 289 288 290 294 296 294 292 293 291 288 286 287 285 284 282 282 283 283 284 286 285 284 284 283 283 283 283 282 280 279 278 278 278 278 278 277 277 280 280 280

GFSCGP_sfc_thetae_114.txt.gz
Theta_e
292 284 279 282 288 289 286 284 282 283 288 286 287 286 286 289 289 291 292 293 295 298 301 302 306 313 317 321 321 322 322 321 322 323 323 323 321 322 325 325 326 325 325 326
287 284 287 288 288 287 285 282 283 285 288 286 283 284 288 290 291 292 293 294 295 298 301 302 305 313 316 320 320 321 321 321 323 324 324 323 322 324 325 325 325 325 326 324
285 286 291 290 286 284 282 281 281 283 286 286 284 284 286 291 291 295 296 296 297 297 298 300 303 312 314 317 319 320 320 322 322 322 323 323 322 323 323 324 323 325 325 323
286 289 288 290 289 289 284 288 288 287 282 279 286 278 285 289 290 292 294 293 293 295 299 301 302 311 313 317 316 319 320 321 318 319 321 321 320 319 322 322 325 324 326 324
284 287 287 285 288 292 287 290 288 287 284 281 281 280 282 288 288 289 292 293 296 303 303 304 306 313 314 316 315 318 320 320 318 318 319 320 319 320 322 324 323 325 326 325
286 290 290 290 292 292 292 288 287 285 282 277 282 281 282 283 287 290 294 300 303 303 304 306 308 312 313 315 315 318 318 319 318 317 314 315 314 318 321 322 322 323 325 326
287 287 290 292 287 289 286 283 277 275 277 275 284 281 284 288 291 297 299 301 303 303 303 304 306 312 314 316 315 317 318 318 318 317 316 313 313 317 319 321 322 322 323 324
282 280 286 290 288 286 284 283 278 273 273 275 284 278 283 291 296 299 301 303 304 303 303 305 307 310 315 316 315 317 317 317 317 317 317 316 314 315 314 316 319 321 323 324
281 283 290 290 291 290 285 282 286 280 279 277 278 282 287 293 295 298 298 301 301 302 303 304 306 308 313 315 315 316 317 317 316 316 319 319 319 319 318 317 316 317 320 322
284 280 286 288 292 289 288 290 281 281 276 274 276 278 280 290 293 296 296 298 299 300 302 304 306 308 309 315 316 316 317 317 317 317 318 318 319 319 319 317 319 319 321 322
284 280 282 285 283 282 285 284 285 285 282 277 275 277 290 288 294 295 297 299 299 300 303 304 306 308 310 316 316 316 316 317 317 317 318 318 318 318 318 318 319 320 320 321
284 281 278 279 285 286 288 286 286 279 278 281 279 279 291 288 290 293 298 301 302 303 304 306 309 310 312 314 315 315 316 316 316 314 318 318 318 317 316 317 318 318 318 319
286 281 274 277 282 284 283 283 285 285 283 278 275 278 291 289 289 290 298 299 302 304 303 304 309 308 313 314 315 315 315 315 315 314 317 316 317 317 316 316 316 317 317 317
290 282 278 273 277 281 279 280 281 282 274 277 278 279 283 285 287 288 291 299 301 304 303 304 307 308 310 315 315 315 315 316 315 314 317 316 317 317 317 316 316 316 317 316
286 278 280 280 281 281 279 279 279 278 279 276 277 277 281 284 286 288 290 299 301 302 302 302 306 306 306 309 316 316 315 314 314 313 314 315 316 317 316 315 315 315 316 316
285 278 280 278 281 280 279 280 280 280 280 279 280 279 286 287 288 288 294 299 301 302 303 304 306 305 304 305 306 316 315 314 314 313 313 314 315 315 315 315 315 315 315 315
281 279 278 274 279 279 274 278 279 280 281 281 277 282 285 285 288 296 298 301 302 303 303 303 303 302 302 302 303 305 315 314 313 313 314 314 314 313 314 314 314 313 305 303
280 279 278 274 277 267 276 283 282 281 282 283 284 285 289 289 297 299 302 301 301 301 300 299 299 299 299 300 301 303 307 315 313 313 314 315 314 312 312 311 302 298 296 294
284 280 273 269 272 275 277 280 282 283 282 288 287 289 290 295 297 295 302 301 298 297 296 296 297 296 297 298 299 303 307 315 314 313 313 313 314 310 304 299 295 293 291 289
283 282 277 275 270 266 277 284 290 289 276 290 289 291 292 293 289 294 299 297 295 294 294 293 294 294 294 295 298 302 312 314 313 313 312 312 309 304 299 294 292 290 288 287
279 279 276 276 273 276 282 285 290 276 279 289 292 293 292 290 292 297 296 294 293 292 292 293 294 292 291 293 296 298 297 296 299 301 302 303 302 298 294 291 290 288 286 285
278 277 276 277 273 269 289 289 282 289 294 294 294 295 294 295 298 295 293 292 290 291 291 291 290 289 289 290 293 292 292 292 293 293 292 291 292 291 290 288 287 286 285 283
277 281 279 280 278 286 289 291 294 295 293 293 292 292 296 294 295 292 290 290 289 289 290 290 288 287 287 287 289 288 289 290 289 288 287 287 287 287 286 285 284 283 283 282
284 287 283 283 287 287 289 293 296 294 293 296 295 296 296 293 293 290 287 286 286 287 288 288 287 285 284 285 285 285 287 288 286 284 283 284 284 283 283 284 283 282 282 281
285 287 283 284 287 289 292 293 292 294 295 289 289 288 289 289 287 286 284 284 284 284 286 287 285 284 283 284 283 284 284 283 281 281 281 280 280 279 279 279 279 279 280 280
287 285 283 281 288 288 290 293 293 290 289 290 287 285 286 286 284 284 282 282 282 282 283 283 283 283 282 282 281 282 282 282 281 280 280 279 279 279 279 279 279 282 282 282

GFSCGP_sfc_thetae_117.txt.gz
Theta_e
293 288 285 288 290 290 290 288 288 289 293 291 292 291 293 294 293 295 297 299 301 303 307 308 309 311 313 322 324 327 328 329 329 326 324 323 322 322 324 326 327 329 328 328
290 287 292 290 289 288 288 287 287 289 291 290 289 290 293 294 295 297 298 299 301 303 305 308 311 311 316 322 326 327 328 326 329 328 327 327 325 325 325 328 328 328 328 326
287 289 292 290 288 286 286 285 286 286 288 290 289 289 292 294 295 297 299 301 301 301 308 310 312 314 316 320 324 326 327 325 329 330 328 328 326 325 325 326 326 326 325 326
288 292 289 289 288 289 284 289 287 286 286 284 291 283 289 293 294 296 297 299 303 309 310 310 311 312 317 319 325 326 326 325 326 328 327 325 323 320 323 325 325 325 324 322
286 288 286 286 287 290 287 292 289 289 287 286 287 284 287 291 290 293 297 303 308 309 309 309 310 312 317 321 324 326 326 324 323 325 326 326 322 323 328 327 324 326 325 322
287 292 292 289 291 292 295 291 290 289 287 280 285 285 285 288 291 293 301 306 308 309 310 310 312 313 315 322 322 323 323 321 321 323 324 324 322 322 324 325 323 325 325 323
287 286 291 293 289 291 291 287 280 278 279 278 286 284 286 292 295 301 302 304 306 307 307 308 309 311 313 318 318 320 321 319 320 321 322 323 323 326 325 324 325 322 324 325
282 281 288 292 290 288 288 287 281 274 276 279 285 281 287 297 301 301 302 304 304 305 306 307 309 311 312 314 319 318 318 318 319 321 322 325 326 325 325 325 326 325 324 324
279 282 291 291 292 291 286 283 290 283 283 281 283 286 293 297 297 297 299 302 303 305 306 308 310 311 314 314 316 317 318 319 319 320 322 323 323 321 321 321 323 325 325 326
283 278 287 288 292 291 289 291 283 284 277 275 280 282 285 288 290 293 295 299 304 306 306 308 311 313 314 318 317 320 318 318 319 321 323 324 324 323 322 322 322 322 323 324
285 282 282 287 284 283 286 286 286 287 284 278 277 281 291 290 292 291 293 296 302 306 306 307 309 312 312 316 320 318 318 318 318 321 323 323 321 321 321 321 322 324 324 325
286 283 278 281 288 290 290 287 287 282 280 283 282 283 295 292 291 292 292 294 301 306 307 307 309 310 310 308 316 317 317 317 318 321 322 322 321 320 319 320 321 323 322 323
287 281 276 279 285 286 283 283 287 287 285 281 279 282 293 292 290 291 291 293 296 305 305 305 306 306 308 308 308 316 316 317 317 319 321 320 320 319 319 320 320 321 321 320
290 283 279 275 277 282 280 282 283 284 279 279 281 283 286 287 287 289 290 292 295 305 305 305 306 306 307 308 307 310 316 317 317 318 319 319 319 318 318 319 318 320 320 317
287 279 281 281 282 282 281 281 282 280 281 278 281 280 284 286 288 289 291 292 293 302 304 305 306 307 307 306 305 306 314 316 316 316 318 319 319 319 318 317 318 318 318 318
286 279 281 279 282 281 279 282 282 282 282 282 282 281 289 289 290 290 291 293 299 303 305 306 306 305 302 302 303 303 305 315 316 316 318 319 318 318 317 316 316 316 316 316
283 281 278 274 279 280 275 280 281 282 284 283 279 284 288 287 289 290 294 299 302 303 303 302 301 301 300 299 300 301 303 308 315 315 317 317 317 316 316 316 316 314 309 306
282 281 280 275 277 269 279 285 284 282 284 285 285 287 289 290 292 294 303 303 301 300 298 298 297 298 299 299 299 300 302 306 314 314 315 316 316 315 315 315 306 301 300 298
285 282 277 274 274 277 279 282 282 281 282 289 288 291 292 295 295 297 302 301 298 297 296 295 296 297 296 297 296 298 302 308 313 313 314 314 316 313 310 303 298 295 293 291
283 284 279 276 271 269 279 287 291 290 278 290 290 289 293 296 289 294 298 296 295 295 294 294 295 295 294 293 294 297 297 301 312 313 314 315 315 309 303 297 293 292 289 287
280 279 276 276 274 278 284 289 291 276 281 292 291 289 294 292 296 297 295 294 294 293 293 293 293 290 290 290 292 292 292 290 293 301 310 309 308 302 297 293 291 288 287 286
279 277 278 278 275 273 290 290 283 289 292 291 294 293 293 297 296 294 293 291 290 290 291 291 289 288 288 288 289 288 288 290 291 292 295 294 294 293 292 289 288 287 286 284
277 281 279 281 280 288 291 290 295 296 292 292 294 296 297 296 293 291 290 289 288 288 289 289 287 286 286 286 286 284 286 287 287 288 287 288 288 288 288 287 286 285 285 284
284 287 283 283 287 289 290 293 295 295 293 294 292 292 293 290 290 288 288 286 286 286 287 287 286 284 283 284 284 284 284 284 284 283 284 285 285 285 285 285 285 284 283 282
285 286 284 284 286 287 291 290 292 291 291 289 288 288 288 288 286 285 284 284 284 284 284 285 284 282 282 282 282 283 283 283 283 282 282 282 282 281 281 281 281 281 282 282
286 284 281 281 284 285 285 286 288 288 288 287 288 287 285 285 283 283 281 282 281 281 281 282 282 281 280 280 280 281 282 282 281 280 280 280 280 281 281 280 280 283 282 282

GFSCGP_sfc_thetae_123.txt.gz
Theta_e
301 293 290 294 297 296 294 292 291 295 299 297 298 299 302 306 307 306 307 307 307 307 310 313 314 318 321 324 326 326 327 331 328 330 335 340 340 337 334 337 344 342 340 341
295 293 296 297 297 295 295 292 291 294 296 295 295 295 299 302 304 305 305 305 305 308 310 311 315 319 322 324 326 330 329 330 330 330 335 339 339 330 330 334 338 339 339 336
292 295 298 296 295 292 292 291 291 290 294 295 294 292 295 299 301 303 305 305 307 308 309 312 315 318 321 323 328 330 329 331 333 334 336 334 332 330 328 330 331 336 335 336
294 297 295 294 292 294 290 295 293 291 290 286 294 284 293 296 298 301 303 304 306 309 312 313 313 316 319 323 329 332 332 332 333 336 335 331 327 326 327 329 330 334 334 334
291 294 293 292 293 295 292 296 293 292 290 290 290 287 292 297 296 298 301 304 308 312 312 312 313 315 318 323 325 329 332 332 333 333 334 330 329 332 333 334 331 331 333 334
292 298 297 296 296 296 297 294 292 292 289 282 288 288 290 293 297 299 302 307 310 310 311 312 314 316 318 324 326 326 328 328 328 330 331 330 330 332 332 331 330 331 333 333
290 292 296 298 293 296 293 289 281 279 280 282 290 288 290 296 299 301 303 307 308 310 311 311 312 315 317 320 323 326 325 325 327 328 330 330 332 331 333 329 329 330 327 326
283 282 292 297 294 291 291 290 282 276 279 284 290 285 291 298 304 306 307 307 308 309 311 311 312 314 316 318 320 323 325 324 324 327 327 328 331 331 332 331 331 331 328 326
282 283 292 294 296 296 291 288 292 285 286 283 287 291 298 301 301 303 304 305 306 307 309 309 311 313 315 315 317 320 324 325 324 324 327 325 327 331 332 331 330 332 331 329
286 281 289 291 296 295 292 295 285 285 278 277 284 286 289 295 296 299 299 299 300 302 304 307 310 312 313 315 317 319 321 324 325 325 325 324 325 329 330 331 331 332 332 329
288 285 284 289 287 288 288 288 289 289 286 281 279 283 295 297 296 295 296 297 298 299 300 305 308 311 313 315 317 317 318 319 323 324 324 324 324 327 329 329 330 331 331 330
288 285 280 283 290 293 291 289 287 284 283 286 285 285 298 299 298 298 297 297 298 300 300 303 308 310 312 314 315 315 315 316 317 322 322 323 323 326 325 327 329 331 329 330
289 284 278 280 286 292 287 287 288 287 286 282 282 285 298 298 299 299 296 297 298 299 301 301 306 308 311 313 314 313 314 315 316 318 321 322 322 324 325 325 328 326 326 327
291 285 281 277 280 284 282 284 287 285 281 283 285 287 292 294 296 295 295 297 298 299 300 301 303 308 311 314 313 312 312 314 313 311 319 320 322 323 324 326 325 324 326 326
289 281 284 284 285 284 284 283 285 283 284 281 286 286 290 294 294 295 296 296 297 297 300 303 306 310 312 312 312 311 309 311 311 308 310 319 322 323 322 323 323 324 324 324
289 281 284 281 284 285 282 284 285 285 285 285 287 287 294 295 296 294 295 296 296 297 300 305 308 309 309 309 309 309 308 305 308 306 306 316 321 321 322 322 322 322 323 322
286 284 281 277 283 283 279 283 284 285 287 286 282 288 293 292 292 294 296 297 298 298 305 306 306 306 307 307 306 305 305 305 304 305 307 309 319 320 323 322 321 321 320 316
286 284 283 278 281 272 283 288 288 286 287 288 289 290 292 293 296 298 299 299 300 304 304 304 305 305 305 305 302 301 302 303 302 301 303 307 318 320 322 320 318 315 311 303
289 285 280 276 276 281 283 287 287 286 285 290 290 291 294 296 296 297 303 304 303 301 302 302 303 302 302 299 298 298 298 299 299 296 298 299 316 320 321 316 308 303 299 296
287 288 282 280 275 273 282 288 292 292 282 294 295 294 294 293 286 292 295 297 296 297 298 297 299 298 296 294 294 294 294 293 293 291 293 295 298 318 315 305 300 298 294 291
282 283 280 280 278 281 289 292 294 280 284 295 294 291 289 286 290 293 294 294 294 295 294 295 296 293 291 291 290 290 291 289 288 290 292 294 297 311 306 299 295 292 289 288
280 279 280 281 279 276 290 292 285 290 295 293 293 289 286 291 293 293 292 291 292 291 292 294 293 292 291 288 286 286 287 287 288 290 290 290 297 302 298 294 291 289 288 286
279 282 280 282 282 289 289 287 289 291 292 291 290 290 292 291 290 290 289 288 289 290 291 292 292 291 291 288 284 283 284 286 286 287 287 287 288 293 294 291 288 287 287 285
285 288 284 283 285 285 287 288 288 288 287 289 291 292 292 289 290 289 288 289 289 289 289 290 289 288 288 287 284 282 284 285 285 284 285 285 285 285 287 288 288 287 285 284
287 288 284 285 286 287 289 288 288 289 289 290 292 292 290 289 288 288 287 287 287 286 287 287 286 285 285 285 283 281 283 284 284 283 284 285 284 283 282 282 283 283 284 284
288 283 282 282 286 284 287 287 290 288 288 289 289 289 290 288 287 287 285 285 284 283 283 282 282 282 282 283 282 280 281 283 283 282 282 283 283 282 281 280 280 283 282 282

GFSCGP_sfc_thetae_129.txt.gz
Theta_e
293 286 285 287 287 289 288 287 286 289 294 291 291 291 293 296 297 297 298 299 300 304 307 308 308 307 309 312 314 316 317 316 320 327 334 333 334 333 334 336 336 340 340 339
289 284 291 294 294 292 290 287 286 290 292 291 291 292 291 294 297 298 297 297 298 300 305 305 305 310 312 314 319 320 321 321 321 316 323 331 336 335 336 336 334 335 338 338
284 288 294 293 291 290 289 288 287 287 291 291 289 286 289 293 297 299 300 300 300 300 302 307 311 311 311 317 320 321 322 324 324 322 316 323 327 329 330 334 333 334 335 337
285 290 288 287 287 289 285 291 291 289 286 282 287 280 288 290 293 296 297 298 299 300 306 310 308 311 313 315 319 321 322 322 325 326 320 324 323 322 326 331 334 334 334 335
283 285 284 284 286 289 285 290 289 289 285 284 285 282 286 290 290 293 296 298 300 301 307 306 307 313 315 316 316 318 321 322 323 325 325 324 323 323 324 325 328 331 331 334
285 289 287 286 290 290 291 288 288 287 284 279 284 282 283 287 290 293 296 298 300 304 305 308 308 314 315 316 316 316 316 319 321 323 323 322 324 323 324 324 326 327 329 330
284 284 287 292 287 290 289 286 279 277 276 277 286 284 285 290 293 295 296 302 301 305 304 305 307 309 311 313 313 315 314 316 321 322 323 323 325 326 325 325 325 325 326 327
277 275 284 288 285 283 284 287 280 274 275 278 286 281 285 293 295 298 298 304 305 304 304 305 306 308 309 311 312 314 314 314 318 322 321 323 324 326 328 327 326 327 326 327
277 277 286 288 288 286 283 281 289 282 283 280 281 285 290 294 295 297 298 304 302 303 304 304 305 307 307 310 312 312 312 313 313 316 321 321 323 326 327 329 327 329 329 327
283 276 284 286 288 288 287 290 280 283 275 274 279 280 282 289 295 296 298 301 303 304 303 303 304 306 307 310 311 312 311 311 311 312 314 317 321 324 326 327 327 327 327 326
284 281 279 284 282 281 283 283 285 285 282 276 276 277 292 291 295 295 296 300 300 298 299 298 301 305 308 310 310 310 310 310 309 309 311 312 316 322 323 325 326 327 327 326
286 281 276 279 286 289 287 284 286 279 277 279 278 279 291 291 295 295 295 298 298 296 297 297 296 302 304 307 309 308 308 309 308 308 308 309 312 317 322 323 325 327 327 326
286 280 273 276 282 286 282 284 285 285 283 276 275 280 292 292 291 296 296 297 295 295 296 296 298 306 308 308 309 308 307 307 307 306 305 307 308 312 318 322 324 326 326 325
289 282 278 273 276 282 280 282 284 284 278 278 279 282 287 289 289 292 295 297 297 293 294 295 305 305 305 306 307 306 306 305 305 304 304 304 306 308 310 318 322 324 325 325
286 278 281 281 282 283 282 282 283 281 281 278 282 283 287 290 291 292 295 297 298 297 298 302 303 303 303 303 303 303 302 301 302 302 302 303 305 306 307 311 321 324 324 324
287 277 281 278 283 283 280 282 282 282 283 281 284 284 290 293 294 293 294 298 298 299 300 301 301 301 301 299 299 298 297 298 299 300 300 302 303 302 302 308 315 322 323 321
283 281 278 275 281 280 276 281 283 284 284 284 280 286 291 291 292 293 293 295 295 296 295 295 296 297 296 295 294 293 294 296 297 298 297 298 298 297 298 300 303 320 320 318
283 281 279 276 278 270 282 286 286 285 285 287 287 287 289 290 293 293 293 292 292 294 294 293 294 294 293 292 291 291 292 293 294 295 293 292 292 293 295 297 301 312 313 310
285 281 277 271 274 278 279 282 282 283 282 287 288 287 289 290 292 290 292 293 292 292 293 293 293 293 291 290 289 289 289 290 291 290 288 290 290 291 293 294 297 302 303 302
285 285 280 278 273 271 278 284 287 285 278 285 289 287 286 288 283 286 291 291 290 292 292 292 293 292 289 287 287 286 285 286 286 286 286 288 289 291 291 292 295 301 300 294
276 275 276 277 275 277 282 285 287 276 275 287 288 287 287 285 287 289 290 289 291 290 289 289 289 288 287 286 285 283 283 282 284 284 286 287 289 290 291 292 294 295 293 290
275 271 273 274 266 267 286 284 277 282 286 287 287 287 286 287 289 289 288 287 288 285 285 285 284 284 285 284 283 281 280 281 282 283 285 286 288 289 290 292 295 292 290 288
272 281 278 280 279 285 287 285 287 287 286 286 287 287 287 286 286 287 286 285 285 283 283 283 282 282 282 282 282 279 280 281 281 283 284 285 286 286 287 289 289 288 288 287
284 287 279 281 284 284 286 288 288 289 288 288 288 288 287 285 285 285 284 283 282 282 281 281 280 279 279 280 280 279 280 280 280 281 283 283 283 283 282 284 286 286 285 285
284 286 282 281 284 285 286 287 287 287 289 288 288 287 285 285 283 283 282 280 280 280 280 280 279 278 278 279 279 279 279 279 279 280 282 281 281 281 281 281 282 284 284 285
285 283 277 278 285 284 285 287 289 286 286 287 286 285 285 284 282 282 281 280 279 278 279 279 278 277 277 278 279 279 279 279 278 279 280 280 280 279 280 279 280 283 283 283

GFSCGP_sfc_thetae_132.txt.gz
Theta_e
291 285 283 287 287 287 285 283 282 286 290 287 288 289 292 294 294 294 293 294 295 296 300 304 308 308 309 309 311 313 323 331 332 331 332 330 331 331 332 332 337 336 340 339
284 282 289 291 291 289 286 283 283 287 290 288 287 287 291 292 293 294 296 293 295 296 300 302 304 307 310 312 317 319 318 317 320 323 330 331 332 331 334 334 332 335 337 337
280 284 289 287 284 285 284 284 284 284 287 288 285 284 287 291 293 295 296 296 297 297 298 306 310 310 313 314 318 320 321 322 322 320 316 325 328 329 330 330 331 332 334 336
282 287 286 284 283 284 281 286 286 284 282 278 286 279 287 288 290 292 294 295 295 296 303 310 310 311 314 314 317 319 320 320 324 323 316 321 325 328 331 333 333 332 331 332
282 283 283 281 283 285 284 289 286 285 282 280 284 278 284 287 288 289 292 295 294 297 306 306 309 312 311 313 315 316 318 318 319 322 323 322 320 320 322 327 331 332 331 334
283 286 284 283 287 287 289 287 287 285 281 276 282 281 280 286 287 291 295 296 296 297 304 309 313 313 314 312 312 314 317 319 320 321 320 320 322 323 321 323 328 328 327 332
282 282 284 287 283 285 284 283 276 275 275 275 284 282 283 289 291 292 293 294 296 299 302 309 311 312 310 310 312 314 315 315 318 318 320 320 321 322 323 322 325 325 325 327
275 274 282 286 283 280 280 283 274 270 273 277 285 278 284 291 295 298 300 297 299 300 304 310 310 309 311 311 312 313 313 312 314 314 316 318 320 321 323 326 324 326 326 327
276 277 285 286 286 284 281 277 284 278 279 276 280 284 288 292 293 296 297 298 299 299 303 305 307 310 310 311 310 311 311 310 311 312 312 314 314 319 321 324 325 327 327 327
281 275 283 285 286 285 282 285 277 277 266 269 279 280 281 286 288 292 294 296 297 304 304 304 305 309 310 311 311 310 310 309 309 309 310 310 311 313 318 323 325 325 327 327
283 279 279 283 280 279 281 280 282 282 278 273 273 279 289 287 290 290 294 297 298 297 299 299 304 309 310 309 309 309 308 308 307 307 308 308 308 310 313 320 321 324 327 326
285 280 276 278 284 287 285 282 282 276 275 279 279 278 291 291 292 292 291 294 297 300 299 300 306 307 307 307 306 306 307 306 306 305 305 306 308 308 308 310 317 324 325 326
285 279 270 275 279 285 282 284 284 284 282 277 274 275 291 291 291 291 292 294 297 298 298 302 305 305 305 306 306 304 303 302 302 303 303 304 305 305 305 306 310 315 323 325
288 281 277 273 276 280 279 282 283 282 277 277 278 278 285 288 288 289 293 295 298 300 299 302 301 301 300 301 300 300 299 300 300 301 301 300 302 302 303 303 305 311 317 323
285 276 280 281 282 282 282 281 281 279 280 277 280 280 285 289 290 292 294 297 296 296 296 296 297 297 295 295 295 295 295 296 298 298 297 297 299 300 299 299 301 303 308 320
285 274 278 277 281 282 279 281 282 282 282 281 282 283 290 293 294 294 293 294 293 294 294 294 294 294 293 292 291 292 292 293 296 295 295 295 294 294 295 296 297 300 305 311
284 282 278 275 279 279 276 279 282 283 284 284 280 284 288 288 292 290 291 292 291 291 291 291 292 292 291 290 289 288 289 291 291 293 292 291 291 291 292 293 295 297 300 303
282 279 279 276 278 269 279 284 285 283 282 284 285 286 287 288 291 291 291 290 290 290 290 290 290 290 289 288 287 288 288 287 289 289 288 288 289 289 290 292 293 294 296 300
284 281 278 272 275 278 280 281 281 280 280 284 283 285 287 289 291 289 290 290 289 288 287 287 288 288 286 285 285 285 285 285 285 284 285 286 287 288 289 290 291 292 294 296
284 282 275 276 272 269 278 283 286 285 276 284 286 285 286 287 282 285 289 289 287 286 285 284 285 285 284 283 284 283 282 282 281 282 283 285 287 288 288 289 290 292 293 296
274 272 268 272 271 276 282 284 286 274 273 285 287 286 286 284 286 288 288 286 285 284 283 283 283 282 282 282 282 280 280 279 281 282 282 284 286 287 288 289 290 291 293 291
274 271 267 272 264 266 285 284 277 282 286 286 286 286 285 286 286 286 285 283 283 281 281 282 280 280 281 281 280 278 278 280 280 281 282 283 285 286 286 285 287 291 290 287
271 277 272 278 278 285 287 285 287 287 285 286 286 287 286 285 283 284 282 281 281 280 280 281 279 279 279 279 279 277 278 279 280 280 280 282 283 284 284 283 284 287 288 286
281 286 278 278 282 284 285 287 287 288 287 288 287 286 284 283 282 282 282 280 280 279 279 281 278 277 277 278 279 279 279 279 278 278 279 280 279 280 282 282 282 284 285 285
279 286 280 278 283 285 287 286 287 287 288 287 286 285 284 283 282 281 281 279 278 278 278 280 277 277 276 277 278 279 278 278 277 277 277 277 277 279 280 280 281 282 284 286
284 282 274 273 283 283 284 286 289 285 285 284 283 283 284 282 281 281 280 280 278 278 277 277 277 276 276 276 277 279 278 278 277 276 276 276 276 277 277 276 278 282 283 284

GFSCGP_sfc_thetae_135.txt.gz
Theta_e
289 285 283 285 286 287 284 281 281 285 288 285 285 287 290 292 290 291 292 293 293 295 297 298 300 303 306 307 308 327 333 337 337 336 335 334 333 333 333 336 337 337 337 337
282 279 286 286 286 285 286 283 282 285 287 286 284 285 289 291 290 291 292 292 293 293 296 298 303 303 308 307 313 327 335 336 338 337 333 329 331 332 334 332 334 336 337 337
279 282 287 285 283 282 281 281 281 282 283 284 283 283 285 288 290 292 293 294 294 294 295 297 306 308 312 314 316 319 322 326 326 325 326 327 328 329 329 328 330 332 335 335
281 285 284 282 281 281 277 285 285 283 280 276 283 275 284 287 288 290 292 292 292 293 295 298 306 311 314 315 315 317 321 323 323 320 318 323 326 325 329 331 332 331 330 332
281 282 282 280 282 284 282 286 286 285 281 278 281 276 282 285 286 287 290 293 294 294 294 297 307 313 314 315 316 315 317 321 323 323 321 320 319 321 322 327 329 330 329 331
282 285 282 282 285 284 285 282 283 283 280 274 280 277 279 282 285 289 294 297 299 297 294 300 307 311 311 311 312 315 319 319 320 320 321 320 320 321 321 323 328 329 329 328
280 281 283 286 281 283 282 279 273 272 273 273 282 278 280 288 292 292 295 297 297 299 298 299 308 311 308 308 313 315 316 315 317 318 318 317 318 319 320 321 325 326 324 325
275 274 281 285 282 279 279 279 271 267 270 273 281 275 280 289 292 295 298 297 297 297 299 299 310 310 308 309 311 312 312 312 313 313 312 313 314 316 319 321 323 324 324 324
275 276 283 285 284 282 279 276 281 275 277 274 276 280 286 290 290 292 295 295 294 297 298 303 308 308 308 308 310 310 308 309 310 309 309 309 310 312 314 317 320 323 324 325
280 275 282 283 284 283 280 283 274 275 266 267 271 275 277 285 288 291 291 290 294 297 299 303 306 308 309 309 309 308 308 307 307 306 307 307 308 309 311 315 318 320 323 323
281 278 278 281 278 277 280 279 279 278 276 272 271 274 288 287 289 290 292 292 295 296 298 304 307 308 308 307 306 305 305 304 303 303 305 305 306 308 309 309 310 314 320 322
283 280 275 277 283 285 283 281 279 271 270 277 276 277 290 290 290 292 292 295 297 298 299 303 305 305 303 302 301 300 300 300 300 302 303 304 305 305 305 305 305 307 311 318
283 278 270 275 278 283 280 283 283 283 281 276 273 276 289 290 290 292 293 295 296 298 299 299 299 298 297 296 297 296 296 297 298 300 299 299 300 301 301 300 302 303 306 310
288 280 277 272 275 278 277 280 283 281 275 277 277 277 284 288 288 292 293 295 294 294 295 296 295 295 295 294 293 293 293 295 297 297 296 296 296 296 296 298 298 299 301 304
284 276 279 280 281 281 280 280 281 279 280 277 279 279 284 288 291 293 293 293 293 291 292 292 293 293 291 291 290 290 291 292 293 294 294 293 293 294 294 295 295 297 298 301
284 274 277 277 281 281 279 279 280 281 282 282 281 281 287 290 293 291 290 291 290 290 290 290 291 290 289 288 288 288 288 288 290 291 290 290 290 291 292 292 293 295 296 297
281 280 278 274 279 279 276 278 280 282 282 282 278 282 286 286 289 288 288 288 287 288 287 287 287 287 287 286 286 285 286 287 287 287 287 287 288 288 289 291 292 293 294 294
281 279 279 275 278 269 278 284 283 282 281 282 283 284 285 287 289 288 288 287 285 285 284 285 285 285 285 284 284 285 285 284 284 284 283 284 285 286 288 290 290 291 292 293
284 280 277 271 274 277 279 280 280 279 278 282 283 284 284 287 289 286 287 286 284 283 283 283 283 284 283 282 282 283 282 282 282 281 281 282 284 285 287 287 288 290 291 292
281 280 273 275 272 269 277 282 285 285 275 283 284 283 284 284 279 282 285 285 282 282 282 281 281 281 280 280 280 280 279 279 279 280 280 282 284 285 285 286 288 288 289 291
273 271 267 272 263 270 281 283 285 274 272 284 285 284 284 282 284 287 284 282 282 281 281 281 280 279 279 279 279 278 278 278 279 280 281 281 283 283 285 285 285 285 287 291
273 271 267 270 262 264 284 284 276 281 286 286 286 286 284 285 284 283 283 281 280 279 279 280 278 278 278 278 277 277 277 279 279 279 280 280 282 282 283 283 283 284 285 288
269 272 271 274 273 282 286 283 287 287 285 286 285 285 284 283 282 281 281 280 279 278 277 278 278 277 277 277 277 276 278 278 278 278 278 278 280 280 281 281 281 281 283 286
278 286 280 275 280 283 283 287 286 286 286 287 286 284 283 281 282 280 281 279 277 277 277 277 277 276 276 277 277 277 278 278 278 277 276 277 277 278 278 278 280 281 281 282
276 284 279 275 283 284 286 285 286 286 286 284 284 284 282 281 281 280 279 278 277 277 276 276 276 276 275 276 276 277 278 278 276 276 277 276 277 275 275 276 276 279 281 282
282 280 274 272 281 281 284 285 287 284 282 282 281 280 281 279 278 279 279 279 277 276 276 275 275 275 275 275 276 277 278 277 276 276 276 274 273 273 273 272 273 278 281 283